[[{"header":{"parameterUnit":"m.s-1","parameterCategory":1,"la1":31.0,"la2":29.5877,"lo1":-88.7671,"lo2":-86.6584,"dy":0.0162,"dx":0.0185,"nx":115,"ny":88,"refTime":"2023-04-12T12:00:00:Z","depth":0,"parameterNumber":2,"parameterNumberName":"U-component_of_WINDS"},"data":[0.0,0.0,0.0,0.0,0.0,0.0,0.0,0.0,0.0,0.0,0.0,0.0,0.0,0.0,0.0,0.0,0.0,0.0,0.0,0.0,0.0,0.0,0.0,0.0,0.0,0.0,0.0,0.0,0.0,0.0,0.0,0.0,0.0,0.0,0.0,0.0,0.0,0.0,0.0,0.0,0.0,0.0,0.0,0.0,0.0,0.0,0.0,0.0,0.0,0.0,0.0,0.0,0.0,0.0,0.0,0.0,0.0,0.0,0.0,0.0,0.0,0.0,0.0,0.0,0.0,0.0,0.0,0.0,0.0,0.0,0.0,0.0,0.0,0.0,0.0,0.0,0.0,0.0,0.0,0.0,0.0,0.0,0.0,0.0,0.0,0.0,0.0,0.0,0.0,0.0,0.0,0.0,0.0,0.0,0.0,0.0,0.0,0.0,0.0,0.0,0.0,0.0,0.0,0.0,0.0,0.0,0.0,0.0,0.0,0.0,0.0,0.0,0.0,0.0,0.0,0.0,0.0,0.0,0.0,0.0,0.0,0.0,0.0,0.0,0.0,0.0,0.0,0.0,0.0,0.0,0.0,0.0,0.0,0.0,0.0,0.0,0.0,0.0,0.0,0.0,0.0,0.0,0.0,0.0,0.0,0.0,0.0,0.0,0.0,0.0,0.0,0.0,0.0,0.0,0.0,0.0,0.0,0.0,0.0,0.0,0.0,0.0,0.0,0.0,0.0,0.0,0.0,0.0,0.0,0.0,0.0,0.0,0.0,0.0,0.0,0.0,0.0,0.0,0.0,0.0,0.0,0.0,0.0,0.0,0.0,0.0,0.0,0.0,0.0,0.0,0.0,0.0,0.0,0.0,0.0,0.0,0.0,0.0,0.0,0.0,0.0,0.0,0.0,0.0,0.0,0.0,0.0,0.0,0.0,0.0,0.0,0.0,0.0,0.0,0.0,0.0,0.0,0.0,0.0,0.0,0.0,0.0,0.0,0.0,0.0,0.0,0.0,0.0,0.0,0.0,0.0,0.0,0.0,0.0,0.0,0.0,0.0,0.0,0.0,0.0,0.0,0.0,0.0,0.0,0.0,0.0,0.0,0.0,0.0,0.0,0.0,0.0,0.0,0.0,0.0,0.0,0.0,0.0,0.0,0.0,0.0,0.0,0.0,0.0,0.0,0.0,0.0,0.0,0.0,0.0,0.0,0.0,0.0,0.0,0.0,0.0,0.0,0.0,0.0,0.0,0.0,0.0,0.0,0.0,0.0,0.0,0.0,0.0,0.0,0.0,0.0,0.0,0.0,0.0,0.0,0.0,0.0,0.0,0.0,0.0,0.0,0.0,0.0,0.0,0.0,0.0,0.0,0.0,0.0,0.0,0.0,0.0,0.0,0.0,0.0,0.0,0.0,0.0,0.0,0.0,0.0,0.0,0.0,0.0,0.0,0.0,0.0,0.0,0.0,0.0,0.0,0.0,0.0,0.0,0.0,0.0,0.0,0.0,0.0,0.0,0.0,0.0,0.0,0.0,0.0,0.0,0.0,0.0,0.0,0.0,0.0,0.0,0.0,0.0,0.0,0.0,0.0,0.0,0.0,0.0,0.0,0.0,0.0,0.0,0.0,0.0,0.0,0.0,0.0,0.0,0.0,0.0,0.0,0.0,0.0,0.0,0.0,0.0,0.0,0.0,0.0,0.0,0.0,0.0,0.0,0.0,0.0,0.0,0.0,0.0,0.0,0.0,0.0,0.0,0.0,0.0,0.0,0.0,0.0,0.0,0.0,0.0,0.0,0.0,0.0,0.0,0.0,0.0,0.0,0.0,0.0,0.0,0.0,0.0,0.0,0.0,0.0,0.0,0.0,0.0,0.0,0.0,0.0,0.0,0.0,0.0,0.0,0.0,0.0,0.0,0.0,0.0,0.0,0.0,0.0,0.0,0.0,0.0,0.0,0.0,0.0,0.0,0.0,0.0,0.0,0.0,0.0,0.0,0.0,0.0,0.0,0.0,0.0,0.0,0.0,0.0,0.0,0.0,0.0,0.0,0.0,0.0,0.0,0.0,0.0,0.0,0.0,0.0,0.0,0.0,0.0,0.0,0.0,0.0,0.0,0.0,0.0,0.0,0.0,0.0,0.0,0.0,0.0,0.0,0.0,0.0,0.0,0.0,0.0,0.0,0.0,0.0,0.0,0.0,0.0,0.0,0.0,0.0,0.0,0.0,0.0,0.0,0.0,0.0,0.0,0.0,0.0,0.0,0.0,0.0,0.0,0.0,0.0,0.0,0.0,0.0,0.0,0.0,0.0,0.0,0.0,0.0,0.0,0.0,0.0,0.0,0.0,0.0,0.0,0.0,0.0,0.0,0.0,0.0,0.0,0.0,0.0,0.0,0.0,0.0,0.0,0.0,0.0,0.0,0.0,0.0,0.0,0.0,0.0,0.0,0.0,0.0,0.0,0.0,0.0,0.0,0.0,0.0,0.0,0.0,0.0,0.0,0.0,0.0,0.0,0.0,0.0,0.0,0.0,0.0,0.0,0.0,0.0,0.0,0.0,0.0,0.0,0.0,0.0,0.0,0.0,0.0,0.0,0.0,0.0,0.0,0.0,0.0,0.0,0.0,0.0,0.0,0.0,0.0,0.0,0.0,0.0,0.0,0.0,0.0,0.0,0.0,0.0,0.0,0.0,0.0,0.0,0.0,0.0,0.0,0.0,0.0,0.0,0.0,0.0,0.0,0.0,0.0,0.0,0.0,0.0,0.0,0.0,0.0,0.0,0.0,0.0,0.0,0.0,0.0,0.0,0.0,0.0,0.0,0.0,0.0,0.0,0.0,0.0,0.0,0.0,0.0,0.0,0.0,0.0,0.0,0.0,0.0,0.0,0.0,0.0,0.0,0.0,0.0,0.0,0.0,0.0,0.0,0.0,0.0,0.0,0.0,0.0,0.0,0.0,0.0,0.0,0.0,0.0,0.0,0.0,0.0,0.0,0.0,0.0,0.0,0.0,0.0,0.0,0.0,0.0,0.0,0.0,0.0,0.0,0.0,0.0,0.0,0.0,0.0,0.0,0.0,0.0,0.0,0.0,0.0,0.0,0.0,0.0,0.0,0.0,0.0,0.0,0.0,0.0,0.0,0.0,0.0,0.0,0.0,0.0,0.0,0.0,0.0,0.0,0.0,0.0,0.0,0.0,0.0,0.0,0.0,0.0,0.0,0.0,0.0,0.0,0.0,0.0,0.0,0.0,0.0,0.0,0.0,0.0,0.0,0.0,0.0,0.0,0.0,0.0,0.0,0.0,0.0,0.0,0.0,0.0,0.0,0.0,0.0,0.0,0.0,0.0,0.0,0.0,0.0,0.0,0.0,0.0,0.0,0.0,0.0,0.0,0.0,0.0,0.0,0.0,0.0,0.0,0.0,0.0,0.0,0.0,0.0,0.0,0.0,0.0,0.0,0.0,0.0,0.0,0.0,0.0,0.0,0.0,0.0,0.0,0.0,0.0,0.0,0.0,0.0,0.0,0.0,0.0,0.0,0.0,0.0,0.0,0.0,0.0,0.0,0.0,0.0,0.0,0.0,0.0,0.0,0.0,0.0,0.0,0.0,0.0,0.0,0.0,0.0,0.0,0.0,0.0,0.0,0.0,0.0,0.0,0.0,0.0,0.0,0.0,0.0,0.0,0.0,0.0,0.0,0.0,0.0,0.0,0.0,0.0,0.0,0.0,0.0,0.0,0.0,0.0,0.0,0.0,0.0,0.0,0.0,0.0,0.0,0.0,0.0,0.0,0.0,0.0,0.0,0.0,0.0,0.0,0.0,0.0,0.0,0.0,0.0,0.0,0.0,0.0,0.0,0.0,0.0,0.0,0.0,0.0,0.0,0.0,0.0,0.0,0.0,0.0,0.0,0.0,0.0,0.0,0.0,0.0,0.0,0.0,0.0,0.0,0.0,0.0,0.0,0.0,0.0,0.0,0.0,0.0,0.0,0.0,0.0,0.0,0.0,0.0,0.0,0.0,0.0,0.0,0.0,0.0,0.0,0.0,0.0,0.0,0.0,0.0,0.0,0.0,0.0,0.0,0.0,0.0,0.0,0.0,0.0,0.0,0.0,0.0,0.0,0.0,0.0,0.0,0.0,0.0,0.0,0.0,0.0,0.0,0.0,0.0,0.0,0.0,0.0,0.0,0.0,0.0,0.0,0.0,0.0,0.0,0.0,0.0,0.0,0.0,0.0,0.0,0.0,0.0,0.0,0.0,0.0,0.0,0.0,0.0,0.0,0.0,0.0,-2.5703,0.0,0.0,0.0,0.0,0.0,0.0,0.0,0.0,0.0,0.0,0.0,0.0,0.0,0.0,0.0,0.0,0.0,0.0,0.0,0.0,0.0,0.0,0.0,0.0,0.0,0.0,0.0,0.0,0.0,0.0,0.0,0.0,0.0,0.0,0.0,0.0,0.0,0.0,0.0,0.0,0.0,0.0,0.0,0.0,0.0,0.0,0.0,0.0,0.0,0.0,0.0,0.0,0.0,0.0,0.0,0.0,0.0,0.0,0.0,0.0,0.0,0.0,0.0,0.0,0.0,0.0,0.0,0.0,0.0,0.0,0.0,0.0,0.0,0.0,0.0,0.0,0.0,0.0,0.0,0.0,0.0,0.0,0.0,0.0,0.0,0.0,0.0,0.0,0.0,0.0,0.0,0.0,0.0,0.0,0.0,0.0,0.0,0.0,0.0,0.0,0.0,0.0,0.0,0.0,0.0,0.0,0.0,0.0,0.0,0.0,-2.6406,-2.6406,-2.5957,-2.5703,-2.5703,0.0,0.0,0.0,0.0,0.0,0.0,0.0,0.0,0.0,0.0,0.0,0.0,0.0,0.0,0.0,0.0,0.0,0.0,0.0,0.0,0.0,0.0,0.0,0.0,0.0,0.0,0.0,0.0,0.0,0.0,0.0,0.0,0.0,0.0,0.0,0.0,0.0,0.0,0.0,0.0,0.0,0.0,0.0,0.0,0.0,0.0,0.0,0.0,0.0,0.0,0.0,0.0,0.0,0.0,0.0,0.0,0.0,0.0,0.0,0.0,0.0,0.0,0.0,0.0,0.0,0.0,0.0,0.0,0.0,0.0,0.0,0.0,0.0,0.0,0.0,0.0,0.0,0.0,0.0,0.0,0.0,0.0,0.0,0.0,0.0,0.0,0.0,0.0,0.0,0.0,0.0,0.0,0.0,0.0,0.0,0.0,0.0,0.0,0.0,0.0,0.0,0.0,0.0,0.0,0.0,0.0,0.0,0.0,0.0,0.0,0.0,0.0,-2.6641,-2.6289,-2.6289,0.0,0.0,0.0,0.0,0.0,0.0,0.0,0.0,0.0,0.0,0.0,0.0,0.0,0.0,0.0,0.0,0.0,0.0,0.0,0.0,0.0,0.0,0.0,0.0,0.0,0.0,0.0,0.0,0.0,0.0,0.0,0.0,0.0,0.0,0.0,0.0,0.0,0.0,0.0,0.0,0.0,0.0,0.0,0.0,0.0,0.0,0.0,0.0,0.0,0.0,0.0,0.0,0.0,0.0,0.0,0.0,0.0,0.0,0.0,0.0,0.0,0.0,0.0,0.0,0.0,0.0,0.0,0.0,0.0,0.0,0.0,0.0,0.0,0.0,0.0,0.0,0.0,0.0,0.0,0.0,0.0,0.0,0.0,0.0,0.0,0.0,0.0,0.0,0.0,0.0,0.0,0.0,0.0,0.0,0.0,0.0,0.0,0.0,0.0,0.0,0.0,0.0,0.0,0.0,0.0,0.0,0.0,0.0,0.0,0.0,-2.8183,-2.8203,-2.8086,0.0,-2.8027,0.0,0.0,0.0,0.0,0.0,0.0,0.0,0.0,0.0,0.0,0.0,0.0,0.0,0.0,0.0,0.0,0.0,0.0,0.0,0.0,0.0,0.0,0.0,0.0,0.0,0.0,0.0,0.0,0.0,0.0,0.0,0.0,0.0,0.0,0.0,0.0,0.0,0.0,0.0,0.0,0.0,0.0,0.0,0.0,0.0,0.0,0.0,0.0,0.0,0.0,0.0,0.0,0.0,0.0,0.0,0.0,0.0,0.0,0.0,0.0,0.0,0.0,0.0,0.0,0.0,0.0,0.0,0.0,0.0,0.0,0.0,0.0,0.0,0.0,0.0,0.0,0.0,0.0,0.0,0.0,0.0,0.0,0.0,0.0,0.0,0.0,0.0,0.0,0.0,0.0,0.0,0.0,0.0,0.0,0.0,0.0,0.0,0.0,0.0,0.0,0.0,0.0,0.0,0.0,0.0,0.0,0.0,0.0,0.0,0.0,-2.9062,-2.9082,-2.8574,-2.8281,0.0,0.0,0.0,0.0,0.0,0.0,0.0,0.0,0.0,0.0,0.0,0.0,0.0,0.0,0.0,0.0,0.0,0.0,0.0,0.0,0.0,0.0,0.0,0.0,0.0,0.0,0.0,0.0,0.0,0.0,0.0,0.0,0.0,0.0,0.0,0.0,0.0,0.0,0.0,0.0,0.0,0.0,0.0,0.0,0.0,0.0,0.0,0.0,0.0,0.0,0.0,0.0,0.0,0.0,0.0,0.0,0.0,0.0,0.0,0.0,0.0,0.0,0.0,0.0,0.0,0.0,0.0,0.0,0.0,0.0,0.0,0.0,0.0,0.0,0.0,0.0,0.0,0.0,0.0,0.0,0.0,0.0,0.0,0.0,0.0,0.0,0.0,0.0,0.0,0.0,0.0,0.0,0.0,0.0,0.0,0.0,0.0,0.0,0.0,0.0,0.0,0.0,0.0,0.0,0.0,0.0,0.0,0.0,0.0,0.0,-3.025,-2.996,-2.9941,-2.9336,-2.9023,-2.9004,0.0,0.0,0.0,0.0,0.0,0.0,0.0,0.0,0.0,0.0,0.0,0.0,0.0,0.0,0.0,0.0,0.0,0.0,0.0,0.0,0.0,0.0,0.0,0.0,0.0,0.0,0.0,0.0,0.0,0.0,0.0,0.0,0.0,0.0,0.0,0.0,0.0,0.0,0.0,0.0,0.0,0.0,0.0,0.0,0.0,0.0,0.0,0.0,0.0,0.0,0.0,0.0,0.0,0.0,0.0,0.0,0.0,0.0,0.0,0.0,0.0,0.0,0.0,0.0,0.0,0.0,0.0,0.0,0.0,0.0,0.0,0.0,0.0,0.0,0.0,0.0,0.0,0.0,0.0,0.0,0.0,0.0,0.0,0.0,0.0,0.0,0.0,0.0,0.0,0.0,0.0,0.0,0.0,0.0,0.0,0.0,0.0,0.0,0.0,0.0,0.0,0.0,0.0,0.0,0.0,0.0,0.0,0.0,-3.0781,-3.0813,-3.0838,-3.082,-3.0801,-3.0781,0.0,0.0,0.0,0.0,0.0,0.0,0.0,0.0,0.0,0.0,0.0,0.0,0.0,0.0,0.0,0.0,0.0,0.0,0.0,0.0,0.0,0.0,0.0,0.0,0.0,0.0,0.0,0.0,0.0,0.0,0.0,0.0,0.0,0.0,0.0,0.0,0.0,0.0,0.0,0.0,0.0,0.0,0.0,0.0,0.0,0.0,0.0,0.0,0.0,0.0,0.0,0.0,0.0,0.0,0.0,0.0,0.0,0.0,0.0,0.0,0.0,0.0,0.0,0.0,0.0,0.0,0.0,0.0,0.0,0.0,0.0,0.0,0.0,0.0,0.0,0.0,0.0,0.0,0.0,0.0,0.0,0.0,0.0,0.0,0.0,0.0,0.0,0.0,0.0,0.0,0.0,0.0,0.0,0.0,0.0,0.0,0.0,0.0,0.0,0.0,0.0,0.0,0.0,0.0,0.0,0.0,0.0,0.0,0.0,-3.0001,-3.0532,-3.0855,-3.0898,-3.0917,-3.0918,0.0,0.0,0.0,0.0,0.0,0.0,0.0,0.0,0.0,0.0,0.0,0.0,0.0,0.0,0.0,0.0,0.0,0.0,0.0,0.0,0.0,0.0,0.0,0.0,0.0,0.0,0.0,0.0,0.0,0.0,0.0,0.0,0.0,0.0,0.0,0.0,0.0,0.0,0.0,0.0,0.0,0.0,0.0,0.0,0.0,0.0,0.0,0.0,0.0,0.0,0.0,0.0,0.0,0.0,0.0,0.0,0.0,0.0,0.0,0.0,0.0,0.0,0.0,0.0,0.0,0.0,0.0,0.0,0.0,0.0,0.0,0.0,0.0,0.0,0.0,0.0,0.0,0.0,0.0,0.0,0.0,0.0,0.0,0.0,0.0,0.0,0.0,0.0,0.0,0.0,0.0,0.0,0.0,0.0,0.0,0.0,0.0,0.0,0.0,0.0,0.0,0.0,0.0,0.0,0.0,0.0,0.0,0.0,0.0,-2.9501,0.0,-3.0519,-3.0856,-3.0877,-3.0917,0.0,0.0,0.0,0.0,0.0,0.0,0.0,0.0,0.0,0.0,0.0,0.0,0.0,0.0,0.0,0.0,0.0,0.0,0.0,0.0,0.0,0.0,0.0,0.0,0.0,0.0,0.0,0.0,0.0,0.0,0.0,0.0,0.0,0.0,0.0,0.0,0.0,0.0,0.0,0.0,0.0,0.0,0.0,0.0,0.0,0.0,0.0,0.0,0.0,0.0,0.0,0.0,0.0,0.0,0.0,0.0,0.0,0.0,0.0,0.0,0.0,0.0,0.0,0.0,0.0,0.0,0.0,0.0,0.0,0.0,0.0,0.0,0.0,0.0,0.0,0.0,0.0,0.0,0.0,0.0,0.0,0.0,0.0,0.0,0.0,0.0,0.0,0.0,0.0,0.0,0.0,0.0,0.0,0.0,0.0,0.0,0.0,0.0,0.0,0.0,0.0,0.0,0.0,0.0,0.0,0.0,0.0,0.0,-2.8531,-2.942,-2.9506,-2.9966,-3.0751,-3.0855,-3.0897,0.0,0.0,0.0,0.0,0.0,0.0,0.0,0.0,0.0,0.0,0.0,0.0,0.0,0.0,0.0,0.0,0.0,0.0,0.0,0.0,0.0,0.0,0.0,0.0,0.0,0.0,0.0,0.0,0.0,0.0,0.0,0.0,0.0,0.0,0.0,0.0,0.0,0.0,0.0,0.0,0.0,0.0,0.0,0.0,0.0,0.0,0.0,0.0,0.0,0.0,0.0,0.0,0.0,0.0,0.0,0.0,0.0,0.0,0.0,0.0,0.0,0.0,0.0,0.0,0.0,0.0,0.0,0.0,0.0,0.0,0.0,0.0,0.0,0.0,0.0,0.0,0.0,0.0,0.0,0.0,0.0,0.0,0.0,0.0,0.0,0.0,0.0,0.0,0.0,0.0,0.0,0.0,0.0,0.0,0.0,0.0,0.0,0.0,0.0,0.0,0.0,0.0,0.0,0.0,0.0,0.0,0.0,0.0,0.0,-2.8518,-2.9167,-2.9915,-3.075,-3.0826,-3.0855,0.0,0.0,0.0,0.0,0.0,0.0,0.0,0.0,0.0,0.0,0.0,0.0,0.0,0.0,0.0,0.0,0.0,0.0,0.0,0.0,0.0,0.0,0.0,0.0,0.0,0.0,0.0,0.0,0.0,0.0,0.0,0.0,0.0,0.0,0.0,0.0,0.0,0.0,0.0,0.0,0.0,0.0,0.0,0.0,0.0,0.0,0.0,0.0,0.0,0.0,0.0,0.0,0.0,0.0,0.0,0.0,0.0,0.0,0.0,0.0,0.0,0.0,0.0,0.0,0.0,0.0,0.0,0.0,0.0,0.0,0.0,0.0,0.0,0.0,0.0,0.0,0.0,0.0,0.0,0.0,0.0,0.0,0.0,0.0,0.0,0.0,0.0,0.0,0.0,0.0,0.0,0.0,0.0,0.0,0.0,0.0,0.0,0.0,0.0,0.0,0.0,0.0,0.0,0.0,0.0,0.0,0.0,0.0,0.0,-2.8904,-2.926,-2.9861,-3.0754,-3.0765,-3.0805,-3.0855,0.0,0.0,0.0,0.0,0.0,0.0,0.0,0.0,0.0,0.0,0.0,0.0,0.0,0.0,0.0,0.0,0.0,0.0,0.0,0.0,0.0,0.0,0.0,0.0,0.0,0.0,0.0,0.0,0.0,0.0,0.0,0.0,0.0,0.0,0.0,0.0,0.0,0.0,0.0,0.0,0.0,0.0,0.0,0.0,0.0,0.0,0.0,0.0,0.0,0.0,0.0,0.0,0.0,0.0,0.0,0.0,0.0,0.0,0.0,0.0,0.0,0.0,0.0,0.0,0.0,0.0,0.0,0.0,0.0,0.0,0.0,0.0,0.0,0.0,0.0,0.0,0.0,0.0,0.0,0.0,0.0,0.0,0.0,0.0,0.0,0.0,0.0,0.0,0.0,0.0,0.0,0.0,0.0,0.0,0.0,0.0,0.0,0.0,0.0,0.0,0.0,0.0,0.0,0.0,0.0,0.0,0.0,0.0,-3.0508,-2.9861,-2.9919,-3.0752,-3.0799,-3.0778,0.0,0.0,0.0,0.0,0.0,0.0,0.0,0.0,0.0,0.0,0.0,0.0,0.0,0.0,0.0,0.0,0.0,0.0,0.0,0.0,0.0,0.0,0.0,0.0,0.0,0.0,0.0,0.0,0.0,0.0,0.0,0.0,0.0,0.0,0.0,0.0,0.0,0.0,0.0,0.0,0.0,0.0,0.0,0.0,0.0,0.0,0.0,0.0,0.0,0.0,0.0,0.0,0.0,0.0,0.0,0.0,0.0,0.0,0.0,0.0,0.0,0.0,0.0,0.0,0.0,0.0,0.0,0.0,0.0,0.0,0.0,0.0,0.0,0.0,0.0,0.0,0.0,0.0,0.0,0.0,0.0,0.0,0.0,0.0,0.0,0.0,0.0,0.0,0.0,0.0,0.0,0.0,0.0,0.0,0.0,0.0,0.0,0.0,0.0,0.0,0.0,0.0,0.0,0.0,0.0,0.0,0.0,0.0,0.0,-3.2121,-3.2102,-3.1879,-3.1545,-3.1605,-3.1371,0.0,0.0,0.0,0.0,0.0,0.0,0.0,0.0,0.0,0.0,0.0,0.0,0.0,0.0,0.0,0.0,0.0,0.0,0.0,0.0,0.0,0.0,0.0,0.0,0.0,0.0,0.0,0.0,0.0,0.0,0.0,0.0,0.0,0.0,0.0,0.0,0.0,0.0,0.0,0.0,0.0,0.0,0.0,0.0,0.0,0.0,0.0,0.0,0.0,0.0,0.0,0.0,0.0,0.0,0.0,0.0,0.0,0.0,0.0,0.0,0.0,0.0,0.0,0.0,0.0,0.0,0.0,0.0,0.0,0.0,0.0,0.0,0.0,0.0,0.0,0.0,0.0,0.0,0.0,0.0,0.0,0.0,0.0,0.0,0.0,0.0,0.0,0.0,0.0,0.0,0.0,0.0,0.0,0.0,0.0,0.0,0.0,0.0,0.0,0.0,0.0,0.0,0.0,0.0,0.0,0.0,0.0,0.0,-3.1293,-3.3391,-3.3834,-3.3839,-3.3363,-3.2449,-3.1556,0.0,0.0,0.0,0.0,0.0,0.0,0.0,0.0,0.0,0.0,0.0,0.0,0.0,0.0,0.0,0.0,0.0,0.0,0.0,0.0,0.0,0.0,0.0,0.0,0.0,0.0,0.0,0.0,0.0,0.0,0.0,0.0,0.0,0.0,0.0,0.0,0.0,0.0,0.0,0.0,0.0,0.0,0.0,0.0,0.0,0.0,0.0,0.0,0.0,0.0,0.0,0.0,0.0,0.0,0.0,0.0,0.0,0.0,0.0,0.0,0.0,0.0,0.0,0.0,0.0,0.0,0.0,0.0,0.0,0.0,0.0,0.0,0.0,0.0,0.0,0.0,0.0,0.0,0.0,0.0,0.0,0.0,0.0,0.0,0.0,0.0,0.0,0.0,0.0,0.0,0.0,0.0,0.0,0.0,0.0,0.0,0.0,0.0,0.0,0.0,0.0,0.0,0.0,0.0,0.0,0.0,0.0,0.0,-3.2673,-3.443,-3.5238,-3.5615,-3.5545,-3.3299,-3.1643,0.0,0.0,0.0,0.0,0.0,0.0,0.0,0.0,0.0,0.0,0.0,0.0,0.0,0.0,0.0,0.0,0.0,0.0,0.0,0.0,0.0,0.0,0.0,0.0,0.0,0.0,0.0,0.0,0.0,0.0,0.0,0.0,0.0,0.0,0.0,0.0,0.0,0.0,0.0,0.0,0.0,0.0,0.0,0.0,0.0,0.0,0.0,0.0,0.0,0.0,0.0,0.0,0.0,0.0,0.0,0.0,0.0,0.0,0.0,0.0,0.0,0.0,0.0,0.0,0.0,0.0,0.0,0.0,0.0,0.0,0.0,0.0,0.0,0.0,0.0,0.0,0.0,0.0,0.0,0.0,0.0,0.0,0.0,0.0,0.0,0.0,0.0,0.0,0.0,0.0,0.0,0.0,0.0,0.0,0.0,0.0,0.0,0.0,0.0,0.0,0.0,0.0,0.0,0.0,0.0,0.0,0.0,0.0,-3.3788,-3.6103,-3.6365,-3.6462,-3.6442,-3.4108,-3.2482,0.0,0.0,0.0,0.0,0.0,0.0,0.0,0.0,0.0,0.0,0.0,0.0,0.0,0.0,0.0,0.0,0.0,0.0,0.0,0.0,0.0,0.0,0.0,0.0,0.0,0.0,0.0,0.0,0.0,0.0,0.0,0.0,0.0,0.0,0.0,0.0,0.0,0.0,0.0,0.0,0.0,0.0,0.0,0.0,0.0,0.0,0.0,0.0,-2.5263,0.0,0.0,0.0,0.0,0.0,0.0,0.0,0.0,0.0,0.0,0.0,0.0,0.0,0.0,0.0,0.0,0.0,0.0,0.0,0.0,0.0,0.0,0.0,0.0,0.0,0.0,0.0,0.0,0.0,0.0,0.0,0.0,0.0,0.0,0.0,0.0,0.0,0.0,0.0,0.0,0.0,0.0,0.0,0.0,0.0,0.0,0.0,0.0,0.0,0.0,0.0,0.0,0.0,0.0,0.0,0.0,0.0,0.0,0.0,-3.4934,-3.6635,-3.7096,-3.7315,-3.7219,-3.455,-3.2677,0.0,0.0,0.0,0.0,0.0,0.0,0.0,0.0,0.0,0.0,0.0,0.0,0.0,0.0,0.0,0.0,0.0,0.0,0.0,0.0,0.0,0.0,0.0,0.0,0.0,0.0,0.0,0.0,0.0,0.0,0.0,0.0,0.0,0.0,0.0,0.0,0.0,0.0,0.0,0.0,0.0,0.0,0.0,0.0,0.0,0.0,0.0,0.0,0.0,0.0,0.0,0.0,0.0,0.0,0.0,0.0,0.0,0.0,0.0,0.0,0.0,0.0,0.0,0.0,0.0,0.0,0.0,0.0,0.0,0.0,0.0,0.0,0.0,0.0,0.0,0.0,0.0,0.0,0.0,0.0,0.0,0.0,0.0,0.0,0.0,0.0,0.0,0.0,0.0,0.0,0.0,0.0,0.0,0.0,0.0,0.0,0.0,0.0,0.0,0.0,0.0,0.0,0.0,0.0,0.0,0.0,0.0,-3.328,-3.5811,-3.6692,-3.7546,-3.793,-3.7757,-3.4668,-3.2722,-3.2092,0.0,0.0,0.0,0.0,0.0,0.0,0.0,0.0,0.0,0.0,0.0,0.0,0.0,0.0,0.0,0.0,0.0,0.0,0.0,0.0,0.0,0.0,0.0,0.0,0.0,0.0,0.0,0.0,0.0,0.0,0.0,0.0,0.0,0.0,0.0,0.0,0.0,0.0,-2.5588,-2.5438,0.0,0.0,0.0,0.0,0.0,0.0,0.0,0.0,-2.5279,0.0,0.0,0.0,0.0,0.0,0.0,0.0,0.0,0.0,0.0,0.0,0.0,0.0,0.0,0.0,0.0,0.0,0.0,0.0,0.0,0.0,0.0,0.0,0.0,0.0,0.0,0.0,0.0,0.0,0.0,0.0,0.0,0.0,0.0,0.0,0.0,0.0,0.0,0.0,0.0,0.0,0.0,0.0,0.0,0.0,0.0,0.0,0.0,0.0,0.0,0.0,0.0,0.0,0.0,0.0,0.0,-3.001,-3.3511,-3.5767,-3.6673,-3.7565,-3.7661,-3.6865,-3.4321,-3.2912,-3.2851,0.0,0.0,0.0,0.0,0.0,0.0,0.0,0.0,0.0,0.0,0.0,0.0,0.0,0.0,0.0,0.0,0.0,0.0,0.0,0.0,0.0,0.0,0.0,0.0,0.0,0.0,0.0,0.0,0.0,0.0,0.0,0.0,0.0,0.0,0.0,0.0,0.0,0.0,0.0,-2.5765,-2.561,0.0,0.0,0.0,0.0,0.0,0.0,0.0,0.0,-2.5893,0.0,0.0,0.0,0.0,0.0,0.0,0.0,0.0,0.0,0.0,0.0,0.0,0.0,0.0,0.0,0.0,0.0,0.0,0.0,0.0,0.0,0.0,0.0,0.0,0.0,0.0,0.0,0.0,0.0,0.0,0.0,0.0,0.0,0.0,0.0,0.0,0.0,0.0,0.0,0.0,0.0,0.0,0.0,0.0,0.0,0.0,0.0,0.0,0.0,0.0,0.0,0.0,0.0,0.0,0.0,-3.0798,-3.3253,-3.522,-3.6654,-3.7123,-3.7123,-3.6654,-3.4237,-3.294,0.0,0.0,0.0,0.0,0.0,0.0,0.0,0.0,0.0,0.0,0.0,0.0,0.0,0.0,0.0,0.0,0.0,0.0,0.0,0.0,0.0,0.0,0.0,0.0,0.0,0.0,0.0,0.0,0.0,0.0,0.0,0.0,0.0,0.0,0.0,0.0,0.0,0.0,0.0,0.0,-2.6246,-2.6288,-2.7159,0.0,0.0,0.0,0.0,0.0,0.0,-2.699,-2.6731,0.0,0.0,0.0,0.0,0.0,0.0,0.0,0.0,0.0,0.0,0.0,0.0,0.0,0.0,0.0,0.0,0.0,0.0,0.0,0.0,0.0,0.0,0.0,0.0,0.0,0.0,0.0,0.0,0.0,0.0,0.0,0.0,0.0,0.0,0.0,0.0,0.0,0.0,0.0,0.0,0.0,0.0,0.0,0.0,0.0,0.0,0.0,0.0,0.0,0.0,0.0,0.0,0.0,0.0,0.0,-3.1195,-3.3168,-3.4884,-3.6319,-3.6692,-3.6656,-3.6192,-3.4064,-3.2851,0.0,0.0,0.0,0.0,0.0,0.0,0.0,0.0,0.0,0.0,0.0,0.0,0.0,0.0,0.0,0.0,0.0,0.0,0.0,0.0,0.0,0.0,0.0,0.0,0.0,0.0,0.0,0.0,0.0,0.0,0.0,0.0,0.0,0.0,0.0,0.0,0.0,0.0,0.0,0.0,0.0,-2.6914,-2.778,-2.7159,0.0,0.0,0.0,0.0,-2.7642,-2.7865,0.0,0.0,0.0,0.0,0.0,0.0,0.0,0.0,0.0,0.0,0.0,0.0,0.0,0.0,0.0,0.0,0.0,0.0,0.0,0.0,0.0,0.0,0.0,0.0,0.0,0.0,0.0,0.0,0.0,0.0,0.0,0.0,0.0,0.0,0.0,0.0,0.0,0.0,0.0,0.0,0.0,0.0,0.0,0.0,0.0,0.0,0.0,0.0,0.0,0.0,0.0,0.0,0.0,0.0,0.0,0.0,-3.0931,-3.3901,-3.5397,-3.535,-3.6676,-3.6482,-3.4538,-3.3449,-3.2563,0.0,0.0,0.0,0.0,0.0,0.0,0.0,0.0,0.0,0.0,0.0,0.0,0.0,0.0,0.0,0.0,0.0,0.0,0.0,0.0,0.0,0.0,0.0,0.0,0.0,0.0,0.0,0.0,0.0,0.0,0.0,0.0,0.0,0.0,0.0,0.0,0.0,0.0,0.0,0.0,0.0,-2.6929,-2.778,-2.714,-2.686,0.0,0.0,-2.8022,-2.879,-2.9436,0.0,0.0,0.0,0.0,0.0,0.0,0.0,0.0,0.0,0.0,0.0,0.0,0.0,0.0,0.0,0.0,0.0,0.0,0.0,0.0,0.0,0.0,0.0,0.0,0.0,0.0,0.0,0.0,0.0,0.0,0.0,0.0,0.0,0.0,0.0,0.0,0.0,0.0,0.0,0.0,0.0,0.0,0.0,0.0,0.0,0.0,0.0,0.0,0.0,0.0,0.0,0.0,0.0,0.0,0.0,-3.0416,-3.1458,-3.3855,-3.5342,-3.5791,-3.6616,-3.6374,-3.4968,-3.3603,-3.2506,0.0,0.0,0.0,0.0,0.0,0.0,0.0,0.0,0.0,0.0,0.0,0.0,0.0,0.0,0.0,0.0,0.0,0.0,0.0,0.0,0.0,0.0,0.0,0.0,0.0,0.0,0.0,0.0,0.0,0.0,0.0,0.0,0.0,0.0,0.0,0.0,0.0,0.0,0.0,0.0,0.0,0.0,-2.8555,-2.8673,0.0,0.0,0.0,-2.9425,-2.9723,0.0,0.0,0.0,0.0,0.0,0.0,0.0,0.0,0.0,0.0,0.0,0.0,0.0,0.0,0.0,0.0,0.0,0.0,0.0,0.0,0.0,0.0,0.0,0.0,0.0,0.0,0.0,0.0,0.0,0.0,0.0,0.0,0.0,0.0,0.0,0.0,0.0,0.0,0.0,0.0,0.0,0.0,0.0,0.0,0.0,0.0,0.0,0.0,0.0,0.0,0.0,0.0,0.0,0.0,0.0,0.0,0.0,-3.2087,-3.408,-3.5551,-3.6463,-3.67,-3.6274,-3.5192,-3.3699,0.0,0.0,0.0,0.0,0.0,0.0,0.0,0.0,0.0,0.0,0.0,0.0,0.0,0.0,0.0,0.0,0.0,0.0,0.0,0.0,0.0,0.0,0.0,0.0,0.0,0.0,0.0,-2.6055,0.0,0.0,0.0,0.0,0.0,0.0,0.0,0.0,0.0,0.0,0.0,0.0,0.0,0.0,-2.9261,-2.9396,-2.9981,-3.0308,0.0,0.0,-3.0444,-3.0631,-3.1334,-3.1322,0.0,0.0,0.0,0.0,0.0,0.0,0.0,0.0,0.0,0.0,0.0,0.0,0.0,0.0,0.0,0.0,0.0,0.0,0.0,0.0,0.0,0.0,0.0,0.0,0.0,0.0,0.0,0.0,0.0,0.0,0.0,0.0,0.0,0.0,0.0,0.0,0.0,0.0,0.0,0.0,0.0,0.0,0.0,0.0,0.0,0.0,0.0,0.0,0.0,0.0,0.0,0.0,0.0,0.0,0.0,-3.2597,-3.4958,-3.6463,-3.7025,-3.7082,-3.6179,-3.4339,-3.3372,-3.2141,0.0,0.0,0.0,0.0,0.0,0.0,0.0,0.0,0.0,0.0,0.0,0.0,0.0,0.0,0.0,0.0,0.0,0.0,0.0,0.0,0.0,0.0,0.0,0.0,0.0,0.0,0.0,0.0,0.0,0.0,0.0,0.0,0.0,0.0,0.0,0.0,0.0,0.0,0.0,0.0,0.0,-2.9485,-3.0204,-3.0365,-3.0942,0.0,0.0,-3.0692,-3.1475,-3.2282,-3.1897,-2.9217,0.0,0.0,0.0,0.0,0.0,0.0,0.0,0.0,0.0,0.0,0.0,0.0,0.0,0.0,0.0,0.0,0.0,0.0,0.0,0.0,0.0,0.0,0.0,0.0,0.0,0.0,0.0,0.0,0.0,0.0,0.0,0.0,0.0,0.0,0.0,0.0,0.0,0.0,0.0,0.0,0.0,0.0,0.0,0.0,0.0,0.0,0.0,0.0,0.0,0.0,0.0,0.0,0.0,-3.1806,-3.2619,-3.5193,-3.6645,-3.6866,-3.7181,-3.6272,-3.4003,-3.3274,-3.2122,0.0,0.0,0.0,0.0,0.0,0.0,0.0,0.0,0.0,0.0,0.0,0.0,0.0,0.0,0.0,0.0,0.0,0.0,0.0,0.0,0.0,0.0,0.0,0.0,0.0,0.0,0.0,0.0,-2.7793,-2.7715,-2.7519,0.0,0.0,0.0,0.0,0.0,0.0,0.0,0.0,0.0,0.0,-3.1651,-3.1903,-3.2846,0.0,0.0,-3.2795,-3.2654,-3.2455,-3.2654,-3.2246,-3.0521,-2.9304,0.0,0.0,0.0,0.0,0.0,0.0,0.0,0.0,0.0,0.0,0.0,0.0,0.0,0.0,0.0,0.0,0.0,0.0,0.0,0.0,0.0,0.0,0.0,0.0,0.0,0.0,0.0,0.0,0.0,0.0,0.0,0.0,0.0,0.0,0.0,0.0,0.0,0.0,0.0,0.0,0.0,0.0,0.0,0.0,0.0,0.0,0.0,0.0,0.0,0.0,0.0,0.0,-3.1898,-3.2949,-3.5362,-3.6736,-3.7075,-3.7178,-3.6254,-3.4144,-3.3241,-3.2134,0.0,0.0,0.0,0.0,0.0,0.0,0.0,0.0,0.0,0.0,0.0,0.0,0.0,0.0,0.0,0.0,0.0,0.0,0.0,0.0,0.0,0.0,0.0,0.0,0.0,0.0,0.0,0.0,-2.8281,-2.7949,-2.709,0.0,0.0,0.0,0.0,0.0,0.0,0.0,0.0,0.0,0.0,-3.2987,-3.2929,-3.3949,-3.4288,-3.3083,-3.3218,-3.325,-3.2615,-3.248,-3.199,-3.0719,0.0,0.0,0.0,0.0,0.0,0.0,0.0,0.0,0.0,0.0,0.0,0.0,0.0,0.0,0.0,0.0,0.0,0.0,0.0,0.0,0.0,0.0,0.0,0.0,0.0,0.0,0.0,0.0,0.0,0.0,-3.5412,0.0,0.0,0.0,0.0,0.0,0.0,0.0,0.0,0.0,0.0,0.0,0.0,0.0,0.0,0.0,0.0,0.0,0.0,0.0,0.0,0.0,0.0,-3.2205,-3.377,-3.5473,-3.6828,-3.7795,-3.7105,-3.607,-3.4656,-3.3263,-3.2114,-3.1268,0.0,0.0,0.0,0.0,0.0,0.0,0.0,0.0,0.0,0.0,0.0,0.0,0.0,0.0,0.0,0.0,0.0,0.0,0.0,0.0,0.0,0.0,0.0,0.0,0.0,0.0,-2.8301,-2.8281,-2.793,0.0,0.0,0.0,0.0,0.0,0.0,0.0,0.0,0.0,0.0,-3.2031,-3.304,-3.2928,-3.2949,-3.3045,-3.2929,-3.2295,-3.1744,-3.17,-3.1655,-3.1021,0.0,0.0,0.0,0.0,0.0,0.0,0.0,0.0,0.0,0.0,0.0,0.0,0.0,0.0,0.0,0.0,0.0,0.0,0.0,0.0,0.0,0.0,0.0,0.0,0.0,0.0,0.0,-3.55,-3.55,0.0,0.0,0.0,0.0,0.0,0.0,0.0,0.0,0.0,0.0,0.0,-3.2037,-3.1598,0.0,0.0,0.0,0.0,0.0,0.0,0.0,0.0,0.0,0.0,0.0,0.0,-3.2999,-3.4564,-3.6229,-3.7018,-3.6833,-3.674,-3.578,-3.3891,-3.2836,-3.1701,-3.0468,0.0,0.0,0.0,0.0,0.0,0.0,0.0,0.0,0.0,0.0,0.0,0.0,0.0,0.0,0.0,0.0,0.0,0.0,0.0,0.0,0.0,0.0,0.0,0.0,0.0,-2.9507,0.0,0.0,0.0,0.0,0.0,0.0,0.0,0.0,0.0,0.0,0.0,-2.9491,-3.0519,-3.2074,-3.3069,-3.2964,-3.3416,-3.3776,0.0,0.0,0.0,0.0,0.0,0.0,0.0,0.0,0.0,0.0,0.0,0.0,0.0,0.0,-3.043,-2.9886,-3.0008,-3.0026,-2.9494,0.0,0.0,0.0,0.0,0.0,0.0,0.0,0.0,0.0,0.0,0.0,0.0,0.0,0.0,-3.55,0.0,-3.55,0.0,0.0,0.0,0.0,0.0,0.0,0.0,0.0,-3.3721,-3.3675,-3.3653,-3.3197,-3.2877,0.0,-3.2094,-3.1274,0.0,0.0,0.0,0.0,0.0,0.0,0.0,0.0,-3.3408,-3.4972,-3.6652,-3.7235,-3.674,-3.662,-3.5726,-3.4012,-3.2802,-3.1659,-3.0633,-3.0465,-3.0404,0.0,0.0,0.0,0.0,0.0,0.0,0.0,0.0,0.0,0.0,0.0,0.0,0.0,0.0,0.0,0.0,0.0,0.0,0.0,0.0,0.0,0.0,0.0,-2.9462,0.0,0.0,0.0,0.0,0.0,0.0,0.0,0.0,0.0,-2.787,-2.9093,-3.0357,-3.1468,-3.2738,-3.3316,-3.2626,0.0,0.0,0.0,0.0,0.0,0.0,0.0,-3.1826,-3.1176,-3.1583,-3.1996,-3.1923,-3.1866,-3.1898,-3.2205,0.0,0.0,-3.0852,-3.1017,-3.1311,-3.1091,-3.1035,-3.087,-3.0363,-3.0491,-3.0491,0.0,0.0,0.0,0.0,0.0,0.0,0.0,0.0,-3.55,-3.55,0.0,-3.55,0.0,0.0,0.0,0.0,0.0,-3.5316,0.0,0.0,-3.5953,-3.6163,-3.6456,-3.55,-3.5037,-3.4949,-3.3482,-3.2729,-3.2619,-3.1146,0.0,0.0,0.0,0.0,0.0,0.0,-3.3463,-3.5096,-3.6725,-3.7547,-3.7474,-3.6703,-3.5844,-3.4885,-3.3067,-3.1967,-3.1655,-3.0828,-3.0398,-3.0404,-3.0404,0.0,0.0,0.0,0.0,0.0,0.0,0.0,0.0,0.0,0.0,0.0,0.0,0.0,0.0,0.0,0.0,0.0,0.0,0.0,0.0,-2.8714,0.0,0.0,0.0,0.0,0.0,0.0,0.0,0.0,0.0,0.0,-2.9569,-3.0309,-3.1389,-3.2942,0.0,0.0,0.0,0.0,-3.266,-3.2006,-3.1833,-3.2148,-3.2942,-3.3031,-3.2993,-3.2986,0.0,0.0,-3.4236,-3.3414,-3.2999,-3.3752,-3.4486,-3.4307,-3.2027,-3.1745,-3.1935,-3.2583,-3.2766,-3.2729,-3.2748,-3.3243,-3.3348,-3.7853,0.0,0.0,0.0,0.0,-3.6346,-3.6019,-3.55,-3.55,-3.55,-3.55,-3.55,0.0,0.0,0.0,0.0,0.0,0.0,-3.6301,-3.7062,-3.6828,-3.6679,-3.6669,-3.635,-3.6117,-3.5899,-3.5477,-3.5238,-3.5183,-3.4142,-3.2761,-3.1091,0.0,0.0,0.0,0.0,-3.5114,-3.6743,-3.7808,-3.8065,-3.7511,-3.6721,-3.533,-3.3335,-3.2577,-3.1863,-3.1151,-3.0483,-3.0202,-3.0398,-3.0404,0.0,0.0,0.0,0.0,0.0,0.0,0.0,0.0,0.0,0.0,0.0,0.0,0.0,0.0,0.0,0.0,0.0,0.0,0.0,-3.0253,-2.9604,-2.9152,0.0,0.0,0.0,0.0,0.0,0.0,0.0,0.0,0.0,-3.1328,-3.1069,-3.0975,0.0,0.0,-3.1726,-3.1763,-3.2419,-3.3256,-3.4269,-3.4404,0.0,0.0,-3.514,-3.473,-3.467,-3.4987,-3.5405,-3.6019,-3.5623,-3.533,-3.555,-3.5771,-3.5679,-3.5092,-3.489,-3.4945,-3.5202,-3.5238,-3.5238,-3.5257,-3.544,-3.544,-4.0508,-3.9912,-3.8584,-3.77,-3.7219,-3.7212,-3.693,-3.6481,-3.65,-3.6507,-3.65,-3.6507,-3.6467,-3.6384,-3.6396,0.0,0.0,0.0,-3.7176,-3.7818,-3.7917,-3.7865,-3.7689,-3.7863,-3.77,-3.7254,-3.6942,-3.6776,-3.6758,-3.5903,-3.478,-3.3366,0.0,0.0,-3.427,-3.5096,-3.6156,-3.7474,-3.8285,-3.8469,-3.7973,-3.6872,-3.5473,-3.3813,-3.2952,-3.2172,-3.1431,-3.0834,-3.0431,-3.026,-3.0329,-3.0404,0.0,0.0,0.0,0.0,0.0,0.0,0.0,0.0,0.0,0.0,0.0,-2.7218,0.0,0.0,0.0,0.0,-2.9071,-2.9636,-3.0568,-2.9941,0.0,0.0,0.0,0.0,0.0,0.0,0.0,-2.9863,-3.0762,-3.1738,-3.2559,-3.2184,-3.1934,-3.2233,-3.2166,-3.2152,-3.2274,0.0,-3.4308,-3.5346,-3.5769,-3.6257,-3.7065,-3.6808,-3.6481,-3.644,-3.6467,-3.6728,-3.7321,-3.7173,-3.7017,-3.7173,-3.7257,-3.7257,-3.7257,-3.7239,-3.7129,-3.685,-3.6762,-3.6776,-3.6776,-3.7033,-3.7092,-4.3085,-4.2816,-3.9719,-3.8392,-3.8296,-3.8296,-3.8277,-3.818,-3.8123,-3.8104,-3.8104,-3.8027,-3.8004,-3.8013,-3.802,0.0,-3.7852,-3.8057,-3.8308,-3.8622,-3.9317,-3.9502,-3.9286,-3.9773,-3.9606,-3.8891,-3.8153,-3.7786,-3.7768,-3.7055,-3.6688,-3.6633,-3.5147,-3.4688,-3.5316,-3.6101,-3.6886,-3.7694,-3.8358,-3.867,-3.8579,-3.7092,-3.6016,-3.5423,-3.3849,-3.2702,-3.2185,-3.1571,-3.0868,-3.0063,-3.0241,-3.0373,-3.0404,0.0,0.0,0.0,0.0,0.0,0.0,0.0,0.0,0.0,0.0,0.0,0.0,0.0,0.0,0.0,-2.8839,0.0,-3.0618,-3.0098,0.0,0.0,0.0,-3.0214,-3.1016,-3.1152,-3.1484,-3.2207,0.0,0.0,-3.3398,-3.3495,-3.3775,-3.4494,-3.4503,-3.4108,-3.3313,-3.4559,-3.5596,-3.5635,-3.6288,-3.7084,-3.7777,-3.7969,-3.8027,-3.8019,-3.792,-3.7966,-3.8282,-3.8165,-3.8214,-3.8493,-3.8634,-3.8597,-3.867,-3.8469,-3.8303,-3.7566,-3.7474,-3.7492,-3.7584,-3.801,-3.8028,-4.3085,-4.3047,-4.222,-4.1508,-4.0885,-4.0893,-4.0527,-3.9861,-3.9246,-3.8996,-3.895,-3.8296,-3.8346,-3.8962,-3.8973,-3.9634,-4.0748,-4.0305,-4.0503,-4.1147,-4.0853,-4.0692,-4.0633,-4.0758,-4.0726,-4.0526,-4.0341,-4.0233,-4.0249,-4.0065,-3.9974,-3.9939,-3.9536,-3.8854,-3.7848,-3.8013,-3.8524,-3.9328,-3.8909,-3.8395,-3.7771,-3.6798,-3.5923,-3.5128,-3.3545,-3.244,-3.191,-3.1169,-3.0517,-3.0041,-3.0068,-3.017,-3.0398,-3.0404,0.0,0.0,0.0,0.0,0.0,0.0,0.0,0.0,0.0,-2.7313,-2.6659,0.0,-2.8588,0.0,-3.0196,-3.1224,-3.1492,-3.1981,0.0,0.0,-3.2584,-3.2577,-3.2793,-3.3379,-3.3613,-3.3164,-3.3711,-3.416,-3.4375,-3.4394,-3.4638,-3.529,-3.4819,-3.4516,-3.4857,-3.5759,-3.6404,-3.6481,-3.7115,-3.7757,-3.7988,-3.8584,-3.8957,-3.8996,-3.9252,-3.946,-3.9305,-3.9033,-3.8785,-3.8688,-3.8175,-3.8065,-3.8542,-3.7753,-3.7147,-3.7401,-3.7511,-3.7694,-3.8248,-3.8083,-3.786,-4.422,-4.422,-4.422,-4.3932,-4.3431,-4.2701,-4.2104,-4.1623,-4.1181,-4.0989,-4.0969,-4.0489,-4.0527,-4.0981,-4.0805,-4.1169,-4.1865,-4.151,-4.1531,-4.1871,-4.1876,-4.168,-4.1329,-4.1542,-4.1425,-4.1113,-4.1113,-4.1113,-4.1113,-4.1113,-4.1113,-4.1113,-4.146,-4.1203,-4.0322,-3.9955,-3.9992,-4.0414,-3.9643,-3.8836,-3.8028,-3.689,-3.5899,-3.499,-3.3445,-3.2121,-3.112,-3.0764,-3.0347,-2.9809,-2.995,-3.0109,-3.0299,-3.0329,-3.0373,0.0,0.0,0.0,0.0,0.0,0.0,0.0,0.0,0.0,0.0,0.0,-2.9833,-3.0217,-3.1139,-3.1881,-3.2304,-3.2832,-3.3347,-3.3787,-3.3893,-3.4114,-3.4512,-3.5,-3.5098,-3.4629,-3.498,-3.5273,-3.5293,-3.5273,-3.5541,-3.6216,-3.5878,-3.5518,-3.5553,-3.6201,-3.6712,-3.6731,-3.745,-3.8007,-3.8007,-3.8392,-3.8873,-3.9192,-3.924,-3.9183,-3.9206,-3.8655,-3.8115,-3.7831,-3.7356,-3.7088,-3.7496,-3.6964,-3.6486,-3.6758,-3.6648,-3.6743,-3.7459,-3.729,-3.7144,-4.5594,-4.5594,-4.5594,-4.5594,-4.547,-4.4028,-4.3412,-4.3412,-4.3297,-4.3165,-4.3024,-4.3024,-4.3064,-4.3116,-4.2754,-4.2545,-4.2429,-4.2303,-4.2139,-4.1953,-4.2586,-4.25,-4.1869,-4.2249,-4.2084,-4.1425,-4.1407,-4.1407,-4.1389,-4.1405,-4.1407,-4.1425,-4.2103,-4.2451,-4.2415,-4.1754,-4.1297,-4.1095,-4.0304,-3.9551,-3.8854,-3.7165,-3.5899,-3.4986,-3.3445,-3.1861,-3.0307,-3.0428,-3.0248,-2.958,-2.9861,-3.0097,-3.0202,-3.0267,-3.0393,0.0,-3.0558,0.0,0.0,0.0,0.0,0.0,0.0,0.0,0.0,-3.0673,-3.1038,-3.1788,-3.1973,-3.2349,-3.308,-3.3318,-3.3749,-3.4567,-3.4725,-3.5112,-3.5898,-3.6016,-3.6016,-3.6016,-3.6016,-3.6016,-3.5976,-3.6016,-3.6266,-3.6721,-3.6696,-3.6326,-3.5784,-3.6194,-3.6673,-3.6596,-3.7199,-3.7469,-3.7546,-3.7719,-3.8065,-3.8681,-3.85,-3.8143,-3.8546,-3.7867,-3.7103,-3.6851,-3.6512,-3.6292,-3.6319,-3.6199,-3.6005,-3.6083,-3.5495,-3.5261,-3.6119,-3.6266,-3.6174,-4.5594,-4.5594,-4.5594,-4.5594,-4.5575,-4.5248,-4.5133,-4.5094,-4.4374,-4.351,-4.2631,-4.2602,-4.284,-4.323,-4.3188,-4.3517,-4.4076,-4.3765,-4.361,-4.3539,-4.3414,-4.3286,-4.3139,-4.3218,-4.3185,-4.3039,-4.3039,-4.3039,-4.3039,-4.3039,-4.3039,-4.3057,-4.3203,-4.3277,-4.3276,0.0,0.0,0.0,-4.0322,-3.9843,-3.9588,-3.7459,-3.5899,-3.5004,-3.3445,0.0,-3.0366,-3.0344,-3.0108,-2.9626,-2.9707,0.0,0.0,0.0,0.0,0.0,0.0,0.0,0.0,0.0,0.0,0.0,-3.2372,-3.1968,-3.1519,-3.2038,-3.2506,-3.2679,-3.3308,-3.3808,-3.3968,-3.4698,-3.5238,-3.5431,-3.5578,-3.5761,-3.5976,-3.6016,-3.6016,-3.6016,-3.6016,-3.6016,-3.6016,-3.6016,-3.6035,-3.6144,-3.6025,-3.5854,-3.5634,-3.6209,-3.6411,-3.5904,-3.6,-3.6019,-3.5981,-3.6538,-3.7007,-3.7219,-3.7738,-3.7867,-3.7762,-3.7576,-3.7308,-3.7002,-3.6291,-3.5869,-3.6419,-3.537,-3.4591,-3.5133,-3.4582,-3.4486,-3.5936,-3.572,-3.5445,-4.5594,0.0,-4.5594,-4.5594,0.0,-4.5594,-4.5594,-4.5556,-4.5133,-4.4508,-4.3778,-4.3597,-4.3691,-4.3944,-4.374,-4.3896,-4.4294,-4.3927,-4.3758,-4.374,-4.3599,-4.3479,-4.3479,-4.3479,-4.3479,-4.3479,-4.3479,-4.3479,-4.3479,-4.3479,-4.3479,-4.3479,-4.3479,-4.3479,-4.3479,-4.3479,-4.291,-4.1699,-4.1295,-4.0708,-3.9898,-3.8337,-3.6688,-3.5059,0.0,0.0,0.0,0.0,0.0,0.0,0.0,0.0,0.0,0.0,0.0,-3.2244,-3.2295,-3.266,-3.3449,-3.3551,-3.3718,-3.4135,-3.418,-3.3833,-3.3013,-3.3314,-3.3718,-3.4141,-3.4218,-3.4379,-3.4802,-3.5258,-3.559,-3.5686,-3.5761,-3.5836,-3.5976,-3.6016,-3.6016,-3.6016,-3.6016,-3.6016,-3.6016,-3.6016,-3.5996,-3.5948,-3.5859,-3.5755,-3.5693,-3.591,-3.5904,-3.5577,-3.55,-3.55,-3.5519,-3.5788,-3.6288,-3.6615,-3.6738,-3.6868,-3.7094,-3.6672,-3.6262,-3.6093,-3.5539,-3.5225,-3.5299,-3.4631,-3.4109,-3.4306,-3.4082,-3.4009,-3.4908,-3.4724,-3.4509,-4.5594,-4.5594,-4.5594,-4.5594,-4.5594,-4.5594,-4.5594,-4.5594,0.0,0.0,0.0,-4.4751,-4.4553,-4.4474,-4.4091,-4.3912,-4.3896,-4.3631,-4.3479,-4.3479,-4.3479,-4.3479,-4.3479,-4.3479,-4.3479,-4.3479,-4.3479,-4.3479,-4.3479,-4.3479,-4.3479,-4.3479,-4.3479,-4.3479,-4.3479,-4.3479,-4.3184,-4.2525,-4.2378,-4.1589,-4.0139,-3.9203,-3.7591,-3.5279,-3.4435,-3.2963,-3.0748,-3.0843,-3.057,-2.9779,-3.0551,-3.1138,-3.1385,-3.2083,-3.2676,-3.3102,-3.3141,-3.3532,-3.4359,-3.443,-3.4737,-3.5462,-3.55,-3.5192,-3.4468,-3.443,-3.4718,-3.5442,-3.4853,-3.4718,-3.5423,-3.55,-3.5564,-3.5682,-3.5703,-3.5768,-3.5976,-3.6016,-3.6016,-3.6016,-3.6016,-3.6016,-3.6016,-3.6016,-3.6016,-3.5996,-3.5923,-3.5838,-3.5705,-3.561,-3.5558,-3.55,-3.55,-3.55,-3.55,-3.5519,-3.5769,-3.6308,-3.5808,-3.5596,-3.6094,-3.5619,-3.5084,-3.5308,-3.4973,-3.4742,-3.4453,-3.4307,-3.4135,-3.3915,-3.3829,-3.3807,-3.3807,-3.3825,-3.3862,-4.5594,-4.5594,-4.5594,-4.5594,-4.5594,-4.5594,-4.5594,-4.5594,-4.5594,-4.541,-4.5085,-4.4763,-4.4401,-4.4058,-4.3726,-4.3582,-4.3563,-4.3513,-4.3479,-4.3479,-4.3479,-4.3479,-4.3479,-4.3479,-4.3479,-4.3479,-4.3479,-4.3479,-4.3479,-4.3479,-4.3479,-4.3479,-4.3479,-4.3479,-4.3479,-4.3479,-4.346,-4.3296,-4.2653,-4.1864,-4.0946,-3.9462,-3.7881,-3.6193,-3.5298,-3.4059,-3.2446,-3.2385,-3.2177,-3.1723,-3.1635,-3.1852,-3.2424,-3.2463,-3.2889,-3.391,-3.4007,-3.4391,-3.5231,-3.5327,-3.5365,-3.5481,-3.55,-3.5442,-3.5346,-3.5327,-3.5365,-3.55,-3.5346,-3.5346,-3.55,-3.55,-3.5558,-3.5667,-3.5703,-3.5788,-3.5956,-3.6016,-3.6016,-3.6016,-3.6016,-3.6016,-3.6016,-3.6016,-3.6016,-3.5996,-3.5923,-3.5807,-3.5584,-3.5552,-3.5514,-3.55,-3.55,-3.55,-3.55,-3.55,-3.5519,-3.5635,-3.4949,-3.4661,-3.5519,-3.4973,-3.4676,-3.5304,-3.5187,-3.5006,-3.4887,-3.4542,-3.4262,-3.411,-3.3925,-3.3842,-3.3847,-3.3834,-3.3807,-4.5594,-4.5594,-4.5594,-4.5594,-4.5594,-4.5594,-4.5594,-4.5577,-4.5391,-4.5159,-4.4793,-4.4428,-4.4076,-4.3742,-4.3563,-4.3479,-4.3479,-4.3479,-4.3479,-4.3479,-4.3479,-4.3479,-4.3479,-4.3479,-4.3479,-4.3479,-4.3479,-4.3479,-4.3479,-4.3479,-4.3479,-4.3479,-4.3479,-4.3479,-4.3479,-4.3479,-4.3479,-4.3479,-4.3129,-4.2561,-4.1772,-4.1038,-3.968,-3.7679,-3.7221,-3.6028,-3.4031,-3.3653,-3.3219,-3.2614,-3.262,-3.2757,-3.3073,-3.3581,-3.4113,-3.4649,-3.4817,-3.5084,-3.5462,-3.55,-3.55,-3.55,-3.55,-3.55,-3.55,-3.55,-3.55,-3.55,-3.55,-3.55,-3.55,-3.55,-3.5527,-3.5639,-3.569,-3.5772,-3.5901,-3.5975,-3.6016,-3.6016,-3.6016,-3.6016,-3.6016,-3.6016,-3.6016,-3.5996,-3.5893,-3.5635,-3.5123,-3.4897,-3.4988,-3.5385,-3.55,-3.55,-3.5481,-3.5064,-3.4853,-3.4795,-3.4064,-3.393,-3.4584,-3.4398,-3.4603,-3.5288,-3.5383,-3.5063,-3.4623,-3.4603,-3.4411,-3.3853,-3.3964,-3.3988,-3.4006,-3.3897,-3.382,-4.6172,-4.6144,-4.5979,-4.5787,-4.5633,-4.5825,-4.5732,-4.5467,-4.5192,-4.4853,-4.4441,-4.4132,-4.3849,-4.3631,-4.3548,-4.3479,-4.3479,-4.3479,-4.3479,-4.3479,-4.3479,-4.3479,-4.3479,-4.3479,-4.3479,-4.3479,-4.3479,-4.3479,-4.3479,-4.3479,-4.3479,-4.3479,-4.3479,-4.3479,-4.3479,-4.3479,-4.3479,-4.3479,-4.3479,-4.3112,-4.2341,-4.2304,-4.1313,-3.9426,-3.9056,-3.7958,-3.5973,-3.5254,-3.4612,-3.389,-3.3784,-3.393,-3.4283,-3.468,-3.5075,-3.5392,-3.5415,-3.5439,-3.55,-3.55,-3.55,-3.55,-3.55,-3.55,-3.55,-3.55,-3.55,-3.55,-3.55,-3.55,-3.55,-3.55,-3.5515,-3.5595,-3.5663,-3.5758,-3.5878,-3.5951,-3.6016,-3.6016,-3.6016,-3.6016,-3.6016,-3.6016,-3.6016,-3.5976,-3.5862,-3.5463,-3.4902,-3.4618,-3.4847,-3.5167,-3.5192,-3.4962,-3.5096,-3.4699,-3.4302,-3.418,-3.3506,-3.3487,-3.3955,-3.409,-3.4391,-3.5154,-3.55,-3.5213,-3.4473,-3.4645,-3.4685,-3.4141,-3.4172,-3.4281,-3.4164,-3.3974,-3.382,-4.7836,-4.7759,-4.7009,-4.6317,-4.571,-4.6394,-4.6119,-4.5229,-4.5107,-4.4701,-4.4136,-4.3998,-4.3986,-4.3909,-4.3647,-4.3479,-4.3479,-4.3479,-4.3479,-4.3479,-4.3479,-4.3479,-4.3479,-4.3479,-4.3479,-4.3479,-4.3479,-4.3479,-4.3479,-4.3479,-4.3479,-4.3479,-4.3479,-4.3479,-4.3479,-4.3479,-4.3479,-4.3479,-4.3479,-4.3112,-4.2359,-4.2304,-4.1846,-4.093,-4.0157,-3.935,-3.827,-3.7617,-3.6925,-3.6346,-3.5373,-3.5522,-3.6672,-3.5348,-3.4968,-3.6335,-3.5648,-3.5231,-3.546,-3.55,-3.55,-3.55,-3.55,-3.55,-3.55,-3.55,-3.55,-3.55,-3.55,-3.55,-3.55,-3.55,-3.5534,-3.5579,-3.5659,-3.5758,-3.5875,-3.5951,-3.6016,-3.6016,-3.6016,-3.6016,-3.6016,-3.6016,-3.6016,-3.6016,-3.5921,-3.5717,-3.5395,-3.5254,-3.5135,-3.5098,-3.4257,-3.3705,-3.4148,-3.4295,-3.4083,-3.4052,-3.3474,-3.3417,-3.3801,-3.3725,-3.3545,-3.5154,-3.55,-3.5364,-3.5187,-3.527,-3.5037,-3.47,-3.4586,-3.4572,-3.4277,-3.4024,-3.3868,-4.7509,-4.6644,-4.6836,-4.6394,-4.5729,-4.599,-4.5859,-4.54,-4.5191,-4.4818,-4.4346,-4.4121,-4.3896,-4.3693,-4.3565,-4.3479,-4.3479,-4.3479,-4.3479,-4.3479,-4.3479,-4.3479,-4.3479,-4.3479,-4.3479,-4.3479,-4.3479,-4.3479,-4.3479,-4.3479,-4.3479,-4.3479,-4.3479,-4.3479,-4.3479,-4.3479,-4.3479,-4.3479,-4.3479,-4.3332,-4.3057,-4.3002,-4.2635,-4.1846,-4.1038,-4.023,-3.9386,-3.819,-3.7468,-3.7363,-3.6509,-3.6168,-3.6516,-3.5843,-3.5447,-3.5539,-3.5278,-3.5215,-3.5467,-3.55,-3.55,-3.55,-3.55,-3.55,-3.55,-3.55,-3.55,-3.55,-3.55,-3.55,-3.55,-3.55,-3.5495,-3.5552,-3.5639,-3.572,-3.5769,-3.5924,-3.6016,-3.6016,-3.6016,-3.6016,-3.6016,-3.6016,-3.6016,-3.5996,-3.5946,-3.572,-3.519,-3.4993,-3.4697,-3.4162,-3.3429,-3.3442,-3.3968,-3.3725,-3.3526,-3.3372,-3.3141,-3.3218,-3.3878,-3.3975,-3.4122,-3.5308,-3.5442,-3.525,-3.4692,-3.5131,-3.525,-3.4937,-3.4884,-3.4851,-3.4542,-3.4242,-3.408,-4.8125,-4.7191,-4.7702,-4.7298,-4.6297,-4.6278,-4.6088,-4.5717,-4.5203,-4.4757,-4.4419,-4.4031,-4.3742,-4.3513,-4.3479,-4.3479,-4.3479,-4.3479,-4.3479,-4.3479,-4.3479,-4.3479,-4.3479,-4.3479,-4.3479,-4.3479,-4.3479,-4.3479,-4.3479,-4.3479,-4.3479,-4.3479,-4.3479,-4.3479,-4.3479,-4.3479,-4.3479,-4.3479,-4.3479,-4.3479,-4.3479,-4.3479,-4.3222,-4.2616,-4.1846,-4.1105,-4.0366,-3.8949,-3.8169,-3.8207,-3.7471,-3.6988,-3.6925,-3.6699,-3.6226,-3.559,-3.5508,-3.5622,-3.582,-3.5615,-3.55,-3.55,-3.55,-3.55,-3.55,-3.55,-3.55,-3.55,-3.55,-3.55,-3.55,-3.55,-3.55,-3.5501,-3.5631,-3.5703,-3.5717,-3.5876,-3.6016,-3.6016,-3.6016,-3.6016,-3.6016,-3.6016,-3.6016,-3.5996,-3.5951,-3.5757,-3.5128,-3.4956,-3.4685,-3.3914,-3.3658,-3.3648,-3.4051,-3.3821,-3.3301,-3.3256,-3.3333,-3.3545,-3.4109,-3.4167,-3.4468,-3.5231,-3.5385,-3.5404,-3.5058,-3.5243,-3.5262,-3.4658,-3.4657,-3.4909,-3.4425,-3.4264,-3.4216,-5.0539,-5.0423,-5.0471,-4.9336,-4.7952,-4.7875,-4.728,-4.6203,-4.5135,-4.4433,-4.4132,-4.371,-4.3531,-4.3479,-4.3479,-4.3479,-4.3479,-4.3479,-4.3479,-4.3479,-4.3479,-4.3479,-4.3479,-4.3479,-4.3479,-4.3479,-4.3479,-4.3479,-4.3479,-4.3479,-4.3479,-4.3479,-4.3479,-4.3479,-4.3479,-4.3479,-4.3479,-4.3479,-4.3479,-4.3479,-4.3496,-4.3496,-4.3495,-4.3331,-4.2653,-4.1954,-4.1449,-4.0397,-3.9534,-3.9066,-3.8292,-3.8278,-3.9074,-3.7929,-3.7203,-3.7297,-3.6872,-3.6582,-3.65,-3.5923,-3.55,-3.55,-3.55,-3.55,-3.55,-3.55,-3.55,-3.55,-3.55,-3.55,-3.55,-3.55,-3.55,-3.5508,-3.5631,-3.5693,-3.5707,-3.5876,-3.5996,-3.6016,-3.6016,-3.6016,-3.6016,-3.6016,-3.6016,-3.6016,-3.5996,-3.5916,-3.58,-3.5767,-3.5604,-3.5327,-3.4792,-3.4258,-3.4231,-3.4032,-3.4032,-3.4032,-3.3975,-3.4167,-3.4186,-3.4295,-3.4795,-3.5161,-3.5365,-3.5481,-3.5442,-3.5308,-3.5096,-3.485,-3.489,-3.4854,-3.46,-3.4293,-3.4256,-5.0366,-4.9817,-4.926,-4.8375,-4.7394,-4.7327,-4.7069,-4.6589,-4.5418,-4.5023,-4.4979,-4.4228,-4.3693,-4.3479,-4.3479,-4.3479,-4.3479,-4.3479,-4.3479,-4.3479,-4.3479,-4.3479,-4.3479,-4.3479,-4.3479,-4.3479,-4.3479,-4.3479,-4.3479,-4.3479,-4.3479,-4.3479,-4.3479,-4.3479,-4.3479,-4.3479,-4.3479,-4.3479,-4.3479,-4.3479,-4.3513,-4.3728,-4.3707,-4.3477,-4.2727,-4.2316,-4.2377,-4.0779,-3.9899,-3.9932,-3.9112,-3.8696,-3.8678,-3.7942,-3.7573,-3.7715,-3.6963,-3.6508,-3.6582,-3.5962,-3.55,-3.55,-3.55,-3.55,-3.55,-3.55,-3.55,-3.55,-3.55,-3.55,-3.55,-3.55,-3.55,-3.5509,-3.5626,-3.5703,-3.5735,-3.5879,-3.6016,-3.6016,-3.6016,-3.6016,-3.6016,-3.6016,-3.6016,-3.6016,-3.6016,-3.5996,-3.5976,-3.5957,-3.5923,-3.583,-3.556,-3.5282,-3.5167,-3.4554,-3.4225,-3.4379,-3.4487,-3.4853,-3.4988,-3.493,-3.5315,-3.5315,-3.5462,-3.5481,-3.5462,-3.5442,-3.5199,-3.5102,-3.5135,-3.512,-3.4966,-3.4669,-3.4572,-5.0366,-4.976,-4.9183,-4.8625,-4.8105,-4.7817,-4.7702,-4.754,-4.6301,-4.576,-4.5596,-4.4677,-4.3968,-4.355,-4.3479,-4.368,-4.3864,-4.3883,-4.3883,-4.3901,-4.3883,-4.3901,-4.3846,-4.3608,-4.3479,-4.3534,-4.3773,-4.3864,-4.392,-4.414,-4.4121,-4.3901,-4.3883,-4.3736,-4.357,-4.3479,-4.3479,-4.3479,-4.3479,-4.3479,-4.3531,-4.371,-4.3788,-4.3588,-4.3031,-4.2749,-4.2946,-4.1568,-4.0758,-4.064,-4.0121,-3.9557,-3.9036,-3.8707,-3.8624,-3.8689,-3.7854,-3.719,-3.7036,-3.6346,-3.5788,-3.5519,-3.55,-3.55,-3.55,-3.55,-3.55,-3.55,-3.55,-3.55,-3.55,-3.55,-3.55,-3.5509,-3.5631,-3.57,-3.5713,-3.5876,-3.5996,-3.6016,-3.6016,-3.6016,-3.6016,-3.6016,-3.6016,-3.6016,-3.6016,-3.6016,-3.6016,-3.5996,-3.5976,-3.5945,-3.5887,-3.5784,-3.5638,-3.5157,-3.4856,-3.4938,-3.491,-3.5323,-3.5501,-3.5494,-3.55,-3.55,-3.55,-3.55,-3.55,-3.55,-3.5385,-3.5238,-3.5255,-3.5259,-3.5146,-3.5017,-3.4912,-5.0683,-5.0616,-5.0664,-5.0442,-5.0144,-4.9471,-4.9298,-4.8951,-4.751,-4.6431,-4.604,-4.5078,-4.4302,-4.3754,-4.3791,-4.403,-4.4617,-4.4783,-4.4727,-4.4599,-4.4617,-4.4617,-4.4562,-4.403,-4.3754,-4.3773,-4.4378,-4.4673,-4.4764,-4.5296,-4.5333,-4.4837,-4.4727,-4.4415,-4.3589,-4.3663,-4.3571,-4.3589,-4.3552,-4.3479,-4.3496,-4.3615,-4.3758,-4.3912,-4.3654,-4.3472,-4.3378,-4.2899,-4.2128,-4.1379,-4.1261,-4.1036,-4.0515,-4.0292,-4.0392,-4.0181,-3.9623,-3.8834,-3.7969,-3.7077,-3.6231,-3.5654,-3.55,-3.55,-3.55,-3.55,-3.55,-3.55,-3.55,-3.55,-3.55,-3.55,-3.55,-3.5515,-3.5616,-3.5702,-3.5732,-3.5879,-3.6016,-3.6016,-3.6016,-3.6016,-3.6016,-3.6016,-3.6016,-3.6016,-3.6016,-3.6016,-3.6016,-3.6016,-3.6016,-3.5995,-3.5949,-3.5913,-3.5851,-3.5777,-3.5675,-3.5582,-3.5465,-3.5571,-3.5534,-3.5515,-3.5494,-3.55,-3.55,-3.55,-3.55,-3.5462,-3.5231,-3.5122,-3.5238,-3.5346,-3.5201,-3.509,-3.5103,-5.0683,-5.0683,-5.0683,-5.0337,-4.9817,-4.951,-4.9413,-4.9173,-4.713,-4.6682,-4.7052,-4.5508,-4.4856,-4.5112,-4.5149,-4.5278,-4.559,-4.603,-4.5773,-4.4874,-4.4745,-4.4764,-4.48,-4.5021,-4.5149,-4.5186,-4.5406,-4.5516,-4.559,-4.581,-4.5736,-4.5571,-4.5535,-4.5406,-4.5057,-4.4617,-4.4323,-4.4268,-4.379,-4.3479,-4.3565,-4.3989,-4.418,-4.4046,-4.415,-4.4337,-4.4455,-4.3434,-4.2352,-4.1425,-4.1875,-4.1953,-4.1421,-4.0823,-4.0516,-4.0419,-3.9746,-3.8919,-3.8065,-3.7219,-3.6385,-3.5692,-3.55,-3.55,-3.55,-3.55,-3.55,-3.55,-3.55,-3.55,-3.55,-3.55,-3.55,-3.55,-3.5582,-3.5655,-3.572,-3.5876,-3.5996,-3.6016,-3.6016,-3.6016,-3.6016,-3.6016,-3.6016,-3.6016,-3.6016,-3.6016,-3.6016,-3.6016,-3.6016,-3.5996,-3.5976,-3.5957,-3.5918,-3.5898,-3.5851,-3.5762,-3.5698,-3.5626,-3.5593,-3.554,-3.5515,-3.55,-3.55,-3.55,-3.55,-3.5404,-3.5212,-3.5192,-3.5385,-3.5346,-3.5192,-3.5168,-3.5232,-5.0423,-5.0654,-5.0346,-5.0115,-4.9875,-4.9904,-4.9885,-4.9673,-4.8138,-4.7767,-4.7867,-4.6578,-4.5824,-4.5901,-4.5902,-4.6067,-4.6342,-4.6617,-4.6269,-4.5663,-4.559,-4.559,-4.5572,-4.5755,-4.5902,-4.5975,-4.6195,-4.6342,-4.6361,-4.6636,-4.6654,-4.6416,-4.6342,-4.6159,-4.5865,-4.5131,-4.4709,-4.4599,-4.392,-4.3479,-4.358,-4.3946,-4.4194,-4.4237,-4.4318,-4.4525,-4.4722,-4.4018,-4.3281,-4.2517,-4.2412,-4.2131,-4.1761,-4.0989,-4.0496,-4.04,-3.9996,-3.9265,-3.8142,-3.7507,-3.6654,-3.5769,-3.55,-3.55,-3.55,-3.55,-3.55,-3.55,-3.55,-3.55,-3.55,-3.55,-3.55,-3.55,-3.5562,-3.5663,-3.5777,-3.5922,-3.5996,-3.6016,-3.6016,-3.6016,-3.6016,-3.6016,-3.6016,-3.6016,-3.6016,-3.6016,-3.6016,-3.6016,-3.6016,-3.6016,-3.5996,-3.5996,-3.6016,-3.5996,-3.5976,-3.5893,-3.5821,-3.5739,-3.5661,-3.5599,-3.5558,-3.5515,-3.55,-3.55,-3.55,-3.55,-3.5385,-3.5481,-3.55,-3.5423,-3.5327,-3.5365,-3.5398,-4.9971,-5.0558,-4.9837,-5.001,-5.0587,-5.0606,-5.0587,-5.0567,-4.9992,-4.9182,-4.8428,-4.7697,-4.7009,-4.6231,-4.6305,-4.6636,-4.6947,-4.6617,-4.6801,-4.7113,-4.7131,-4.7039,-4.6984,-4.6544,-4.6342,-4.6361,-4.6874,-4.7149,-4.7186,-4.7718,-4.7901,-4.7223,-4.7131,-4.6764,-4.6085,-4.5204,-4.4801,-4.4617,-4.3901,-4.3497,-4.3496,-4.358,-4.3899,-4.4533,-4.4285,-4.4266,-4.4557,-4.4784,-4.4735,-4.4147,-4.258,-4.1715,-4.1615,-4.0969,-4.0496,-4.0496,-4.0496,-3.9554,-3.843,-3.7911,-3.7173,-3.5712,-3.55,-3.55,-3.55,-3.55,-3.55,-3.55,-3.55,-3.55,-3.55,-3.55,-3.55,-3.552,-3.5575,-3.5666,-3.5843,-3.5948,-3.5996,-3.6016,-3.6016,-3.6016,-3.6016,-3.6016,-3.6016,-3.6016,-3.6016,-3.6016,-3.6016,-3.6016,-3.6016,-3.6016,-3.6016,-3.6016,-3.6016,-3.6016,-3.5996,-3.5973,-3.5911,-3.5841,-3.5726,-3.5659,-3.5582,-3.5534,-3.5494,-3.5494,-3.55,-3.55,-3.55,-3.55,-3.55,-3.55,-3.55,-3.55,-3.5474,-5.05,-5.0673,-5.0462,-5.05,-5.0693,-5.0683,-5.0683,-5.0557,-4.9652,-4.9271,-4.8942,-4.8137,-4.771,-4.7665,-4.7645,-4.781,-4.7865,-4.7792,-4.8122,-4.8728,-4.8251,-4.8031,-4.7994,-4.7792,-4.7627,-4.7645,-4.7774,-4.7993,-4.8012,-4.8196,-4.8177,-4.8012,-4.7901,-4.7535,-4.6782,-4.5957,-4.5296,-4.4672,-4.3901,-4.3496,-4.3546,-4.3758,-4.4106,-4.4514,-4.4482,-4.4697,-4.5186,-4.5398,-4.5072,-4.4192,-4.2066,-4.1162,-4.1654,-4.0989,-4.0496,-4.0496,-4.0439,-3.9785,-3.843,-3.8046,-3.7238,-3.575,-3.5673,-3.55,-3.55,-3.55,-3.55,-3.55,-3.55,-3.5538,-3.5519,-3.5538,-3.5538,-3.552,-3.5647,-3.5708,-3.5804,-3.5853,-3.5946,-3.5996,-3.6074,-3.6074,-3.6094,-3.6016,-3.6016,-3.6016,-3.6016,-3.6016,-3.6016,-3.6016,-3.6016,-3.6016,-3.6016,-3.6016,-3.6016,-3.6016,-3.6016,-3.6016,-3.5973,-3.5925,-3.5812,-3.571,-3.5636,-3.5563,-3.5534,-3.5522,-3.5501,-3.55,-3.55,-3.55,-3.55,-3.55,-3.55,-3.55,-3.55,-5.0375,-5.0673,-5.0308,-5.0366,-5.0673,-5.0683,-5.0683,-5.0537,-4.9805,-4.9404,-4.9305,-4.8608,-4.823,-4.8325,-4.8673,-4.882,-4.8838,-4.9187,-4.9627,-4.9903,-4.9591,-4.9003,-4.8489,-4.8324,-4.8324,-4.8324,-4.8324,-4.8306,-4.8306,-4.8324,-4.8324,-4.8288,-4.8324,-4.7865,-4.7058,-4.6305,-4.5569,-4.4863,-4.4021,-4.3614,-4.3946,-4.3989,-4.4304,-4.4682,-4.4825,-4.5085,-4.5503,-4.5259,-4.4643,-4.3701,-4.2412,-4.1681,-4.1673,-4.0969,-4.0516,-4.0496,-4.0496,-3.99,-3.8873,-3.8527,-3.793,-3.6873,-3.6538,-3.6327,-3.6135,-3.6019,-3.6,-3.6038,-3.6,-3.6192,-3.643,-3.625,-3.6019,-3.6052,-3.6055,-3.6128,-3.6234,-3.6731,-3.6972,-3.6992,-3.6797,-3.6543,-3.6523,-3.623,-3.6035,-3.6016,-3.6016,-3.6016,-3.6016,-3.6016,-3.6016,-3.6016,-3.6016,-3.6016,-3.6016,-3.6016,-3.6016,-3.6016,-3.5996,-3.5976,-3.5892,-3.5774,-3.5702,-3.5636,-3.559,-3.5554,-3.5522,-3.5501,-3.55,-3.55,-3.55,-3.55,-3.55,-3.55,-3.55,-5.0,-5.0616,-4.9856,-5.0,-5.0644,-5.0683,-5.0683,-5.0624,-5.029,-4.9879,-4.9504,-4.9217,-4.893,-4.8489,-4.937,-4.9702,-4.9682,-5.0251,-5.0582,-5.0729,-5.06,-5.0141,-4.8948,-4.8893,-4.8746,-4.8618,-4.8453,-4.8398,-4.8361,-4.8324,-4.8324,-4.8324,-4.8324,-4.7774,-4.6929,-4.6195,-4.5635,-4.4888,-4.4059,-4.3915,-4.4308,-4.4294,-4.4455,-4.4943,-4.5129,-4.5263,-4.5311,-4.4844,-4.4008,-4.3162,-4.3028,-4.2354,-4.1654,-4.0843,-4.0554,-4.0496,-4.0458,-4.0131,-3.9438,-3.915,-3.8861,-3.7988,-3.7815,-3.77,-3.7019,-3.6846,-3.6846,-3.6853,-3.6846,-3.7161,-3.7526,-3.7219,-3.6911,-3.6892,-3.6899,-3.71,-3.7327,-3.7946,-3.8409,-3.8418,-3.7676,-3.7363,-3.6992,-3.6582,-3.6016,-3.6016,-3.6016,-3.6016,-3.6016,-3.6016,-3.6016,-3.6016,-3.6016,-3.6016,-3.6016,-3.6016,-3.6016,-3.6016,-3.6016,-3.5996,-3.5957,-3.5869,-3.5794,-3.5729,-3.5668,-3.5604,-3.554,-3.5528,-3.5515,-3.55,-3.55,-3.55,-3.55,-3.55,-3.55,-5.0539,-5.0673,-5.051,-5.0539,-5.0673,-5.0683,-5.0683,-5.0721,-5.0623,-5.0188,-4.9764,-5.0063,-4.9882,-4.9372,-5.0141,-5.0527,-5.0527,-5.082,-5.0802,-5.0894,-5.1481,-5.1169,-5.0417,-5.027,-4.9903,-4.9481,-4.9315,-4.8967,-4.8526,-4.8361,-4.8324,-4.8324,-4.8233,-4.759,-4.6342,-4.6066,-4.5322,-4.4426,-4.3965,-4.4165,-4.454,-4.4567,-4.4682,-4.5107,-4.5342,-4.5504,-4.5395,-4.4759,-4.3932,-4.3181,-4.2508,-4.1893,-4.1046,-4.065,-4.0516,-4.0496,-4.0477,-4.015,-3.9515,-3.9323,-3.895,-3.8315,-3.8219,-3.793,-3.7796,-3.7719,-3.7719,-3.7719,-3.7738,-3.7853,-3.8027,-3.7892,-3.7738,-3.7815,-3.8226,-3.8658,-3.878,-3.858,-3.8339,-3.7891,-3.7559,-3.707,-3.6465,-3.6289,-3.6035,-3.6016,-3.6016,-3.6016,-3.6016,-3.6016,-3.6016,-3.6016,-3.6016,-3.6016,-3.6016,-3.6016,-3.6016,-3.6016,-3.6016,-3.6016,-3.5976,-3.5942,-3.5869,-3.5816,-3.5762,-3.5698,-3.5614,-3.5577,-3.5582,-3.5534,-3.5494,-3.5501,-3.5501,-3.5494,-3.55,-5.0683,-5.0683,-5.0683,-5.0683,-5.0683,-5.0702,-5.0914,-5.1123,-5.0834,-5.0728,-5.0681,-5.079,-5.0509,-5.0235,-5.0949,-5.1353,-5.1481,-5.1775,-5.1958,-5.205,-5.2399,-5.2307,-5.2068,-5.1811,-5.1371,-5.0306,-4.9739,-4.9317,-4.893,-4.8508,-4.8324,-4.8324,-4.8324,-4.7443,-4.6177,-4.6044,-4.5488,-4.456,-4.429,-4.4521,-4.4977,-4.4919,-4.4988,-4.5263,-4.5504,-4.5594,-4.5518,-4.519,-4.4259,-4.3316,-4.2624,-4.1777,-4.0746,-4.0496,-4.0496,-4.0496,-4.0496,-4.0342,-3.9958,-3.9842,-3.97,-3.92,-3.9161,-3.8931,-3.8738,-3.8604,-3.8604,-3.8604,-3.8604,-3.8623,-3.8623,-3.8623,-3.8623,-3.8688,-3.9015,-3.9487,-3.982,-3.9664,-3.939,-3.8908,-3.8496,-3.791,-3.7305,-3.6562,-3.6035,-3.6035,-3.6016,-3.6016,-3.6016,-3.6016,-3.6016,-3.6016,-3.6016,-3.6016,-3.6016,-3.6016,-3.6016,-3.6016,-3.6016,-3.6016,-3.5996,-3.5976,-3.5942,-3.5884,-3.5836,-3.5752,-3.5675,-3.5655,-3.5621,-3.5593,-3.5558,-3.5547,-3.5521,-3.5494,-3.55,-5.0683,-5.0683,-5.0683,-5.077,-5.0875,-5.0914,-5.1375,-5.1928,-5.1389,-5.149,-5.1845,-5.1343,-5.1267,-5.1191,-5.1811,-5.216,-5.2344,-5.2711,-5.291,-5.2947,-5.2983,-5.3002,-5.2947,-5.2839,-5.2435,-5.1151,-5.0306,-4.9794,-4.915,-4.871,-4.8343,-4.8324,-4.8324,-4.7572,-4.6489,-4.6194,-4.5876,-4.4949,-4.4713,-4.4931,-4.54,-4.5302,-4.5332,-4.5504,-4.5577,-4.5594,-4.5537,-4.5248,-4.4624,-4.3239,-4.2989,-4.2027,-4.0997,-4.0496,-4.0496,-4.0496,-4.0496,-4.0439,-4.0381,-4.0419,-4.04,-4.0496,-4.0439,-4.015,-3.9631,-3.9477,-3.9469,-3.9477,-3.9477,-3.9477,-3.9477,-3.9477,-3.9477,-3.9496,-3.9477,-3.9858,-4.0436,-4.0738,-4.0563,-4.0309,-3.9355,-3.8613,-3.7832,-3.7031,-3.6504,-3.6055,-3.6074,-3.6035,-3.6055,-3.6035,-3.6035,-3.6016,-3.6016,-3.6016,-3.6016,-3.6016,-3.6016,-3.6016,-3.6016,-3.6016,-3.6016,-3.5996,-3.5976,-3.5957,-3.5889,-3.5821,-3.5775,-3.5752,-3.5721,-3.565,-3.5599,-3.5575,-3.5528,-3.5494,-3.55,-5.0683,-5.0683,-5.0683,-5.1068,-5.1654,-5.1692,-5.2192,-5.2885,-5.2773,-5.2457,-5.2141,-5.2524,-5.2308,-5.2143,-5.2637,-5.2968,-5.2968,-5.313,-5.3185,-5.3185,-5.3185,-5.3185,-5.3185,-5.3185,-5.2949,-5.2527,-5.1298,-4.9939,-4.9003,-4.8379,-4.8324,-4.8324,-4.8344,-4.7738,-4.704,-4.66,-4.6218,-4.5557,-4.5207,-4.5262,-4.5457,-4.5522,-4.5495,-4.5594,-4.5594,-4.5594,-4.5421,-4.4902,-4.4066,-4.3162,-4.2412,-4.1546,-4.0766,-4.0496,-4.0496,-4.0496,-4.0496,-4.0496,-4.0496,-4.0496,-4.0496,-4.0496,-4.0496,-4.0496,-4.0285,-4.0246,-4.0169,-4.0208,-4.0208,-4.0246,-4.0285,-4.0169,-4.0265,-4.0265,-4.0227,-4.03,-4.0509,-4.0615,-4.0543,-4.0268,-3.9726,-3.9258,-3.8457,-3.7715,-3.7168,-3.6777,-3.666,-3.6465,-3.6309,-3.6211,-3.6094,-3.6055,-3.6016,-3.6016,-3.6016,-3.6016,-3.6016,-3.6016,-3.6016,-3.6016,-3.6016,-3.6016,-3.5996,-3.5976,-3.5976,-3.5925,-3.5892,-3.5859,-3.5783,-3.5702,-3.564,-3.5593,-3.5552,-3.5515,-3.5488,-5.0943,-5.1318,-5.1318,-5.1818,-5.25,-5.2587,-5.3068,-5.3708,-5.3402,-5.3271,-5.3267,-5.3248,-5.301,-5.2776,-5.2968,-5.3185,-5.3185,-5.3185,-5.3185,-5.3185,-5.3185,-5.3185,-5.3185,-5.3185,-5.2913,-5.2362,-5.1316,-5.0472,-4.9572,-4.8691,-4.8398,-4.8345,-4.8477,-4.8196,-4.7537,-4.7136,-4.6612,-4.613,-4.5638,-4.5419,-4.5577,-4.5594,-4.5594,-4.5594,-4.5594,-4.5594,-4.5518,-4.5287,-4.4335,-4.3316,-4.2701,-4.1777,-4.0931,-4.0496,-4.0496,-4.0496,-4.0496,-4.0496,-4.0496,-4.0496,-4.0496,-4.0496,-4.0496,-4.0496,-4.0496,-4.0477,-4.0496,-4.0496,-4.0496,-4.0496,-4.0458,-4.0496,-4.0496,-4.0496,-4.0496,-4.0496,-4.0534,-4.063,-4.0454,-4.0163,-3.9844,-3.9512,-3.916,-3.8476,-3.7891,-3.7539,-3.7324,-3.7031,-3.6719,-3.666,-3.6601,-3.6172,-3.6113,-3.6016,-3.6016,-3.6016,-3.6016,-3.6016,-3.6016,-3.6016,-3.6016,-3.6016,-3.6016,-3.5996,-3.5996,-3.5996,-3.5976,-3.5937,-3.5859,-3.5768,-3.5721,-3.5668,-3.5596,-3.5534,-3.5509,-5.1318,-5.1923,-5.2077,-5.2654,-5.3365,-5.3341,-5.3799,-5.435,-5.3817,-5.3776,-5.4198,-5.3663,-5.33,-5.3209,-5.3167,-5.3185,-5.3185,-5.3185,-5.3185,-5.3185,-5.3185,-5.3185,-5.3185,-5.3112,-5.2931,-5.2472,-5.1591,-5.0875,-5.005,-4.8967,-4.8455,-4.8513,-4.8779,-4.87,-4.8166,-4.7637,-4.7132,-4.6585,-4.588,-4.5605,-4.5594,-4.5594,-4.5594,-4.5594,-4.5594,-4.5594,-4.5575,-4.5518,-4.4613,-4.3585,-4.2893,-4.2297,-4.0862,-4.0496,-4.0496,-4.0496,-4.0496,-4.0496,-4.0496,-4.0496,-4.0496,-4.0496,-4.0496,-4.0496,-4.0496,-4.0496,-4.0496,-4.0496,-4.0496,-4.0496,-4.0496,-4.0496,-4.0496,-4.0496,-4.0496,-4.0504,-4.0527,-4.0568,-4.0636,-4.0383,-4.0096,-3.9785,-3.9473,-3.9258,-3.8691,-3.8184,-3.7949,-3.7871,-3.7598,-3.7578,-3.7363,-3.6601,-3.625,-3.6055,-3.6016,-3.6016,-3.6016,-3.6016,-3.6016,-3.6016,-3.6016,-3.6016,-3.6016,-3.6016,-3.6016,-3.5996,-3.6016,-3.5996,-3.5918,-3.5849,-3.5799,-3.5725,-3.5621,-3.5575,-3.554,-5.1808,-5.1981,-5.2741,-5.3549,-5.4229,-5.3922,-5.4218,-5.4886,-5.4462,-5.4142,-5.3923,-5.3814,-5.3558,-5.3419,-5.3277,-5.3222,-5.3222,-5.3185,-5.3185,-5.3185,-5.3185,-5.3185,-5.3185,-5.3185,-5.313,-5.2747,-5.2142,-5.1061,-5.0222,-4.9081,-4.8624,-4.8907,-4.9019,-4.8982,-4.906,-4.8238,-4.7472,-4.7171,-4.6187,-4.5594,-4.5594,-4.5594,-4.5594,-4.5594,-4.5594,-4.5594,-4.5594,-4.5537,-4.4806,-4.3431,-4.3124,-4.2239,-4.0862,-4.0496,-4.0496,-4.0496,-4.0496,-4.0496,-4.0496,-4.0496,-4.0496,-4.0496,-4.0496,-4.0496,-4.0496,-4.0496,-4.0496,-4.0496,-4.0496,-4.0496,-4.0496,-4.0496,-4.0496,-4.0496,-4.0496,-4.0496,-4.0512,-4.0515,-4.0589,-4.0629,-4.0349,-4.0092,-3.9805,-3.9687,-3.9492,-3.8984,-3.8613,-3.8574,-3.8418,-3.832,-3.7851,-3.7051,-3.6523,-3.6328,-3.6016,-3.6016,-3.6016,-3.6016,-3.6016,-3.6016,-3.6016,-3.6016,-3.6016,-3.6016,-3.6016,-3.6016,-3.6016,-3.5996,-3.5957,-3.5921,-3.5855,-3.5756,-3.5631,-3.5579,-3.5556,-5.3376,-5.3395,-5.378,-5.4414,-5.5094,-5.4715,-5.4745,-5.4909,-5.4385,-5.3995,-5.387,-5.4063,-5.428,-5.4347,-5.4124,-5.3904,-5.3775,-5.3405,-5.3185,-5.3185,-5.3185,-5.3185,-5.3185,-5.3185,-5.3185,-5.2983,-5.2477,-5.2,-5.0914,-5.0083,-4.9536,-4.9834,-4.9705,-4.964,-4.9796,-4.8984,-4.8339,-4.7587,-4.6493,-4.5643,-4.5594,-4.5594,-4.5594,-4.5594,-4.5594,-4.5594,-4.5594,-4.5575,-4.5037,-4.3874,-4.3431,-4.2547,-4.1431,-4.0835,-4.0496,-4.0496,-4.0496,-4.0496,-4.0496,-4.0496,-4.0496,-4.0496,-4.0496,-4.0496,-4.0496,-4.0496,-4.0496,-4.0496,-4.0496,-4.0496,-4.0496,-4.0496,-4.0496,-4.0496,-4.0496,-4.0496,-4.0496,-4.0496,-4.053,-4.0589,-4.0623,-4.0373,-4.0194,-4.0234,-4.0195,-4.0019,-3.9746,-3.9707,-3.9277,-3.8769,-3.8144,-3.7324,-3.6934,-3.666,-3.625,-3.6016,-3.6016,-3.6016,-3.6016,-3.6016,-3.6016,-3.6016,-3.6016,-3.6016,-3.6016,-3.6016,-3.6016,-3.5996,-3.5976,-3.5957,-3.5918,-3.5827,-3.5721,-3.5606,-3.5582,-5.4799,-5.4799,-5.4799,-5.5198,-5.5788,-5.5407,-5.5303,-5.5276,-5.4632,-5.4275,-5.4306,-5.4573,-5.5063,-5.5354,-5.4932,-5.4564,-5.4308,-5.3757,-5.3369,-5.3259,-5.3185,-5.3185,-5.3185,-5.3185,-5.3185,-5.3206,-5.2882,-5.2734,-5.2505,-5.168,-5.085,-5.0903,-5.0233,-5.0162,-5.0073,-4.9543,-4.8798,-4.7568,-4.6308,-4.5671,-4.5594,-4.5594,-4.5594,-4.5594,-4.5594,-4.5594,-4.5594,-4.5594,-4.5152,-4.4316,-4.3489,-4.2662,-4.1777,-4.095,-4.0535,-4.0496,-4.0496,-4.0496,-4.0496,-4.0496,-4.0496,-4.0496,-4.0496,-4.0496,-4.0496,-4.0496,-4.0496,-4.0496,-4.0496,-4.0496,-4.0496,-4.0496,-4.0496,-4.0496,-4.0496,-4.0496,-4.0496,-4.0496,-4.0496,-4.053,-4.0595,-4.0603,-4.0549,-4.0746,-4.082,-4.0898,-4.0879,-4.0772,-4.0195,-3.9414,-3.8887,-3.8164,-3.7344,-3.7051,-3.668,-3.6328,-3.623,-3.6016,-3.6016,-3.6016,-3.6016,-3.6016,-3.6016,-3.6016,-3.6016,-3.6016,-3.6016,-3.6016,-3.6016,-3.5976,-3.595,-3.5938,-3.5834,-3.5706,-3.5585,-5.5607,-5.5607,-5.5615,-5.5861,-5.6213,-5.5822,-5.5831,-5.5977,-5.5591,-5.5411,-5.5451,-5.5522,-5.5574,-5.5647,-5.5592,-5.5133,-5.4454,-5.4344,-5.3812,-5.339,-5.3185,-5.3185,-5.3185,-5.3185,-5.3209,-5.3297,-5.3284,-5.3718,-5.3857,-5.2716,-5.1906,-5.13,-5.0629,-5.0492,-5.0255,-4.9759,-4.8682,-4.749,-4.6297,-4.5729,-4.5633,-4.5594,-4.5594,-4.5594,-4.5594,-4.5594,-4.5594,-4.5594,-4.5325,-4.4479,-4.372,-4.3028,-4.2258,-4.1239,-4.0796,-4.0719,-4.0554,-4.0535,-4.0496,-4.0496,-4.0496,-4.0496,-4.0496,-4.0496,-4.0496,-4.0496,-4.0496,-4.0496,-4.0496,-4.0496,-4.0496,-4.0496,-4.0496,-4.0496,-4.0496,-4.0496,-4.0496,-4.0496,-4.0496,-4.0496,-4.0527,-4.0552,-4.0561,-4.0688,-4.08,-4.084,-4.0877,-4.0764,-4.0717,-4.0117,-3.9844,-3.918,-3.8008,-3.7461,-3.7168,-3.6797,-3.6191,-3.6016,-3.6016,-3.6016,-3.6016,-3.6016,-3.6016,-3.6016,-3.6016,-3.6016,-3.6016,-3.6016,-3.6016,-3.6016,-3.5995,-3.5948,-3.5877,-3.5742,-3.5631,-5.6322,-5.611,-5.6646,-5.6645,-5.6297,-5.6088,-5.6089,-5.6118,-5.5797,-5.5904,-5.6345,-5.6345,-5.6602,-5.6804,-5.6455,-5.5886,-5.5133,-5.4583,-5.3959,-5.3424,-5.3185,-5.3185,-5.3185,-5.3251,-5.3297,-5.3546,-5.3777,-5.4219,-5.4605,-5.3339,-5.2848,-5.2093,-5.1034,-5.0687,-5.0394,-4.9779,-4.8702,-4.7759,-4.6778,-4.6201,-4.5633,-4.5594,-4.5594,-4.5594,-4.5594,-4.5594,-4.5594,-4.5594,-4.5383,-4.4979,-4.4239,-4.3643,-4.3047,-4.197,-4.1393,-4.1239,-4.0958,-4.0708,-4.0593,-4.0573,-4.0496,-4.0496,-4.0496,-4.0496,-4.0496,-4.0496,-4.0496,-4.0496,-4.0496,-4.0496,-4.0496,-4.0496,-4.0496,-4.0496,-4.0496,-4.0496,-4.0496,-4.0496,-4.0496,-4.0496,-4.0496,-4.0512,-4.0515,-4.0552,-4.0655,-4.0721,-4.0766,-4.0793,-4.0727,-4.0674,-4.0346,-3.9909,-3.878,-3.785,-3.7519,-3.6816,-3.6074,-3.6016,-3.6016,-3.6016,-3.6016,-3.6016,-3.6016,-3.6016,-3.6016,-3.6016,-3.6016,-3.6016,-3.6016,-3.6016,-3.5996,-3.5973,-3.5882,-3.5749,-3.5668,-5.6747,-5.6763,-5.7294,-5.7201,-5.6652,-5.6575,-5.6619,-5.6656,-5.6485,-5.6583,-5.7171,-5.7189,-5.7428,-5.7648,-5.7134,-5.6547,-5.5739,-5.4932,-5.4197,-5.3702,-5.339,-5.3309,-5.3295,-5.3357,-5.3464,-5.3851,-5.4028,-5.4396,-5.4487,-5.3353,-5.2775,-5.2246,-5.151,-5.0856,-5.0433,-4.9567,-4.8702,-4.8048,-4.7009,-4.6317,-4.5633,-4.5594,-4.5594,-4.5594,-4.5594,-4.5594,-4.5594,-4.5594,-4.5594,-4.5267,-4.4806,-4.4355,-4.3797,-4.3143,-4.2354,-4.197,-4.1681,-4.1266,-4.1189,-4.0727,-4.0554,-4.0496,-4.0496,-4.0496,-4.0496,-4.0496,-4.0496,-4.0496,-4.0496,-4.0496,-4.0496,-4.0496,-4.0496,-4.0496,-4.0496,-4.0496,-4.0496,-4.0496,-4.0496,-4.0496,-4.0496,-4.0496,-4.0504,-4.0527,-4.0559,-4.0649,-4.0724,-4.0752,-4.0755,-4.0707,-4.0644,-4.0138,-3.9445,-3.8572,-3.7812,-3.7129,-3.6465,-3.6016,-3.6016,-3.6016,-3.6016,-3.6016,-3.6016,-3.6016,-3.6016,-3.6016,-3.6016,-3.6016,-3.6016,-3.6016,-3.5996,-3.5996,-3.589,-3.5783,-3.5698,-5.6834,-5.7534,-5.747,-5.7429,-5.7355,-5.737,-5.7545,-5.7729,-5.7767,-5.7776,-5.7831,-5.785,-5.7813,-5.7776,-5.7152,-5.6693,-5.6033,-5.5042,-5.4308,-5.3977,-5.3445,-5.344,-5.3505,-5.3545,-5.372,-5.4305,-5.4459,-5.4337,-5.4021,-5.3399,-5.2805,-5.2028,-5.1241,-5.0683,-5.0529,-4.9048,-4.8221,-4.7865,-4.6528,-4.6067,-4.5633,-4.5594,-4.5594,-4.5594,-4.5594,-4.5594,-4.5594,-4.5594,-4.5594,-4.546,-4.494,-4.4586,-4.4374,-4.3605,-4.3085,-4.3008,-4.2931,-4.2854,-4.2797,-4.1373,-4.0746,-4.0535,-4.0496,-4.0496,-4.0496,-4.0496,-4.0496,-4.0496,-4.0496,-4.0496,-4.0496,-4.0496,-4.0496,-4.0496,-4.0496,-4.0496,-4.0496,-4.0496,-4.0496,-4.0496,-4.0496,-4.0496,-4.0496,-4.0496,-4.0496,-4.0559,-4.0649,-4.0692,-4.0707,-4.0728,-4.0696,-4.0376,-3.9789,-3.897,-3.8142,-3.7484,-3.6855,-3.6328,-3.6016,-3.6016,-3.6016,-3.6016,-3.6016,-3.6016,-3.6016,-3.6016,-3.6016,-3.6016,-3.6016,-3.6016,-3.6016,-3.5976,-3.5898,-3.5807,-3.5742,-5.776,-5.7526,-5.8049,-5.8078,-5.7814,-5.7788,-5.788,-5.7983,-5.7978,-5.7978,-5.7978,-5.7978,-5.7648,-5.7373,-5.7354,-5.6767,-5.539,-5.5592,-5.4932,-5.3647,-5.3295,-5.3519,-5.3643,-5.3758,-5.4048,-5.4667,-5.4862,-5.4642,-5.4322,-5.3556,-5.274,-5.1933,-5.1106,-5.0741,-5.0616,-4.9865,-4.9433,-4.8279,-4.7432,-4.6817,-4.5768,-4.5594,-4.5594,-4.5594,-4.5594,-4.5594,-4.5594,-4.5594,-4.5594,-4.5594,-4.5114,-4.5094,-4.496,-4.4316,-4.3912,-4.3739,-4.3547,-4.2797,-4.2423,-4.1508,-4.1085,-4.0804,-4.0516,-4.0516,-4.0496,-4.0496,-4.0496,-4.0496,-4.0496,-4.0496,-4.0496,-4.0496,-4.0496,-4.0496,-4.0496,-4.0496,-4.0496,-4.0496,-4.0496,-4.0496,-4.0496,-4.0496,-4.0496,-4.0496,-4.0496,-4.0496,-4.0581,-4.0588,-4.0596,-4.0654,-4.0678,-4.0461,-3.9989,-3.9221,-3.8478,-3.7823,-3.7037,-3.6367,-3.6094,-3.6016,-3.6016,-3.6016,-3.6016,-3.6016,-3.6016,-3.6016,-3.6016,-3.6016,-3.6016,-3.6016,-3.6016,-3.6016,-3.5957,-3.5889,-3.5805,-5.8297,-5.7929,-5.8283,-5.8286,-5.8001,-5.7978,-5.7978,-5.7978,-5.7978,-5.7978,-5.7978,-5.7978,-5.7776,-5.7446,-5.7262,-5.7079,-5.5262,-5.5023,-5.495,-5.3592,-5.3277,-5.3481,-5.3683,-5.3887,-5.4267,-5.4857,-5.5013,-5.4778,-5.3949,-5.3462,-5.2549,-5.1568,-5.0971,-5.0741,-5.0577,-5.0192,-4.9413,-4.8279,-4.7548,-4.6817,-4.596,-4.5594,-4.5594,-4.5594,-4.5594,-4.5594,-4.5594,-4.5594,-4.5594,-4.5594,-4.5594,-4.5594,-4.5383,-4.5152,-4.4739,-4.4556,-4.4297,-4.3566,-4.3047,-4.2393,-4.2027,-4.1643,-4.0958,-4.0535,-4.0496,-4.0496,-4.0496,-4.0496,-4.0516,-4.0535,-4.0554,-4.0535,-4.0496,-4.0496,-4.0496,-4.0496,-4.0573,-4.0593,-4.0631,-4.0631,-4.0593,-4.0573,-4.0554,-4.0496,-4.0496,-4.0496,-4.0504,-4.0496,-4.0496,-4.0568,-4.0636,-4.048,-4.0258,-3.9644,-3.8926,-3.8185,-3.7372,-3.646,-3.623,-3.6133,-3.6016,-3.6016,-3.6016,-3.6016,-3.6016,-3.6016,-3.6016,-3.6016,-3.6016,-3.6016,-3.6016,-3.6016,-3.6016,-3.5949,-3.5857,-5.8352,-5.8596,-5.819,-5.8001,-5.7978,-5.7978,-5.7978,-5.7978,-5.7978,-5.7978,-5.7978,-5.7978,-5.7721,-5.7629,-5.7134,-5.6547,-5.6033,-5.4932,-5.4454,-5.4057,-5.3513,-5.3638,-5.3796,-5.3994,-5.4556,-5.4928,-5.4931,-5.4403,-5.3365,-5.2741,-5.1914,-5.1125,-5.0779,-5.0683,-5.05,-4.9942,-4.9106,-4.8221,-4.7413,-4.6624,-4.5806,-4.5594,-4.5594,-4.5594,-4.5594,-4.5594,-4.5594,-4.5594,-4.5594,-4.5594,-4.5594,-4.5594,-4.5575,-4.5594,-4.5594,-4.5556,-4.5441,-4.4836,-4.4085,-4.3335,-4.2989,-4.2489,-4.1566,-4.0912,-4.0593,-4.0669,-4.0604,-4.0631,-4.0669,-4.065,-4.0631,-4.0573,-4.0496,-4.0496,-4.0496,-4.0573,-4.0689,-4.0746,-4.0823,-4.0823,-4.0785,-4.0766,-4.0766,-4.0708,-4.0593,-4.0496,-4.0496,-4.0496,-4.0496,-4.0496,-4.0552,-4.0533,-4.0311,-4.0093,-3.941,-3.8627,-3.7766,-3.6885,-3.6461,-3.6309,-3.6172,-3.6035,-3.6016,-3.6016,-3.6016,-3.6016,-3.6016,-3.6016,-3.6016,-3.6016,-3.6016,-3.6016,-3.6016,-3.5976,-3.5911,-5.8409,-5.8172,-5.8047,-5.7978,-5.7978,-5.7978,-5.7978,-5.7978,-5.7978,-5.7978,-5.7978,-5.7978,-5.7391,-5.6345,-5.6602,-5.5739,-5.4895,-5.4289,-5.3995,-5.3713,-5.3549,-5.3888,-5.4221,-5.4497,-5.5021,-5.5108,-5.4898,-5.4199,-5.3075,-5.2279,-5.1452,-5.0789,-5.0683,-5.0683,-5.0337,-4.9798,-4.8913,-4.8086,-4.7259,-4.649,-4.5845,-4.5594,-4.5594,-4.5594,-4.5594,-4.5594,-4.5594,-4.5594,-4.5594,-4.5594,-4.5594,-4.5594,-4.5594,-4.5594,-4.5594,-4.5594,-4.5498,-4.521,-4.4451,-4.4085,-4.3778,-4.3335,-4.2547,-4.2066,-4.1546,-4.1131,-4.095,-4.0989,-4.1073,-4.1104,-4.12,-4.1162,-4.1027,-4.0977,-4.1008,-4.1123,-4.1258,-4.145,-4.1508,-4.1527,-4.147,-4.1162,-4.115,-4.0862,-4.0739,-4.0593,-4.0496,-4.0496,-4.0496,-4.0496,-4.0496,-4.0496,-4.0427,-4.0215,-3.9783,-3.9081,-3.8176,-3.7361,-3.7039,-3.6631,-3.6269,-3.6152,-3.6055,-3.6016,-3.6016,-3.6016,-3.6016,-3.6016,-3.6016,-3.6016,-3.6016,-3.6016,-3.6016,-3.5976,-3.5957,-5.8418,-5.8024,-5.7978,-5.7978,-5.7978,-5.7978,-5.785,-5.7629,-5.785,-5.7868,-5.7556,-5.7501,-5.6804,-5.5868,-5.6014,-5.5445,-5.3995,-5.4216,-5.4014,-5.3474,-5.3484,-5.3758,-5.4221,-5.4663,-5.4727,-5.4877,-5.4784,-5.4248,-5.2799,-5.1568,-5.0702,-5.0712,-5.0683,-5.0452,-4.999,-4.9221,-4.8413,-4.7721,-4.7067,-4.6413,-4.5932,-4.5594,-4.5594,-4.5594,-4.5594,-4.5594,-4.5594,-4.5594,-4.5594,-4.5594,-4.5594,-4.5594,-4.5594,-4.5594,-4.5594,-4.5594,-4.5575,-4.5383,-4.4921,-4.444,-4.4239,-4.3951,-4.3508,-4.3047,-4.2681,-4.2297,-4.1912,-4.1681,-4.17,-4.172,-4.1835,-4.1893,-4.1739,-4.1585,-4.17,-4.1816,-4.2027,-4.2258,-4.2354,-4.2393,-4.2162,-4.1797,-4.1508,-4.1162,-4.0835,-4.0612,-4.0496,-4.0496,-4.0496,-4.0496,-4.0496,-4.0496,-4.0458,-4.0339,-3.9909,-3.9553,-3.8878,-3.822,-3.7885,-3.7411,-3.6729,-3.6426,-3.6484,-3.6269,-3.6016,-3.6016,-3.6016,-3.6016,-3.6016,-3.6016,-3.6016,-3.6016,-3.6016,-3.5996,-3.5976,-5.8394,-5.7997,-5.7978,-5.7978,-5.7978,-5.7886,-5.7483,-5.6914,-5.7428,-5.7391,-5.6785,-5.6693,-5.6235,-5.5464,-5.5445,-5.5023,-5.4142,-5.4051,-5.3812,-5.3206,-5.34,-5.3682,-5.4085,-5.4333,-5.4713,-5.4632,-5.4285,-5.3741,-5.2125,-5.1087,-5.0683,-5.0683,-5.0519,-5.0192,-4.9567,-4.8509,-4.7721,-4.7212,-4.6759,-4.624,-4.5806,-4.5594,-4.5594,-4.5594,-4.5594,-4.5594,-4.5594,-4.5594,-4.5594,-4.5594,-4.5594,-4.5594,-4.5594,-4.5594,-4.5594,-4.5594,-4.5594,-4.5537,-4.5306,-4.4921,-4.4998,-4.471,-4.4239,-4.3874,-4.3547,-4.3008,-4.2508,-4.2527,-4.2585,-4.272,-4.2835,-4.2643,-4.245,-4.2374,-4.245,-4.2681,-4.3008,-4.3278,-4.3547,-4.3431,-4.2874,-4.247,-4.1835,-4.1489,-4.0796,-4.0593,-4.0496,-4.0496,-4.0496,-4.0496,-4.0496,-4.0496,-4.0477,-4.0419,-4.0296,-3.9949,-3.9593,-3.9102,-3.8714,-3.8163,-3.7473,-3.7168,-3.6953,-3.6641,-3.6309,-3.6074,-3.6016,-3.6016,-3.6016,-3.6016,-3.6016,-3.6016,-3.6016,-3.6016,-3.5996,-5.8097,-5.7997,-5.7978,-5.7978,-5.7886,-5.7354,-5.6987,-5.6767,-5.6308,-5.6051,-5.5904,-5.5812,-5.5445,-5.4785,-5.4675,-5.4271,-5.372,-5.3665,-5.3408,-5.335,-5.3442,-5.3627,-5.4196,-5.4439,-5.477,-5.4852,-5.4278,-5.2953,-5.1587,-5.0894,-5.0673,-5.0616,-5.025,-4.9606,-4.9202,-4.8029,-4.7115,-4.6712,-4.6278,-4.599,-4.5691,-4.5594,-4.5594,-4.5594,-4.5594,-4.5594,-4.5594,-4.5594,-4.5594,-4.5594,-4.5594,-4.5594,-4.5594,-4.5594,-4.5594,-4.5594,-4.5594,-4.5594,-4.5537,-4.5325,-4.5383,-4.5421,-4.5075,-4.4701,-4.422,-4.3508,-4.322,-4.3393,-4.3566,-4.372,-4.3739,-4.3451,-4.3239,-4.3239,-4.3239,-4.3624,-4.397,-4.4325,-4.469,-4.4124,-4.3547,-4.2931,-4.2258,-4.1604,-4.092,-4.0612,-4.0535,-4.0496,-4.0496,-4.0496,-4.0496,-4.0496,-4.0496,-4.0466,-4.0423,-4.033,-3.9958,-3.9718,-3.9386,-3.8812,-3.8213,-3.7773,-3.7402,-3.6973,-3.6621,-3.6348,-3.6113,-3.6016,-3.6016,-3.6016,-3.6016,-3.6016,-3.6016,-3.6016,-3.6016,-5.7978,-5.796,-5.7611,-5.7262,-5.6895,-5.6436,-5.6088,-5.5684,-5.5244,-5.4858,-5.4638,-5.4803,-5.4638,-5.3959,-5.3867,-5.3757,-5.3222,-5.3203,-5.3222,-5.3314,-5.3278,-5.3404,-5.3829,-5.4065,-5.3585,-5.3544,-5.2747,-5.1625,-5.1106,-5.0798,-5.0673,-5.0519,-4.9837,-4.9125,-4.874,-4.7567,-4.6682,-4.6297,-4.5806,-4.5652,-4.5594,-4.5594,-4.5594,-4.5594,-4.5594,-4.5594,-4.5594,-4.5594,-4.5594,-4.5594,-4.5594,-4.5594,-4.5594,-4.5594,-4.5594,-4.5594,-4.5594,-4.5594,-4.5594,-4.5594,-4.5594,-4.5594,-4.5594,-4.5094,-4.5105,-4.447,-4.4124,-4.4278,-4.4566,-4.4748,-4.4759,-4.4566,-4.4509,-4.4517,-4.4517,-4.471,-4.4863,-4.5056,-4.4633,-4.3662,-4.322,-4.2912,-4.2258,-4.17,-4.1046,-4.0573,-4.0496,-4.0516,-4.0516,-4.0496,-4.0496,-4.0496,-4.0496,-4.0496,-4.0466,-4.0435,-4.0311,-4.0108,-3.9936,-3.9637,-3.9141,-3.8379,-3.7793,-3.7363,-3.6934,-3.6543,-3.6328,-3.6094,-3.6016,-3.6016,-3.6016,-3.6016,-3.6016,-3.6016,-3.6016,-5.7629,-5.7574,-5.706,-5.6345,-5.5651,-5.5464,-5.5097,-5.4509,-5.4289,-5.3904,-5.3482,-5.4014,-5.3757,-5.3427,-5.3185,-5.3185,-5.3112,-5.2913,-5.2947,-5.2913,-5.2787,-5.2676,-5.2691,-5.2836,-5.256,-5.2141,-5.1514,-5.149,-5.1433,-5.0837,-5.0298,-5.0298,-4.9586,-4.8682,-4.7913,-4.7144,-4.6355,-4.5941,-4.5614,-4.5614,-4.5594,-4.5594,-4.5594,-4.5594,-4.5594,-4.5594,-4.5594,-4.5594,-4.5594,-4.5594,-4.5594,-4.5594,-4.5594,-4.5594,-4.5594,-4.5594,-4.5594,-4.5594,-4.5594,-4.5594,-4.5594,-4.5594,-4.5594,-4.5575,-4.5556,-4.5364,-4.5017,-4.5056,-4.5344,-4.5344,-4.5364,-4.5278,-4.5267,-4.521,-4.5229,-4.5229,-4.5287,-4.5248,-4.4259,-4.3201,-4.2912,-4.2662,-4.2354,-4.1777,-4.1258,-4.0758,-4.0593,-4.0554,-4.0554,-4.0516,-4.0496,-4.0496,-4.0496,-4.0496,-4.0496,-4.0477,-4.0435,-4.0446,-4.0283,-4.0263,-4.0059,-3.9277,-3.8496,-3.7734,-3.7305,-3.6855,-3.6387,-3.6055,-3.6016,-3.6035,-3.6016,-3.6016,-3.6016,-3.6016,-3.6016,-5.6051,-5.6088,-5.6565,-5.6308,-5.5519,-5.4895,-5.4528,-5.4308,-5.3702,-5.3295,-5.328,-5.328,-5.3298,-5.3185,-5.3185,-5.3112,-5.2913,-5.2564,-5.227,-5.2179,-5.183,-5.1617,-5.1597,-5.1813,-5.1944,-5.1595,-5.1209,-5.1298,-5.0721,-4.999,-4.9644,-4.9567,-4.8067,-4.7375,-4.7144,-4.6432,-4.5864,-4.5594,-4.5594,-4.5594,-4.5594,-4.5594,-4.5594,-4.5594,-4.5594,-4.5594,-4.5594,-4.5594,-4.5594,-4.5594,-4.5594,-4.5594,-4.5594,-4.5594,-4.5594,-4.5594,-4.5594,-4.5594,-4.5594,-4.5594,-4.5594,-4.5594,-4.5594,-4.5594,-4.5575,-4.5575,-4.5364,-4.5364,-4.5441,-4.5094,-4.4998,-4.4739,-4.4624,-4.4509,-4.4479,-4.4479,-4.4517,-4.4124,-4.3431,-4.2835,-4.247,-4.247,-4.2547,-4.2008,-4.1527,-4.1181,-4.1162,-4.1066,-4.0554,-4.0516,-4.0496,-4.0496,-4.0496,-4.0496,-4.0496,-4.0496,-4.0492,-4.054,-4.0616,-4.0575,-4.0432,-4.0133,-3.9394,-3.8574,-3.7754,-3.7168,-3.668,-3.6289,-3.6074,-3.6074,-3.6035,-3.6016,-3.6016,-3.6016,-3.6016]},{"header":{"parameterUnit":"m.s-1","parameterCategory":1,"la1":31.0,"la2":29.5877,"lo1":-88.7671,"lo2":-86.6584,"dy":0.0162,"dx":0.0185,"nx":115,"ny":88,"refTime":"2023-04-12T12:00:00:Z","depth":0,"parameterNumber":3,"parameterNumberName":"V-component_of_WINDS"},"data":[0.0,0.0,0.0,0.0,0.0,0.0,0.0,0.0,0.0,0.0,0.0,0.0,0.0,0.0,0.0,0.0,0.0,0.0,0.0,0.0,0.0,0.0,0.0,0.0,0.0,0.0,0.0,0.0,0.0,0.0,0.0,0.0,0.0,0.0,0.0,0.0,0.0,0.0,0.0,0.0,0.0,0.0,0.0,0.0,0.0,0.0,0.0,0.0,0.0,0.0,0.0,0.0,0.0,0.0,0.0,0.0,0.0,0.0,0.0,0.0,0.0,0.0,0.0,0.0,0.0,0.0,0.0,0.0,0.0,0.0,0.0,0.0,0.0,0.0,0.0,0.0,0.0,0.0,0.0,0.0,0.0,0.0,0.0,0.0,0.0,0.0,0.0,0.0,0.0,0.0,0.0,0.0,0.0,0.0,0.0,0.0,0.0,0.0,0.0,0.0,0.0,0.0,0.0,0.0,0.0,0.0,0.0,0.0,0.0,0.0,0.0,0.0,0.0,0.0,0.0,0.0,0.0,0.0,0.0,0.0,0.0,0.0,0.0,0.0,0.0,0.0,0.0,0.0,0.0,0.0,0.0,0.0,0.0,0.0,0.0,0.0,0.0,0.0,0.0,0.0,0.0,0.0,0.0,0.0,0.0,0.0,0.0,0.0,0.0,0.0,0.0,0.0,0.0,0.0,0.0,0.0,0.0,0.0,0.0,0.0,0.0,0.0,0.0,0.0,0.0,0.0,0.0,0.0,0.0,0.0,0.0,0.0,0.0,0.0,0.0,0.0,0.0,0.0,0.0,0.0,0.0,0.0,0.0,0.0,0.0,0.0,0.0,0.0,0.0,0.0,0.0,0.0,0.0,0.0,0.0,0.0,0.0,0.0,0.0,0.0,0.0,0.0,0.0,0.0,0.0,0.0,0.0,0.0,0.0,0.0,0.0,0.0,0.0,0.0,0.0,0.0,0.0,0.0,0.0,0.0,0.0,0.0,0.0,0.0,0.0,0.0,0.0,0.0,0.0,0.0,0.0,0.0,0.0,0.0,0.0,0.0,0.0,0.0,0.0,0.0,0.0,0.0,0.0,0.0,0.0,0.0,0.0,0.0,0.0,0.0,0.0,0.0,0.0,0.0,0.0,0.0,0.0,0.0,0.0,0.0,0.0,0.0,0.0,0.0,0.0,0.0,0.0,0.0,0.0,0.0,0.0,0.0,0.0,0.0,0.0,0.0,0.0,0.0,0.0,0.0,0.0,0.0,0.0,0.0,0.0,0.0,0.0,0.0,0.0,0.0,0.0,0.0,0.0,0.0,0.0,0.0,0.0,0.0,0.0,0.0,0.0,0.0,0.0,0.0,0.0,0.0,0.0,0.0,0.0,0.0,0.0,0.0,0.0,0.0,0.0,0.0,0.0,0.0,0.0,0.0,0.0,0.0,0.0,0.0,0.0,0.0,0.0,0.0,0.0,0.0,0.0,0.0,0.0,0.0,0.0,0.0,0.0,0.0,0.0,0.0,0.0,0.0,0.0,0.0,0.0,0.0,0.0,0.0,0.0,0.0,0.0,0.0,0.0,0.0,0.0,0.0,0.0,0.0,0.0,0.0,0.0,0.0,0.0,0.0,0.0,0.0,0.0,0.0,0.0,0.0,0.0,0.0,0.0,0.0,0.0,0.0,0.0,0.0,0.0,0.0,0.0,0.0,0.0,0.0,0.0,0.0,0.0,0.0,0.0,0.0,0.0,0.0,0.0,0.0,0.0,0.0,0.0,0.0,0.0,0.0,0.0,0.0,0.0,0.0,0.0,0.0,0.0,0.0,0.0,0.0,0.0,0.0,0.0,0.0,0.0,0.0,0.0,0.0,0.0,0.0,0.0,0.0,0.0,0.0,0.0,0.0,0.0,0.0,0.0,0.0,0.0,0.0,0.0,0.0,0.0,0.0,0.0,0.0,0.0,0.0,0.0,0.0,0.0,0.0,0.0,0.0,0.0,0.0,0.0,0.0,0.0,0.0,0.0,0.0,0.0,0.0,0.0,0.0,0.0,0.0,0.0,0.0,0.0,0.0,0.0,0.0,0.0,0.0,0.0,0.0,0.0,0.0,0.0,0.0,0.0,0.0,0.0,0.0,0.0,0.0,0.0,0.0,0.0,0.0,0.0,0.0,0.0,0.0,0.0,0.0,0.0,0.0,0.0,0.0,0.0,0.0,0.0,0.0,0.0,0.0,0.0,0.0,0.0,0.0,0.0,0.0,0.0,0.0,0.0,0.0,0.0,0.0,0.0,0.0,0.0,0.0,0.0,0.0,0.0,0.0,0.0,0.0,0.0,0.0,0.0,0.0,0.0,0.0,0.0,0.0,0.0,0.0,0.0,0.0,0.0,0.0,0.0,0.0,0.0,0.0,0.0,0.0,0.0,0.0,0.0,0.0,0.0,0.0,0.0,0.0,0.0,0.0,0.0,0.0,0.0,0.0,0.0,0.0,0.0,0.0,0.0,0.0,0.0,0.0,0.0,0.0,0.0,0.0,0.0,0.0,0.0,0.0,0.0,0.0,0.0,0.0,0.0,0.0,0.0,0.0,0.0,0.0,0.0,0.0,0.0,0.0,0.0,0.0,0.0,0.0,0.0,0.0,0.0,0.0,0.0,0.0,0.0,0.0,0.0,0.0,0.0,0.0,0.0,0.0,0.0,0.0,0.0,0.0,0.0,0.0,0.0,0.0,0.0,0.0,0.0,0.0,0.0,0.0,0.0,0.0,0.0,0.0,0.0,0.0,0.0,0.0,0.0,0.0,0.0,0.0,0.0,0.0,0.0,0.0,0.0,0.0,0.0,0.0,0.0,0.0,0.0,0.0,0.0,0.0,0.0,0.0,0.0,0.0,0.0,0.0,0.0,0.0,0.0,0.0,0.0,0.0,0.0,0.0,0.0,0.0,0.0,0.0,0.0,0.0,0.0,0.0,0.0,0.0,0.0,0.0,0.0,0.0,0.0,0.0,0.0,0.0,0.0,0.0,0.0,0.0,0.0,0.0,0.0,0.0,0.0,0.0,0.0,0.0,0.0,0.0,0.0,0.0,0.0,0.0,0.0,0.0,0.0,0.0,0.0,0.0,0.0,0.0,0.0,0.0,0.0,0.0,0.0,0.0,0.0,0.0,0.0,0.0,0.0,0.0,0.0,0.0,0.0,0.0,0.0,0.0,0.0,0.0,0.0,0.0,0.0,0.0,0.0,0.0,0.0,0.0,0.0,0.0,0.0,0.0,0.0,0.0,0.0,0.0,0.0,0.0,0.0,0.0,0.0,0.0,0.0,0.0,0.0,0.0,0.0,0.0,0.0,0.0,0.0,0.0,0.0,0.0,0.0,0.0,0.0,0.0,0.0,0.0,0.0,0.0,0.0,0.0,0.0,0.0,0.0,0.0,0.0,0.0,0.0,0.0,0.0,0.0,0.0,0.0,0.0,0.0,0.0,0.0,0.0,0.0,0.0,0.0,0.0,0.0,0.0,0.0,0.0,0.0,0.0,0.0,0.0,0.0,0.0,0.0,0.0,0.0,0.0,0.0,0.0,0.0,0.0,0.0,0.0,0.0,0.0,0.0,0.0,0.0,0.0,0.0,0.0,0.0,0.0,0.0,0.0,0.0,0.0,0.0,0.0,0.0,0.0,0.0,0.0,0.0,0.0,0.0,0.0,0.0,0.0,0.0,0.0,0.0,0.0,0.0,0.0,0.0,0.0,0.0,0.0,0.0,0.0,0.0,0.0,0.0,0.0,0.0,0.0,0.0,0.0,0.0,0.0,0.0,0.0,0.0,0.0,0.0,0.0,0.0,0.0,0.0,0.0,0.0,0.0,0.0,0.0,0.0,0.0,0.0,0.0,0.0,0.0,0.0,0.0,0.0,0.0,0.0,0.0,0.0,0.0,0.0,0.0,0.0,0.0,0.0,0.0,0.0,0.0,0.0,0.0,0.0,0.0,0.0,0.0,0.0,0.0,0.0,0.0,0.0,0.0,0.0,0.0,0.0,0.0,0.0,0.0,0.0,0.0,0.0,0.0,0.0,0.0,0.0,0.0,0.0,0.0,0.0,0.0,0.0,0.0,0.0,0.0,0.0,0.0,0.0,0.0,0.0,0.0,0.0,0.0,0.0,0.0,0.0,0.0,0.0,0.0,0.0,0.0,0.0,0.0,0.0,0.0,0.0,0.0,0.0,0.0,0.0,0.0,0.0,0.0,0.0,0.0,0.0,0.0,0.0,0.0,0.0,0.0,0.0,0.0,0.0,0.0,0.0,-0.0028,0.0,0.0,0.0,0.0,0.0,0.0,0.0,0.0,0.0,0.0,0.0,0.0,0.0,0.0,0.0,0.0,0.0,0.0,0.0,0.0,0.0,0.0,0.0,0.0,0.0,0.0,0.0,0.0,0.0,0.0,0.0,0.0,0.0,0.0,0.0,0.0,0.0,0.0,0.0,0.0,0.0,0.0,0.0,0.0,0.0,0.0,0.0,0.0,0.0,0.0,0.0,0.0,0.0,0.0,0.0,0.0,0.0,0.0,0.0,0.0,0.0,0.0,0.0,0.0,0.0,0.0,0.0,0.0,0.0,0.0,0.0,0.0,0.0,0.0,0.0,0.0,0.0,0.0,0.0,0.0,0.0,0.0,0.0,0.0,0.0,0.0,0.0,0.0,0.0,0.0,0.0,0.0,0.0,0.0,0.0,0.0,0.0,0.0,0.0,0.0,0.0,0.0,0.0,0.0,0.0,0.0,0.0,0.0,0.0,0.0,0.0,0.0,0.0,0.0,0.0,0.0,0.0,0.0,0.0,0.0,0.0,0.0,0.0,0.0,0.0,0.0,0.0,0.0,0.0,0.0,0.0,0.0,0.0,0.0,0.0,0.0,0.0,0.0,0.0,0.0,0.0,0.0,0.0,0.0,0.0,0.0,0.0,0.0,0.0,0.0,0.0,0.0,0.0,0.0,0.0,0.0,0.0,0.0,0.0,0.0,0.0,0.0,0.0,0.0,0.0,0.0,0.0,0.0,0.0,0.0,0.0,0.0,0.0,0.0,0.0,0.0,0.0,0.0,0.0,0.0,0.0,0.0,0.0,0.0,0.0,0.0,0.0,0.0,0.0,0.0,0.0,0.0,0.0,0.0,0.0,0.0,0.0,0.0,0.0,0.0,0.0,0.0,0.0,0.0,0.0,0.0,0.0,0.0,0.0,0.0,0.0,0.0,0.0,0.0,0.0,0.0,0.0,0.0,0.0,0.0,0.0,0.0,0.0,0.0,0.0,0.0,0.0,0.0,0.0,0.0,0.0,0.0,0.0,0.0,0.0,0.0,0.0,0.0,0.0,0.0,0.0,0.0,0.0,0.0,0.0,0.0,0.0,0.0,0.0,0.0,0.0,0.0,0.0,0.0,0.0,0.0,0.0,0.0,0.0,0.0,0.0,0.0,0.0,0.0,0.0,0.0,0.0,0.0,0.0,0.0,0.0,0.0,0.0,0.0,0.0,0.0,0.0,0.0,0.0,0.0,0.0,0.0,0.0,0.0,0.0,0.0,0.0,0.0,0.0,0.0,0.0,0.0,0.0,0.0,0.0,0.0,0.0,0.0,0.0,0.0,0.0,0.0,0.0,0.0,0.0,0.0,0.0,0.0,0.0,0.0,0.0,0.0,0.0,0.0,0.0,0.0,0.0,0.0,0.0,0.0,0.0,0.0,0.0,0.0,0.0,0.0,0.0,0.0,0.0,0.0,0.0,0.0,0.0,0.0,0.0,0.0,0.0,0.0,0.0,0.0,0.0184,0.0,0.0,0.0,0.0,0.0,0.0,0.0,0.0,0.0,0.0,0.0,0.0,0.0,0.0,0.0,0.0,0.0,0.0,0.0,0.0,0.0,0.0,0.0,0.0,0.0,0.0,0.0,0.0,0.0,0.0,0.0,0.0,0.0,0.0,0.0,0.0,0.0,0.0,0.0,0.0,0.0,0.0,0.0,0.0,0.0,0.0,0.0,0.0,0.0,0.0,0.0,0.0,0.0,0.0,0.0,0.0,0.0,0.0,0.0,0.0,0.0,0.0,0.0,0.0,0.0,0.0,0.0,0.0,0.0,0.0,0.0,0.0,0.0,0.0,0.0,0.0,0.0,0.0,0.0,0.0,0.0,0.0,0.0,0.0,0.0,0.0,0.0,0.0,0.0,0.0,0.0,0.0,0.0,0.0,0.0,0.0,0.0,0.0,0.0,0.0,0.0,0.0,0.0,0.0,0.0,0.0,0.0,0.0,0.0,0.0,0.0,0.0,0.0,0.0,0.019,0.0,0.0,0.0,0.0,0.0,0.0,0.0,0.0,0.0,0.0,0.0,0.0,0.0,0.0,0.0,0.0,0.0,0.0,0.0,0.0,0.0,0.0,0.0,0.0,0.0,0.0,0.0,0.0,0.0,0.0,0.0,0.0,0.0,0.0,0.0,0.0,0.0,0.0,0.0,0.0,0.0,0.0,0.0,0.0,0.0,0.0,0.0,0.0,0.0,0.0,0.0,0.0,0.0,0.0,0.0,0.0,0.0,0.0,0.0,0.0,0.0,0.0,0.0,0.0,0.0,0.0,0.0,0.0,0.0,0.0,0.0,0.0,0.0,0.0,0.0,0.0,0.0,0.0,0.0,0.0,0.0,0.0,0.0,0.0,0.0,0.0,0.0,0.0,0.0,0.0,0.0,0.0,0.0,0.0,0.0,0.0,0.0,0.0,0.0,0.0,0.0,0.0,0.0,0.0,0.0,0.0,0.0,0.0,0.0,0.0,0.0,0.0,0.0,0.0462,0.0229,0.0,0.0,0.0,0.0,0.0,0.0,0.0,0.0,0.0,0.0,0.0,0.0,0.0,0.0,0.0,0.0,0.0,0.0,0.0,0.0,0.0,0.0,0.0,0.0,0.0,0.0,0.0,0.0,0.0,0.0,0.0,0.0,0.0,0.0,0.0,0.0,0.0,0.0,0.0,0.0,0.0,0.0,0.0,0.0,0.0,0.0,0.0,0.0,0.0,0.0,0.0,0.0,0.0,0.0,0.0,0.0,0.0,0.0,0.0,0.0,0.0,0.0,0.0,0.0,0.0,0.0,0.0,0.0,0.0,0.0,0.0,0.0,0.0,0.0,0.0,0.0,0.0,0.0,0.0,0.0,0.0,0.0,0.0,0.0,0.0,0.0,0.0,0.0,0.0,0.0,0.0,0.0,0.0,0.0,0.0,0.0,0.0,0.0,0.0,0.0,0.0,0.0,0.0,0.0,0.0,0.0,0.0,0.0,0.0,0.0,0.0,0.0,0.1109,0.0672,0.0336,0.0,0.0,0.0,0.0,0.0,0.0,0.0,0.0,0.0,0.0,0.0,0.0,0.0,0.0,0.0,0.0,0.0,0.0,0.0,0.0,0.0,0.0,0.0,0.0,0.0,0.0,0.0,0.0,0.0,0.0,0.0,0.0,0.0,0.0,0.0,0.0,0.0,0.0,0.0,0.0,0.0,0.0,0.0,0.0,0.0,0.0,0.0,0.0,0.0,0.0,0.0,0.0,0.0,0.0,0.0,0.0,0.0,0.0,0.0,0.0,0.0,0.0,0.0,0.0,0.0,0.0,0.0,0.0,0.0,0.0,0.0,0.0,0.0,0.0,0.0,0.0,0.0,0.0,0.0,0.0,0.0,0.0,0.0,0.0,0.0,0.0,0.0,0.0,0.0,0.0,0.0,0.0,0.0,0.0,0.0,0.0,0.0,0.0,0.0,0.0,0.0,0.0,0.0,0.0,0.0,0.0,0.0,0.0,0.0,0.0,0.0,0.0,0.1507,0.0966,0.0539,0.0202,0.0202,0.0135,0.0,0.0,0.0,0.0,0.0,0.0,0.0,0.0,0.0,0.0,0.0,0.0,0.0,0.0,0.0,0.0,0.0,0.0,0.0,0.0,0.0,0.0,0.0,0.0,0.0,0.0,0.0,0.0,0.0,0.0,0.0,0.0,0.0,0.0,0.0,0.0,0.0,0.0,0.0,0.0,0.0,0.0,0.0,0.0,0.0,0.0,0.0,0.0,0.0,0.0,0.0,0.0,0.0,0.0,0.0,0.0,0.0,0.0,0.0,0.0,0.0,0.0,0.0,0.0,0.0,0.0,0.0,0.0,0.0,0.0,0.0,0.0,0.0,0.0,0.0,0.0,0.0,0.0,0.0,0.0,0.0,0.0,0.0,0.0,0.0,0.0,0.0,0.0,0.0,0.0,0.0,0.0,0.0,0.0,0.0,0.0,0.0,0.0,0.0,0.0,0.0,0.0,0.0,0.0,0.0,0.0,0.0,0.0,0.0,0.1707,0.0,0.0699,0.0471,0.0371,0.0236,0.0,0.0,0.0,0.0,0.0,0.0,0.0,0.0,0.0,0.0,0.0,0.0,0.0,0.0,0.0,0.0,0.0,0.0,0.0,0.0,0.0,0.0,0.0,0.0,0.0,0.0,0.0,0.0,0.0,0.0,0.0,0.0,0.0,0.0,0.0,0.0,0.0,0.0,0.0,0.0,0.0,0.0,0.0,0.0,0.0,0.0,0.0,0.0,0.0,0.0,0.0,0.0,0.0,0.0,0.0,0.0,0.0,0.0,0.0,0.0,0.0,0.0,0.0,0.0,0.0,0.0,0.0,0.0,0.0,0.0,0.0,0.0,0.0,0.0,0.0,0.0,0.0,0.0,0.0,0.0,0.0,0.0,0.0,0.0,0.0,0.0,0.0,0.0,0.0,0.0,0.0,0.0,0.0,0.0,0.0,0.0,0.0,0.0,0.0,0.0,0.0,0.0,0.0,0.0,0.0,0.0,0.0,0.0,0.2841,0.1767,0.1224,0.0916,0.0805,0.0505,0.0303,0.0,0.0,0.0,0.0,0.0,0.0,0.0,0.0,0.0,0.0,0.0,0.0,0.0,0.0,0.0,0.0,0.0,0.0,0.0,0.0,0.0,0.0,0.0,0.0,0.0,0.0,0.0,0.0,0.0,0.0,0.0,0.0,0.0,0.0,0.0,0.0,0.0,0.0,0.0,0.0,0.0,0.0,0.0,0.0,0.0,0.0,0.0,0.0,0.0,0.0,0.0,0.0,0.0,0.0,0.0,0.0,0.0,0.0,0.0,0.0,0.0,0.0,0.0,0.0,0.0,0.0,0.0,0.0,0.0,0.0,0.0,0.0,0.0,0.0,0.0,0.0,0.0,0.0,0.0,0.0,0.0,0.0,0.0,0.0,0.0,0.0,0.0,0.0,0.0,0.0,0.0,0.0,0.0,0.0,0.0,0.0,0.0,0.0,0.0,0.0,0.0,0.0,0.0,0.0,0.0,0.0,0.0,0.0,0.0,0.2558,0.204,0.1666,0.1376,0.0908,0.0539,0.0,0.0,0.0,0.0,0.0,0.0,0.0,0.0,0.0,0.0,0.0,0.0,0.0,0.0,0.0,0.0,0.0,0.0,0.0,0.0,0.0,0.0,0.0,0.0,0.0,0.0,0.0,0.0,0.0,0.0,0.0,0.0,0.0,0.0,0.0,0.0,0.0,0.0,0.0,0.0,0.0,0.0,0.0,0.0,0.0,0.0,0.0,0.0,0.0,0.0,0.0,0.0,0.0,0.0,0.0,0.0,0.0,0.0,0.0,0.0,0.0,0.0,0.0,0.0,0.0,0.0,0.0,0.0,0.0,0.0,0.0,0.0,0.0,0.0,0.0,0.0,0.0,0.0,0.0,0.0,0.0,0.0,0.0,0.0,0.0,0.0,0.0,0.0,0.0,0.0,0.0,0.0,0.0,0.0,0.0,0.0,0.0,0.0,0.0,0.0,0.0,0.0,0.0,0.0,0.0,0.0,0.0,0.0,0.0,0.3709,0.3011,0.2448,0.2016,0.1478,0.0975,0.0505,0.0,0.0,0.0,0.0,0.0,0.0,0.0,0.0,0.0,0.0,0.0,0.0,0.0,0.0,0.0,0.0,0.0,0.0,0.0,0.0,0.0,0.0,0.0,0.0,0.0,0.0,0.0,0.0,0.0,0.0,0.0,0.0,0.0,0.0,0.0,0.0,0.0,0.0,0.0,0.0,0.0,0.0,0.0,0.0,0.0,0.0,0.0,0.0,0.0,0.0,0.0,0.0,0.0,0.0,0.0,0.0,0.0,0.0,0.0,0.0,0.0,0.0,0.0,0.0,0.0,0.0,0.0,0.0,0.0,0.0,0.0,0.0,0.0,0.0,0.0,0.0,0.0,0.0,0.0,0.0,0.0,0.0,0.0,0.0,0.0,0.0,0.0,0.0,0.0,0.0,0.0,0.0,0.0,0.0,0.0,0.0,0.0,0.0,0.0,0.0,0.0,0.0,0.0,0.0,0.0,0.0,0.0,0.0,0.5139,0.4064,0.3277,0.2792,0.2221,0.1613,0.0,0.0,0.0,0.0,0.0,0.0,0.0,0.0,0.0,0.0,0.0,0.0,0.0,0.0,0.0,0.0,0.0,0.0,0.0,0.0,0.0,0.0,0.0,0.0,0.0,0.0,0.0,0.0,0.0,0.0,0.0,0.0,0.0,0.0,0.0,0.0,0.0,0.0,0.0,0.0,0.0,0.0,0.0,0.0,0.0,0.0,0.0,0.0,0.0,0.0,0.0,0.0,0.0,0.0,0.0,0.0,0.0,0.0,0.0,0.0,0.0,0.0,0.0,0.0,0.0,0.0,0.0,0.0,0.0,0.0,0.0,0.0,0.0,0.0,0.0,0.0,0.0,0.0,0.0,0.0,0.0,0.0,0.0,0.0,0.0,0.0,0.0,0.0,0.0,0.0,0.0,0.0,0.0,0.0,0.0,0.0,0.0,0.0,0.0,0.0,0.0,0.0,0.0,0.0,0.0,0.0,0.0,0.0,0.0,0.5555,0.5192,0.4587,0.3838,0.2904,0.2159,0.0,0.0,0.0,0.0,0.0,0.0,0.0,0.0,0.0,0.0,0.0,0.0,0.0,0.0,0.0,0.0,0.0,0.0,0.0,0.0,0.0,0.0,0.0,0.0,0.0,0.0,0.0,0.0,0.0,0.0,0.0,0.0,0.0,0.0,0.0,0.0,0.0,0.0,0.0,0.0,0.0,0.0,0.0,0.0,0.0,0.0,0.0,0.0,0.0,0.0,0.0,0.0,0.0,0.0,0.0,0.0,0.0,0.0,0.0,0.0,0.0,0.0,0.0,0.0,0.0,0.0,0.0,0.0,0.0,0.0,0.0,0.0,0.0,0.0,0.0,0.0,0.0,0.0,0.0,0.0,0.0,0.0,0.0,0.0,0.0,0.0,0.0,0.0,0.0,0.0,0.0,0.0,0.0,0.0,0.0,0.0,0.0,0.0,0.0,0.0,0.0,0.0,0.0,0.0,0.0,0.0,0.0,0.0,0.5412,0.5888,0.5852,0.5587,0.5098,0.3841,0.2795,0.0,0.0,0.0,0.0,0.0,0.0,0.0,0.0,0.0,0.0,0.0,0.0,0.0,0.0,0.0,0.0,0.0,0.0,0.0,0.0,0.0,0.0,0.0,0.0,0.0,0.0,0.0,0.0,0.0,0.0,0.0,0.0,0.0,0.0,0.0,0.0,0.0,0.0,0.0,0.0,0.0,0.0,0.0,0.0,0.0,0.0,0.0,0.0,0.0,0.0,0.0,0.0,0.0,0.0,0.0,0.0,0.0,0.0,0.0,0.0,0.0,0.0,0.0,0.0,0.0,0.0,0.0,0.0,0.0,0.0,0.0,0.0,0.0,0.0,0.0,0.0,0.0,0.0,0.0,0.0,0.0,0.0,0.0,0.0,0.0,0.0,0.0,0.0,0.0,0.0,0.0,0.0,0.0,0.0,0.0,0.0,0.0,0.0,0.0,0.0,0.0,0.0,0.0,0.0,0.0,0.0,0.0,0.0,0.5798,0.6071,0.6213,0.632,0.6268,0.4865,0.35,0.0,0.0,0.0,0.0,0.0,0.0,0.0,0.0,0.0,0.0,0.0,0.0,0.0,0.0,0.0,0.0,0.0,0.0,0.0,0.0,0.0,0.0,0.0,0.0,0.0,0.0,0.0,0.0,0.0,0.0,0.0,0.0,0.0,0.0,0.0,0.0,0.0,0.0,0.0,0.0,0.0,0.0,0.0,0.0,0.0,0.0,0.0,0.0,0.0,0.0,0.0,0.0,0.0,0.0,0.0,0.0,0.0,0.0,0.0,0.0,0.0,0.0,0.0,0.0,0.0,0.0,0.0,0.0,0.0,0.0,0.0,0.0,0.0,0.0,0.0,0.0,0.0,0.0,0.0,0.0,0.0,0.0,0.0,0.0,0.0,0.0,0.0,0.0,0.0,0.0,0.0,0.0,0.0,0.0,0.0,0.0,0.0,0.0,0.0,0.0,0.0,0.0,0.0,0.0,0.0,0.0,0.0,0.0,0.611,0.6366,0.6453,0.647,0.6467,0.5135,0.406,0.0,0.0,0.0,0.0,0.0,0.0,0.0,0.0,0.0,0.0,0.0,0.0,0.0,0.0,0.0,0.0,0.0,0.0,0.0,0.0,0.0,0.0,0.0,0.0,0.0,0.0,0.0,0.0,0.0,0.0,0.0,0.0,0.0,0.0,0.0,0.0,0.0,0.0,0.0,0.0,0.0,0.0,0.0,0.0,0.0,0.0,0.0,0.0,-0.8269,0.0,0.0,0.0,0.0,0.0,0.0,0.0,0.0,0.0,0.0,0.0,0.0,0.0,0.0,0.0,0.0,0.0,0.0,0.0,0.0,0.0,0.0,0.0,0.0,0.0,0.0,0.0,0.0,0.0,0.0,0.0,0.0,0.0,0.0,0.0,0.0,0.0,0.0,0.0,0.0,0.0,0.0,0.0,0.0,0.0,0.0,0.0,0.0,0.0,0.0,0.0,0.0,0.0,0.0,0.0,0.0,0.0,0.0,0.0,0.6356,0.6501,0.6583,0.658,0.6563,0.5472,0.452,0.0,0.0,0.0,0.0,0.0,0.0,0.0,0.0,0.0,0.0,0.0,0.0,0.0,0.0,0.0,0.0,0.0,0.0,0.0,0.0,0.0,0.0,0.0,0.0,0.0,0.0,0.0,0.0,0.0,0.0,0.0,0.0,0.0,0.0,0.0,0.0,0.0,0.0,0.0,0.0,0.0,0.0,0.0,0.0,0.0,0.0,0.0,0.0,0.0,0.0,0.0,0.0,0.0,0.0,0.0,0.0,0.0,0.0,0.0,0.0,0.0,0.0,0.0,0.0,0.0,0.0,0.0,0.0,0.0,0.0,0.0,0.0,0.0,0.0,0.0,0.0,0.0,0.0,0.0,0.0,0.0,0.0,0.0,0.0,0.0,0.0,0.0,0.0,0.0,0.0,0.0,0.0,0.0,0.0,0.0,0.0,0.0,0.0,0.0,0.0,0.0,0.0,0.0,0.0,0.0,0.0,0.0,0.6281,0.6556,0.6511,0.662,0.6688,0.6658,0.584,0.489,0.3869,0.0,0.0,0.0,0.0,0.0,0.0,0.0,0.0,0.0,0.0,0.0,0.0,0.0,0.0,0.0,0.0,0.0,0.0,0.0,0.0,0.0,0.0,0.0,0.0,0.0,0.0,0.0,0.0,0.0,0.0,0.0,0.0,0.0,0.0,0.0,0.0,0.0,0.0,-0.3996,-0.4428,0.0,0.0,0.0,0.0,0.0,0.0,0.0,0.0,-0.7699,0.0,0.0,0.0,0.0,0.0,0.0,0.0,0.0,0.0,0.0,0.0,0.0,0.0,0.0,0.0,0.0,0.0,0.0,0.0,0.0,0.0,0.0,0.0,0.0,0.0,0.0,0.0,0.0,0.0,0.0,0.0,0.0,0.0,0.0,0.0,0.0,0.0,0.0,0.0,0.0,0.0,0.0,0.0,0.0,0.0,0.0,0.0,0.0,0.0,0.0,0.0,0.0,0.0,0.0,0.0,0.0,0.6106,0.6628,0.6791,0.6508,0.6624,0.6641,0.6542,0.6013,0.5323,0.4544,0.0,0.0,0.0,0.0,0.0,0.0,0.0,0.0,0.0,0.0,0.0,0.0,0.0,0.0,0.0,0.0,0.0,0.0,0.0,0.0,0.0,0.0,0.0,0.0,0.0,0.0,0.0,0.0,0.0,0.0,0.0,0.0,0.0,0.0,0.0,0.0,0.0,0.0,0.0,-0.4485,-0.4573,0.0,0.0,0.0,0.0,0.0,0.0,0.0,0.0,-0.7762,0.0,0.0,0.0,0.0,0.0,0.0,0.0,0.0,0.0,0.0,0.0,0.0,0.0,0.0,0.0,0.0,0.0,0.0,0.0,0.0,0.0,0.0,0.0,0.0,0.0,0.0,0.0,0.0,0.0,0.0,0.0,0.0,0.0,0.0,0.0,0.0,0.0,0.0,0.0,0.0,0.0,0.0,0.0,0.0,0.0,0.0,0.0,0.0,0.0,0.0,0.0,0.0,0.0,0.0,0.0,0.6722,0.7106,0.7046,0.6504,0.6546,0.6546,0.6504,0.6037,0.5512,0.0,0.0,0.0,0.0,0.0,0.0,0.0,0.0,0.0,0.0,0.0,0.0,0.0,0.0,0.0,0.0,0.0,0.0,0.0,0.0,0.0,0.0,0.0,0.0,0.0,0.0,0.0,0.0,0.0,0.0,0.0,0.0,0.0,0.0,0.0,0.0,0.0,0.0,0.0,0.0,-0.4451,-0.4665,-0.4789,0.0,0.0,0.0,0.0,0.0,0.0,-0.7106,-0.7539,0.0,0.0,0.0,0.0,0.0,0.0,0.0,0.0,0.0,0.0,0.0,0.0,0.0,0.0,0.0,0.0,0.0,0.0,0.0,0.0,0.0,0.0,0.0,0.0,0.0,0.0,0.0,0.0,0.0,0.0,0.0,0.0,0.0,0.0,0.0,0.0,0.0,0.0,0.0,0.0,0.0,0.0,0.0,0.0,0.0,0.0,0.0,0.0,0.0,0.0,0.0,0.0,0.0,0.0,0.0,0.7525,0.7925,0.7694,0.6813,0.6842,0.6711,0.6422,0.6006,0.5571,0.0,0.0,0.0,0.0,0.0,0.0,0.0,0.0,0.0,0.0,0.0,0.0,0.0,0.0,0.0,0.0,0.0,0.0,0.0,0.0,0.0,0.0,0.0,0.0,0.0,0.0,0.0,0.0,0.0,0.0,0.0,0.0,0.0,0.0,0.0,0.0,0.0,0.0,0.0,0.0,0.0,-0.4715,-0.4867,-0.4789,0.0,0.0,0.0,0.0,-0.6509,-0.6754,0.0,0.0,0.0,0.0,0.0,0.0,0.0,0.0,0.0,0.0,0.0,0.0,0.0,0.0,0.0,0.0,0.0,0.0,0.0,0.0,0.0,0.0,0.0,0.0,0.0,0.0,0.0,0.0,0.0,0.0,0.0,0.0,0.0,0.0,0.0,0.0,0.0,0.0,0.0,0.0,0.0,0.0,0.0,0.0,0.0,0.0,0.0,0.0,0.0,0.0,0.0,0.0,0.0,0.0,0.0,0.0,0.8906,0.9601,0.9237,0.7756,0.8005,0.7505,0.6129,0.5898,0.5632,0.0,0.0,0.0,0.0,0.0,0.0,0.0,0.0,0.0,0.0,0.0,0.0,0.0,0.0,0.0,0.0,0.0,0.0,0.0,0.0,0.0,0.0,0.0,0.0,0.0,0.0,0.0,0.0,0.0,0.0,0.0,0.0,0.0,0.0,0.0,0.0,0.0,0.0,0.0,0.0,0.0,-0.4627,-0.4867,-0.4785,-0.4797,0.0,0.0,-0.5067,-0.5531,-0.5989,0.0,0.0,0.0,0.0,0.0,0.0,0.0,0.0,0.0,0.0,0.0,0.0,0.0,0.0,0.0,0.0,0.0,0.0,0.0,0.0,0.0,0.0,0.0,0.0,0.0,0.0,0.0,0.0,0.0,0.0,0.0,0.0,0.0,0.0,0.0,0.0,0.0,0.0,0.0,0.0,0.0,0.0,0.0,0.0,0.0,0.0,0.0,0.0,0.0,0.0,0.0,0.0,0.0,0.0,0.0,0.9919,0.9468,0.9548,0.9058,0.7935,0.7533,0.6947,0.6166,0.5925,0.5622,0.0,0.0,0.0,0.0,0.0,0.0,0.0,0.0,0.0,0.0,0.0,0.0,0.0,0.0,0.0,0.0,0.0,0.0,0.0,0.0,0.0,0.0,0.0,0.0,0.0,0.0,0.0,0.0,0.0,0.0,0.0,0.0,0.0,0.0,0.0,0.0,0.0,0.0,0.0,0.0,0.0,0.0,-0.4971,-0.5088,0.0,0.0,0.0,-0.5321,-0.5643,0.0,0.0,0.0,0.0,0.0,0.0,0.0,0.0,0.0,0.0,0.0,0.0,0.0,0.0,0.0,0.0,0.0,0.0,0.0,0.0,0.0,0.0,0.0,0.0,0.0,0.0,0.0,0.0,0.0,0.0,0.0,0.0,0.0,0.0,0.0,0.0,0.0,0.0,0.0,0.0,0.0,0.0,0.0,0.0,0.0,0.0,0.0,0.0,0.0,0.0,0.0,0.0,0.0,0.0,0.0,0.0,0.0,1.0271,1.0176,0.9568,0.8502,0.7801,0.7051,0.6245,0.5942,0.0,0.0,0.0,0.0,0.0,0.0,0.0,0.0,0.0,0.0,0.0,0.0,0.0,0.0,0.0,0.0,0.0,0.0,0.0,0.0,0.0,0.0,0.0,0.0,0.0,0.0,0.0,0.0,0.0,0.0,0.0,0.0,0.0,0.0,0.0,0.0,0.0,0.0,0.0,0.0,0.0,0.0,-0.4897,-0.515,-0.532,-0.5378,0.0,0.0,-0.5505,-0.5781,-0.6055,-0.6515,0.0,0.0,0.0,0.0,0.0,0.0,0.0,0.0,0.0,0.0,0.0,0.0,0.0,0.0,0.0,0.0,0.0,0.0,0.0,0.0,0.0,0.0,0.0,0.0,0.0,0.0,0.0,0.0,0.0,0.0,0.0,0.0,0.0,0.0,0.0,0.0,0.0,0.0,0.0,0.0,0.0,0.0,0.0,0.0,0.0,0.0,0.0,0.0,0.0,0.0,0.0,0.0,0.0,0.0,0.0,1.1744,1.2508,1.1848,0.9878,0.9893,0.8686,0.6132,0.5884,0.5667,0.0,0.0,0.0,0.0,0.0,0.0,0.0,0.0,0.0,0.0,0.0,0.0,0.0,0.0,0.0,0.0,0.0,0.0,0.0,0.0,0.0,0.0,0.0,0.0,0.0,0.0,0.0,0.0,0.0,0.0,0.0,0.0,0.0,0.0,0.0,0.0,0.0,0.0,0.0,0.0,0.0,-0.4736,-0.5292,-0.5388,-0.5491,0.0,0.0,-0.5446,-0.5621,-0.5765,-0.6128,-0.6981,0.0,0.0,0.0,0.0,0.0,0.0,0.0,0.0,0.0,0.0,0.0,0.0,0.0,0.0,0.0,0.0,0.0,0.0,0.0,0.0,0.0,0.0,0.0,0.0,0.0,0.0,0.0,0.0,0.0,0.0,0.0,0.0,0.0,0.0,0.0,0.0,0.0,0.0,0.0,0.0,0.0,0.0,0.0,0.0,0.0,0.0,0.0,0.0,0.0,0.0,0.0,0.0,0.0,1.1577,1.1913,1.2075,1.173,1.0877,0.9746,0.8374,0.6957,0.6205,0.5664,0.0,0.0,0.0,0.0,0.0,0.0,0.0,0.0,0.0,0.0,0.0,0.0,0.0,0.0,0.0,0.0,0.0,0.0,0.0,0.0,0.0,0.0,0.0,0.0,0.0,0.0,0.0,0.0,0.0,0.0,0.0,0.0,0.0,0.0,0.0,0.0,0.0,0.0,0.0,0.0,0.0,-0.5048,-0.5554,-0.5829,0.0,0.0,-0.5783,-0.5794,-0.5905,-0.6015,-0.6378,-0.7152,-0.7442,0.0,0.0,0.0,0.0,0.0,0.0,0.0,0.0,0.0,0.0,0.0,0.0,0.0,0.0,0.0,0.0,0.0,0.0,0.0,0.0,0.0,0.0,0.0,0.0,0.0,0.0,0.0,0.0,0.0,0.0,0.0,0.0,0.0,0.0,0.0,0.0,0.0,0.0,0.0,0.0,0.0,0.0,0.0,0.0,0.0,0.0,0.0,0.0,0.0,0.0,0.0,0.0,1.161,1.2033,1.2004,1.1892,1.1601,1.0136,0.8955,0.804,0.6876,0.6137,0.0,0.0,0.0,0.0,0.0,0.0,0.0,0.0,0.0,0.0,0.0,0.0,0.0,0.0,0.0,0.0,0.0,0.0,0.0,0.0,0.0,0.0,0.0,0.0,0.0,0.0,0.0,0.0,0.0,0.0,0.0,0.0,0.0,0.0,0.0,0.0,0.0,0.0,0.0,0.0,0.0,-0.4967,-0.5695,-0.5986,-0.6085,-0.5833,-0.5857,-0.59,-0.6008,-0.6093,-0.6363,-0.6986,0.0,0.0,0.0,0.0,0.0,0.0,0.0,0.0,0.0,0.0,0.0,0.0,0.0,0.0,0.0,0.0,0.0,0.0,0.0,0.0,0.0,0.0,0.0,0.0,0.0,0.0,0.0,0.0,0.0,0.0,0.6563,0.0,0.0,0.0,0.0,0.0,0.0,0.0,0.0,0.0,0.0,0.0,0.0,0.0,0.0,0.0,0.0,0.0,0.0,0.0,0.0,0.0,0.0,1.1682,1.2291,1.2867,1.2726,1.1917,1.1699,1.0813,0.9286,0.7947,0.7193,0.7039,0.0,0.0,0.0,0.0,0.0,0.0,0.0,0.0,0.0,0.0,0.0,0.0,0.0,0.0,0.0,0.0,0.0,0.0,0.0,0.0,0.0,0.0,0.0,0.0,0.0,0.0,0.0031,0.0,0.0,0.0,0.0,0.0,0.0,0.0,0.0,0.0,0.0,0.0,0.0,-0.372,-0.4313,-0.5584,-0.581,-0.5827,-0.5806,-0.5694,-0.5669,-0.5804,-0.5831,-0.5925,0.0,0.0,0.0,0.0,0.0,0.0,0.0,0.0,0.0,0.0,0.0,0.0,0.0,0.0,0.0,0.0,0.0,0.0,0.0,0.0,0.0,0.0,0.0,0.0,0.0,0.0,0.0,0.63,0.63,0.0,0.0,0.0,0.0,0.0,0.0,0.0,0.0,0.0,0.0,0.0,0.93,0.9811,0.0,0.0,0.0,0.0,0.0,0.0,0.0,0.0,0.0,0.0,0.0,0.0,1.2011,1.2623,1.3186,1.3245,1.2772,1.2071,1.0896,0.92,0.853,0.7757,0.6859,0.0,0.0,0.0,0.0,0.0,0.0,0.0,0.0,0.0,0.0,0.0,0.0,0.0,0.0,0.0,0.0,0.0,0.0,0.0,0.0,0.0,0.0,0.0,0.0,0.0,0.0515,0.0,0.0,0.0,0.0,0.0,0.0,0.0,0.0,0.0,0.0,0.0,-0.1546,-0.2771,-0.369,-0.4537,-0.5369,-0.5742,-0.5956,0.0,0.0,0.0,0.0,0.0,0.0,0.0,0.0,0.0,0.0,0.0,0.0,0.0,0.0,-1.1076,-1.0914,-1.0922,-1.0929,-1.0735,0.0,0.0,0.0,0.0,0.0,0.0,0.0,0.0,0.0,0.0,0.0,0.0,0.0,0.0,0.63,0.0,0.63,0.0,0.0,0.0,0.0,0.0,0.0,0.0,0.0,0.8213,0.9023,1.0169,1.0586,1.112,0.0,1.1642,1.1383,0.0,0.0,0.0,0.0,0.0,0.0,0.0,0.0,1.2201,1.2815,1.334,1.3507,1.3327,1.2609,1.1651,1.0399,0.9251,0.793,0.6372,0.5715,0.5395,0.0,0.0,0.0,0.0,0.0,0.0,0.0,0.0,0.0,0.0,0.0,0.0,0.0,0.0,0.0,0.0,0.0,0.0,0.0,0.0,0.0,0.0,0.0,0.0772,0.0,0.0,0.0,0.0,0.0,0.0,0.0,0.0,0.0,-0.0243,-0.0698,-0.1425,-0.2442,-0.3549,-0.446,-0.5131,0.0,0.0,0.0,0.0,0.0,0.0,0.0,-0.6186,-0.6449,-0.7328,-0.8424,-0.9684,-1.0817,-1.161,-1.1682,0.0,0.0,-1.1229,-1.1289,-1.1396,-1.1316,-1.1296,-1.1236,-1.1089,-1.1136,-1.1136,0.0,0.0,0.0,0.0,0.0,0.0,0.0,0.0,0.63,0.63,0.0,0.63,0.0,0.0,0.0,0.0,0.0,0.7065,0.0,0.0,0.9424,1.0498,1.1933,1.2441,1.2752,1.2764,1.2228,1.1953,1.1913,1.1336,0.0,0.0,0.0,0.0,0.0,0.0,1.2221,1.2817,1.3367,1.362,1.3593,1.3313,1.3046,1.2654,1.0149,0.7822,0.5831,0.5575,0.5428,0.5395,0.5395,0.0,0.0,0.0,0.0,0.0,0.0,0.0,0.0,0.0,0.0,0.0,0.0,0.0,0.0,0.0,0.0,0.0,0.0,0.0,0.0,0.1788,0.0,0.0,0.0,0.0,0.0,0.0,0.0,0.0,0.0,0.0,-0.0258,-0.043,-0.1028,-0.2376,0.0,0.0,0.0,0.0,-0.5759,-0.5644,-0.5613,-0.5741,-0.6068,-0.6122,-0.6115,-0.6151,0.0,0.0,-1.0467,-1.1424,-1.2011,-1.2285,-1.2552,-1.2529,-1.1657,-1.1515,-1.1623,-1.1899,-1.1966,-1.1953,-1.196,-1.2141,-1.2138,0.6675,0.0,0.0,0.0,0.0,0.645,0.6392,0.63,0.63,0.63,0.63,0.63,0.0,0.0,0.0,0.0,0.0,0.0,0.8423,0.877,0.9782,1.0821,1.1782,1.1943,1.2392,1.3066,1.2913,1.2826,1.2806,1.2469,1.1924,1.1316,0.0,0.0,0.0,0.0,1.2824,1.3373,1.3761,1.3854,1.3606,1.332,1.2859,1.2174,0.9882,0.8314,0.7623,0.6793,0.6042,0.5428,0.5395,0.0,0.0,0.0,0.0,0.0,0.0,0.0,0.0,0.0,0.0,0.0,0.0,0.0,0.0,0.0,0.0,0.0,0.0,0.0,0.268,0.194,0.1273,0.0,0.0,0.0,0.0,0.0,0.0,0.0,0.0,0.0,-0.0068,-0.0576,-0.1149,0.0,0.0,-0.3966,-0.457,-0.5316,-0.5864,-0.6081,-0.6105,0.0,0.0,-0.6315,-0.628,-0.6387,-0.8037,-0.9735,-1.0712,-1.1963,-1.2859,-1.2939,-1.3019,-1.2986,-1.2772,-1.2699,-1.2719,-1.2812,-1.2826,-1.2826,-1.2832,-1.2899,-1.2899,0.7143,0.7037,0.6803,0.6647,0.6563,0.6603,0.6512,0.6474,0.6477,0.6437,0.6477,0.6437,0.6553,0.6785,0.6828,0.0,0.0,0.0,0.854,0.9385,1.0248,1.1081,1.1928,1.2531,1.3073,1.3513,1.34,1.334,1.3333,1.3112,1.2659,1.2144,0.0,0.0,1.2516,1.2817,1.316,1.3593,1.3935,1.4001,1.3821,1.342,1.2693,1.1643,1.0192,0.9111,0.8495,0.7438,0.6572,0.5951,0.5587,0.5395,0.0,0.0,0.0,0.0,0.0,0.0,0.0,0.0,0.0,0.0,0.0,0.4189,0.0,0.0,0.0,0.0,0.4215,0.3836,0.3078,0.2422,0.0,0.0,0.0,0.0,0.0,0.0,0.0,0.0,0.0,0.0,0.0,-0.0492,-0.1115,-0.183,-0.2991,-0.4019,-0.4716,0.0,-0.6088,-0.6272,-0.6347,-0.6393,-0.6536,-0.6532,-0.6474,-0.6589,-0.8043,-0.9627,-1.057,-1.181,-1.2836,-1.3392,-1.3561,-1.3561,-1.3561,-1.3554,-1.3514,-1.3367,-1.338,-1.334,-1.334,-1.3433,-1.35,0.7597,0.755,0.7004,0.677,0.6753,0.6753,0.6749,0.6732,0.6722,0.6719,0.6719,0.6705,0.683,0.7002,0.7175,0.0,0.8565,0.77,0.8493,1.0484,1.0904,1.1607,1.2576,1.3889,1.4416,1.4155,1.384,1.3706,1.37,1.3487,1.3353,1.3333,1.2792,1.2625,1.2898,1.314,1.338,1.3673,1.3961,1.4075,1.4041,1.35,1.2622,1.1382,1.0917,1.0076,0.8775,0.7798,0.7126,0.6699,0.5947,0.5458,0.5395,0.0,0.0,0.0,0.0,0.0,0.0,0.0,0.0,0.0,0.0,0.0,0.0,0.0,0.0,0.0,0.4697,0.0,0.3692,0.3064,0.0,0.0,0.0,0.0231,0.0,0.0,0.0,0.0,0.0,0.0,0.0,-0.0256,-0.0958,-0.2299,-0.317,-0.4112,-0.5165,-0.5899,-0.6317,-0.6323,-0.6439,-0.6539,-0.6661,-0.6695,-0.6705,-0.6747,-0.7586,-0.8852,-1.0168,-1.1305,-1.2463,-1.382,-1.4062,-1.4048,-1.4075,-1.4001,-1.3941,-1.3626,-1.3593,-1.36,-1.3633,-1.3834,-1.3841,0.7597,0.759,0.7444,0.7319,0.7255,0.721,0.7146,0.6984,0.6876,0.6832,0.6868,0.6753,0.6805,0.6914,0.696,0.7256,0.7782,0.9398,1.0475,1.117,1.3126,1.4161,1.4389,1.4734,1.4823,1.48,1.4683,1.4693,1.4649,1.4583,1.4549,1.4586,1.4439,1.4142,1.3822,1.3883,1.4021,1.4266,1.4162,1.3975,1.3748,1.3394,1.2942,1.2439,1.1879,1.1012,0.9794,0.9344,0.8356,0.6798,0.6494,0.6104,0.5428,0.5395,0.0,0.0,0.0,0.0,0.0,0.0,0.0,0.0,0.0,0.4816,0.4701,0.0,0.5009,0.0,0.5223,0.512,0.4531,0.3644,0.0,0.0,0.0924,0.0213,0.0,0.0,0.0,0.0,0.0,0.0,0.0,-0.0075,-0.0831,-0.2661,-0.3353,-0.4162,-0.5404,-0.6064,-0.646,-0.6474,-0.6586,-0.6658,-0.6698,-0.6803,-0.6825,-0.6832,-0.7897,-0.9155,-1.0348,-1.147,-1.2602,-1.3795,-1.3895,-1.3854,-1.4028,-1.3741,-1.352,-1.3567,-1.3606,-1.3673,-1.3921,-1.3861,-1.3733,0.7797,0.7797,0.7797,0.7746,0.7658,0.7529,0.7424,0.7339,0.7261,0.7227,0.7224,0.7139,0.7146,0.7272,0.7793,0.847,0.9233,1.0639,1.1615,1.2204,1.3707,1.4352,1.4231,1.4864,1.5129,1.5015,1.5015,1.5015,1.5015,1.5015,1.5015,1.5015,1.509,1.4997,1.4676,1.4543,1.4556,1.471,1.4429,1.4135,1.3841,1.3427,1.3066,1.2822,1.2214,1.1453,1.0526,0.9922,0.8953,0.7674,0.7018,0.64,0.5752,0.5587,0.5458,0.0,0.0,0.0,0.0,0.0,0.0,0.0,0.0,0.0,0.0,0.0,0.526,0.5328,0.5386,0.5335,0.5044,0.425,0.3358,0.2326,0.148,0.0707,0.0,0.0,0.0,0.0,0.0,0.0,0.0,0.0,-0.062,-0.2294,-0.3139,-0.4165,-0.5631,-0.6261,-0.6515,-0.6518,-0.6603,-0.6702,-0.6702,-0.677,-0.6854,-0.6955,-0.745,-0.8329,-0.9548,-1.0584,-1.1608,-1.275,-1.3228,-1.3453,-1.3647,-1.3454,-1.328,-1.3333,-1.3293,-1.3373,-1.3634,-1.3527,-1.3473,0.7988,0.7988,0.7988,0.7988,0.8018,0.7763,0.7655,0.7655,0.7634,0.7708,0.7828,0.7828,0.7933,0.8186,0.9283,1.0362,1.1369,1.1682,1.2332,1.3278,1.3734,1.3809,1.3604,1.4857,1.5317,1.5129,1.5122,1.5122,1.5115,1.507,1.5122,1.5129,1.5324,1.5451,1.5438,1.5197,1.5082,1.5008,1.4669,1.4396,1.4142,1.3527,1.3066,1.2777,1.2214,1.1597,1.0956,1.007,0.9284,0.8657,0.7549,0.6638,0.6145,0.5815,0.5564,0.0,0.5423,0.0,0.0,0.0,0.0,0.0,0.0,0.0,0.0,0.5443,0.5508,0.5641,0.5494,0.5377,0.5387,0.4868,0.3994,0.2645,0.2048,0.1303,0.0,0.0,0.0,0.0,0.0,0.0,0.0,0.0,-0.0475,-0.1643,-0.2727,-0.3978,-0.5668,-0.6301,-0.6508,-0.6494,-0.6559,-0.6607,-0.662,-0.6651,-0.6712,-0.682,-0.6832,-0.7156,-0.8501,-0.9266,-1.0115,-1.1267,-1.2261,-1.2896,-1.2995,-1.3041,-1.306,-1.3133,-1.2919,-1.2878,-1.3146,-1.32,-1.3166,0.7988,0.7988,0.7988,0.7988,0.7985,0.7928,0.7907,0.7901,0.7824,0.831,0.911,0.9153,0.9792,1.0929,1.1169,1.1457,1.1862,1.2964,1.3541,1.3832,1.4896,1.5381,1.5329,1.557,1.5718,1.5665,1.5665,1.5665,1.5665,1.5665,1.5665,1.5671,1.5671,1.5752,1.5698,0.0,0.0,0.0,1.4676,1.4452,1.4409,1.3634,1.3066,1.2784,1.2214,0.0,1.0791,1.0559,0.9855,0.8635,0.8134,0.0,0.0,0.0,0.0,0.0,0.0,0.0,0.0,0.0,0.0,0.0,0.5708,0.5637,0.5593,0.5685,0.5732,0.5762,0.5798,0.5885,0.5875,0.5147,0.421,0.31,0.2176,0.121,0.0,0.0,0.0,0.0,0.0,0.0,0.0,0.0,0.0,-0.142,-0.2519,-0.361,-0.481,-0.5856,-0.642,-0.6371,-0.6388,-0.6392,-0.6385,-0.6484,-0.6525,-0.6563,-0.6654,-0.7146,-0.8156,-0.8546,-0.9086,-1.0262,-1.1095,-1.1655,-1.1921,-1.2222,-1.2548,-1.2831,-1.263,-1.2552,-1.308,-1.3045,-1.2945,0.7988,0.0,0.7988,0.7988,0.0,0.7988,0.7988,0.7982,0.7907,0.8601,0.9806,1.0416,1.1096,1.1826,1.2491,1.2794,1.2963,1.422,1.4854,1.4848,1.5493,1.5825,1.5825,1.5825,1.5825,1.5825,1.5825,1.5825,1.5825,1.5825,1.5825,1.5825,1.5825,1.5825,1.5825,1.5825,1.5618,1.5177,1.503,1.4816,1.4472,1.3906,1.3353,1.2804,0.0,0.0,0.0,0.0,0.0,0.0,0.0,0.0,0.0,0.0,0.0,0.5758,0.5694,0.5759,0.5898,0.5878,0.5945,0.6057,0.6027,0.5966,0.5784,0.5874,0.5945,0.602,0.6034,0.6023,0.6097,0.5742,0.4844,0.3318,0.2657,0.176,0.0,0.0,0.0,0.0,0.0,0.0,0.0,0.0,0.0,-0.0784,-0.1683,-0.2735,-0.383,-0.5367,-0.6371,-0.6313,-0.63,-0.63,-0.6303,-0.6351,-0.6439,-0.6497,-0.6478,-0.675,-0.7336,-0.7837,-0.833,-0.8957,-0.9689,-1.0434,-1.113,-1.1419,-1.1745,-1.2359,-1.2405,-1.2378,-1.2705,-1.2639,-1.2603,0.7988,0.7988,0.7988,0.7988,0.7988,0.7988,0.7988,0.7988,0.0,0.0,0.0,1.1365,1.2042,1.2334,1.3638,1.4268,1.4316,1.5343,1.5825,1.5825,1.5825,1.5825,1.5825,1.5825,1.5825,1.5825,1.5825,1.5825,1.5825,1.5825,1.5825,1.5825,1.5825,1.5825,1.5825,1.5825,1.5664,1.5478,1.5424,1.5137,1.4609,1.4269,1.3728,1.2884,1.2576,1.1997,1.1115,1.0245,0.9822,0.9856,0.9159,0.838,0.7571,0.7591,0.7095,0.5949,0.5844,0.5875,0.602,0.6071,0.6125,0.6293,0.63,0.6245,0.6078,0.6071,0.6122,0.6289,0.6146,0.6122,0.6286,0.63,0.5434,0.3357,0.3124,0.2266,0.0,0.0,0.0,0.0,0.0,0.0,0.0,0.0,0.0,0.0,-0.1019,-0.2074,-0.332,-0.5124,-0.631,-0.63,-0.63,-0.63,-0.63,-0.6303,-0.6347,-0.6443,-0.6354,-0.6317,-0.6527,-0.7045,-0.7417,-0.7585,-0.8356,-0.9268,-1.0083,-1.0571,-1.105,-1.1885,-1.2187,-1.2305,-1.2305,-1.2311,-1.2325,0.7988,0.7988,0.7988,0.7988,0.7988,0.7988,0.7988,0.7988,0.7988,0.8775,1.0047,1.1317,1.2522,1.368,1.4949,1.554,1.5534,1.573,1.5825,1.5825,1.5825,1.5825,1.5825,1.5825,1.5825,1.5825,1.5825,1.5825,1.5825,1.5825,1.5825,1.5825,1.5825,1.5825,1.5825,1.5825,1.5764,1.5758,1.5524,1.5237,1.4903,1.4412,1.3788,1.3173,1.2891,1.2354,1.153,1.1349,1.0688,0.9397,0.9823,0.9096,0.6966,0.742,0.7216,0.6094,0.5996,0.6064,0.6252,0.6269,0.6276,0.6296,0.63,0.6289,0.6272,0.6269,0.6276,0.63,0.6272,0.6272,0.63,0.63,0.5473,0.3513,0.3124,0.2267,0.0314,0.0,0.0,0.0,0.0,0.0,0.0,0.0,0.0,0.0,-0.1019,-0.2268,-0.3936,-0.5512,-0.6222,-0.63,-0.63,-0.63,-0.63,-0.63,-0.6303,-0.6323,-0.6162,-0.6112,-0.6303,-0.6363,-0.6466,-0.6503,-0.7399,-0.8042,-0.8376,-0.9701,-1.0516,-1.1001,-1.1557,-1.215,-1.2194,-1.2231,-1.2305,0.7988,0.7988,0.7988,0.7988,0.7988,0.7988,0.7988,0.8088,0.8772,0.9805,1.1116,1.2425,1.3686,1.4902,1.5534,1.5825,1.5825,1.5825,1.5825,1.5825,1.5825,1.5825,1.5825,1.5825,1.5825,1.5825,1.5825,1.5825,1.5825,1.5825,1.5825,1.5825,1.5825,1.5825,1.5825,1.5825,1.5825,1.5825,1.5644,1.5491,1.5204,1.4937,1.4442,1.3714,1.3547,1.3113,1.226,1.1629,1.0834,0.9893,0.974,0.9123,0.7902,0.7791,0.7563,0.701,0.6453,0.6186,0.6293,0.63,0.63,0.63,0.63,0.63,0.63,0.63,0.63,0.63,0.63,0.63,0.63,0.63,0.5667,0.4139,0.3476,0.2501,0.1097,0.0314,0.0,0.0,0.0,0.0,0.0,0.0,0.0,0.0,-0.1332,-0.2765,-0.3653,-0.5138,-0.6169,-0.6279,-0.63,-0.63,-0.6296,-0.6183,-0.6146,-0.6135,-0.6006,-0.5983,-0.6098,-0.6027,-0.6101,-0.6262,-0.6718,-0.7134,-0.7517,-0.8387,-0.922,-0.9907,-1.075,-1.1372,-1.1502,-1.1879,-1.2268,0.8089,0.8136,0.8056,0.8022,0.7995,0.8029,0.8218,0.8581,0.9554,1.0872,1.2377,1.344,1.4459,1.5343,1.5635,1.5825,1.5825,1.5825,1.5825,1.5825,1.5825,1.5825,1.5825,1.5825,1.5825,1.5825,1.5825,1.5825,1.5825,1.5825,1.5825,1.5825,1.5825,1.5825,1.5825,1.5825,1.5825,1.5825,1.5825,1.5691,1.5411,1.5398,1.5037,1.4398,1.4215,1.3862,1.3093,1.2139,1.1288,1.0726,1.0208,0.9569,0.8786,0.8566,0.8178,0.7563,0.6964,0.6528,0.63,0.63,0.63,0.63,0.63,0.63,0.63,0.63,0.63,0.63,0.63,0.63,0.63,0.63,0.5864,0.4805,0.3748,0.2696,0.1684,0.0628,0.0,0.0,0.0,0.0,0.0,0.0,0.0,0.0,-0.1605,-0.2713,-0.3092,-0.4596,-0.5714,-0.6161,-0.6245,-0.6204,-0.6228,-0.6118,-0.601,-0.6027,-0.5908,-0.5905,-0.5949,-0.5973,-0.6064,-0.6238,-0.63,-0.6566,-0.7092,-0.7601,-0.8127,-0.879,-0.9718,-1.0522,-1.0895,-1.1657,-1.2268,0.8435,0.8421,0.8289,0.8167,0.8008,0.818,0.8808,0.9665,0.9948,1.1404,1.3494,1.3872,1.3974,1.4214,1.5296,1.5825,1.5825,1.5825,1.5825,1.5825,1.5825,1.5825,1.5825,1.5825,1.5825,1.5825,1.5825,1.5825,1.5825,1.5825,1.5825,1.5825,1.5825,1.5825,1.5825,1.5825,1.5825,1.5825,1.5825,1.5691,1.5418,1.5398,1.5231,1.4948,1.4616,1.4322,1.3976,1.3599,1.2804,1.1766,1.2093,1.12,0.8974,0.972,0.9329,0.694,0.7293,0.7288,0.6412,0.63,0.63,0.63,0.63,0.63,0.63,0.63,0.63,0.63,0.63,0.63,0.63,0.63,0.5867,0.4921,0.3787,0.2696,0.1762,0.0628,0.0,0.0,0.0,0.0,0.0,0.0,0.0,0.0,-0.1097,-0.2145,-0.2825,-0.39,-0.5133,-0.5873,-0.604,-0.5905,-0.5983,-0.6047,-0.601,-0.5966,-0.5865,-0.5855,-0.5922,-0.5909,-0.5915,-0.6238,-0.63,-0.6395,-0.6601,-0.7096,-0.7727,-0.7892,-0.8703,-0.9669,-1.0602,-1.1508,-1.2077,0.8377,0.8225,0.8258,0.818,0.8012,0.8109,0.8396,0.8825,0.9657,1.1019,1.2716,1.3542,1.4316,1.5045,1.5588,1.5825,1.5825,1.5825,1.5825,1.5825,1.5825,1.5825,1.5825,1.5825,1.5825,1.5825,1.5825,1.5825,1.5825,1.5825,1.5825,1.5825,1.5825,1.5825,1.5825,1.5825,1.5825,1.5825,1.5825,1.5772,1.5671,1.5651,1.5518,1.5231,1.4937,1.4643,1.4335,1.3853,1.3085,1.205,1.2083,1.123,0.9274,0.9228,0.8961,0.8164,0.7902,0.7365,0.6374,0.63,0.63,0.63,0.63,0.63,0.63,0.63,0.63,0.63,0.63,0.63,0.63,0.63,0.6099,0.5512,0.4139,0.2929,0.254,0.098,0.0,0.0,0.0,0.0,0.0,0.0,0.0,0.0,-0.0902,-0.1716,-0.2114,-0.2946,-0.3953,-0.4763,-0.4921,-0.5222,-0.5761,-0.5909,-0.5911,-0.5884,-0.5844,-0.5857,-0.5936,-0.5952,-0.6017,-0.6265,-0.6289,-0.6255,-0.6156,-0.6472,-0.6892,-0.7068,-0.7694,-0.8689,-0.9701,-1.0714,-1.1279,0.8486,0.8268,0.8411,0.834,0.8163,0.816,0.8334,0.8731,0.9969,1.1263,1.2528,1.383,1.4902,1.573,1.5825,1.5825,1.5825,1.5825,1.5825,1.5825,1.5825,1.5825,1.5825,1.5825,1.5825,1.5825,1.5825,1.5825,1.5825,1.5825,1.5825,1.5825,1.5825,1.5825,1.5825,1.5825,1.5825,1.5825,1.5825,1.5825,1.5825,1.5825,1.5732,1.5511,1.5231,1.4809,1.4146,1.3936,1.3329,1.223,1.1904,1.122,1.0024,0.9108,0.8739,0.8874,0.8035,0.7126,0.6397,0.632,0.63,0.63,0.63,0.63,0.63,0.63,0.63,0.63,0.63,0.63,0.63,0.63,0.63,0.618,0.4375,0.3124,0.2968,0.1253,0.0,0.0,0.0,0.0,0.0,0.0,0.0,0.0,-0.0628,-0.1327,-0.1419,-0.21,-0.2882,-0.3752,-0.4095,-0.4766,-0.5736,-0.5925,-0.5834,-0.5864,-0.5878,-0.5915,-0.5976,-0.5986,-0.6078,-0.6252,-0.6279,-0.6282,-0.6221,-0.6294,-0.6297,-0.6345,-0.6972,-0.7939,-0.8623,-0.9825,-1.0665,0.8854,0.8834,0.8899,0.8699,0.8455,0.8442,0.9083,0.9873,1.1201,1.2479,1.3703,1.4997,1.5683,1.5825,1.5825,1.5825,1.5825,1.5825,1.5825,1.5825,1.5825,1.5825,1.5825,1.5825,1.5825,1.5825,1.5825,1.5825,1.5825,1.5825,1.5825,1.5825,1.5825,1.5825,1.5825,1.5825,1.5825,1.5825,1.5825,1.5825,1.5778,1.5778,1.5724,1.5718,1.5524,1.4754,1.3568,1.4058,1.3806,1.2364,1.2028,1.1475,1.0607,0.9897,0.9104,0.8269,0.7251,0.6574,0.6477,0.6375,0.63,0.63,0.63,0.63,0.63,0.63,0.63,0.63,0.63,0.63,0.63,0.63,0.63,0.6141,0.4375,0.324,0.3085,0.1253,0.0,0.0,0.0,0.0,0.0,0.0,0.0,0.0,0.0,-0.0392,-0.1211,-0.1562,-0.2061,-0.2935,-0.381,-0.4777,-0.5728,-0.5963,-0.5963,-0.5963,-0.5952,-0.5986,-0.599,-0.6047,-0.6135,-0.62,-0.6276,-0.6296,-0.6289,-0.6265,-0.6228,-0.6381,-0.6901,-0.7647,-0.771,-0.943,-1.0269,0.8824,0.8784,0.8686,0.853,0.8357,0.8398,0.8618,0.9056,1.0173,1.1487,1.2844,1.4051,1.5045,1.5825,1.5825,1.5825,1.5825,1.5825,1.5825,1.5825,1.5825,1.5825,1.5825,1.5825,1.5825,1.5825,1.5825,1.5825,1.5825,1.5825,1.5825,1.5825,1.5825,1.5825,1.5825,1.5825,1.5825,1.5825,1.5825,1.5825,1.573,1.5003,1.4943,1.5717,1.5551,1.4726,1.3361,1.4091,1.3885,1.2543,1.2285,1.1646,1.05,0.9372,0.8287,0.7417,0.7394,0.7179,0.6574,0.6381,0.63,0.63,0.63,0.63,0.63,0.63,0.63,0.63,0.63,0.63,0.63,0.63,0.63,0.6022,0.4414,0.3124,0.2734,0.0,0.0,0.0,0.0,0.0,0.0,0.0,0.0,0.0,0.0,0.0,0.0,0.0,-0.1019,-0.1878,-0.2448,-0.3009,-0.3968,-0.5318,-0.5996,-0.6023,-0.6081,-0.6146,-0.6169,-0.6159,-0.6227,-0.6227,-0.6293,-0.6296,-0.6293,-0.6289,-0.6207,-0.6308,-0.6869,-0.6946,-0.6718,-0.8363,-0.9223,0.8824,0.8774,0.8672,0.8574,0.8482,0.8431,0.8411,0.865,1.0159,1.1356,1.2377,1.3926,1.5086,1.5743,1.5825,1.5844,1.5965,1.5972,1.5972,1.5979,1.5972,1.5979,1.5959,1.5872,1.5825,1.5845,1.5932,1.5965,1.5985,1.6066,1.6059,1.5979,1.5972,1.5919,1.5804,1.5825,1.5825,1.5825,1.5825,1.5825,1.5683,1.4997,1.4704,1.5168,1.5397,1.4667,1.2976,1.3707,1.3292,1.1749,1.1363,1.0692,0.9417,0.8404,0.7551,0.6996,0.7315,0.7355,0.6697,0.645,0.6351,0.6303,0.63,0.63,0.63,0.63,0.63,0.63,0.63,0.63,0.63,0.63,0.63,0.6022,0.4375,0.3163,0.3007,0.1253,0.0,0.0,0.0,0.0,0.0,0.0,0.0,0.0,0.0,0.0,0.0,0.0,-0.0196,-0.0941,-0.1488,-0.1993,-0.2727,-0.3889,-0.5015,-0.5261,-0.5568,-0.5832,-0.618,-0.6219,-0.63,-0.63,-0.63,-0.63,-0.63,-0.63,-0.6279,-0.6213,-0.6336,-0.6535,-0.6712,-0.7164,-0.81,0.8937,0.8868,0.8933,0.8838,0.8842,0.8723,0.8693,0.9073,1.1351,1.2278,1.2606,1.4974,1.5961,1.5925,1.5939,1.6025,1.6239,1.6355,1.6279,1.6233,1.6239,1.6239,1.6219,1.6025,1.5925,1.5932,1.6152,1.6315,1.6293,1.6486,1.65,1.6319,1.6279,1.6166,1.5865,1.5892,1.5858,1.5865,1.5852,1.5825,1.5778,1.5445,1.4854,1.4268,1.4978,1.423,1.1826,1.286,1.2229,0.9696,0.9337,0.8535,0.7646,0.7241,0.7122,0.7085,0.6987,0.6848,0.6695,0.6579,0.6429,0.6327,0.63,0.63,0.63,0.63,0.63,0.63,0.63,0.63,0.63,0.63,0.63,0.6103,0.4491,0.3359,0.2773,0.0,0.0,0.0,0.0,0.0,0.0,0.0,0.0,0.0,0.0,0.0,0.0,0.0,0.0,-0.0236,-0.0745,-0.1333,-0.184,-0.2423,-0.3435,-0.429,-0.4748,-0.5118,-0.5747,-0.5983,-0.6219,-0.63,-0.63,-0.63,-0.63,-0.6293,-0.6252,-0.6193,-0.6213,-0.6272,-0.6524,-0.69,-0.7421,0.8937,0.8937,0.8937,0.8876,0.8784,0.873,0.8713,0.8947,1.1261,1.2399,1.3049,1.5227,1.6326,1.642,1.6433,1.648,1.6593,1.6811,1.6717,1.6388,1.6286,1.6293,1.6306,1.6386,1.6433,1.6446,1.6526,1.6567,1.6593,1.6673,1.6647,1.6587,1.6573,1.6526,1.64,1.6239,1.6132,1.6112,1.5884,1.5825,1.5588,1.4028,1.3349,1.3782,1.3445,1.2244,1.0775,1.2352,1.1944,0.9231,0.9188,0.8631,0.7583,0.7152,0.7098,0.7082,0.6964,0.6819,0.6712,0.6563,0.6457,0.6334,0.63,0.63,0.63,0.63,0.63,0.63,0.63,0.63,0.63,0.63,0.63,0.63,0.504,0.3826,0.2929,0.1253,0.0,0.0,0.0,0.0,0.0,0.0,0.0,0.0,0.0,0.0,0.0,0.0,0.0,0.0,0.0,0.0,0.0,0.0,-0.184,-0.2893,-0.3595,-0.4256,-0.4963,-0.5709,-0.5983,-0.63,-0.63,-0.63,-0.63,-0.6282,-0.6248,-0.6245,-0.6279,-0.6272,-0.6245,-0.6597,-0.7088,0.8834,0.8875,0.8821,0.878,0.8794,0.8743,0.874,0.9038,1.0893,1.2187,1.3106,1.491,1.6171,1.6593,1.6707,1.6767,1.6867,1.6967,1.6898,1.6677,1.665,1.665,1.6643,1.6653,1.6707,1.6734,1.6814,1.6867,1.6874,1.6974,1.6981,1.6894,1.6867,1.68,1.6693,1.6426,1.6273,1.6233,1.5985,1.5825,1.5486,1.4226,1.3301,1.3156,1.2813,1.1463,0.9608,1.1077,1.1042,0.9086,0.8629,0.8142,0.7458,0.7227,0.7095,0.7078,0.7007,0.6879,0.6725,0.6614,0.6504,0.6347,0.63,0.63,0.63,0.63,0.63,0.63,0.63,0.63,0.63,0.63,0.63,0.63,0.5315,0.4103,0.2698,0.1058,0.0,0.0,0.0,0.0,0.0,0.0,0.0,0.0,0.0,0.0,0.0,0.0,0.0,0.0,0.0,0.0,0.0,0.0,0.0,-0.1332,-0.2348,-0.3166,-0.3945,-0.4924,-0.5473,-0.6103,-0.63,-0.63,-0.63,-0.63,-0.6279,-0.6296,-0.63,-0.6286,-0.6269,-0.6276,-0.6641,0.8811,0.8858,0.8788,0.8818,0.892,0.8923,0.892,0.9144,1.0455,1.1751,1.2976,1.4469,1.5729,1.6599,1.6854,1.6974,1.7146,1.6967,1.7034,1.7148,1.7213,1.7179,1.7159,1.6941,1.6867,1.6874,1.7119,1.7219,1.7233,1.7427,1.7494,1.7246,1.7213,1.7079,1.6774,1.6453,1.6362,1.6239,1.5979,1.5832,1.5778,1.5486,1.437,1.2193,1.2856,1.1758,0.8863,0.9315,0.9356,0.7983,0.7652,0.7496,0.7385,0.7224,0.7095,0.7095,0.7095,0.693,0.6776,0.6685,0.6596,0.6337,0.63,0.63,0.63,0.63,0.63,0.63,0.63,0.63,0.63,0.63,0.63,0.6183,0.5356,0.3906,0.1996,0.0824,0.0,0.0,0.0,0.0,0.0,0.0,0.0,0.0,0.0,0.0,0.0,0.0,0.0,0.0,0.0,0.0,0.0,0.0,0.0,-0.051,-0.1372,-0.2035,-0.3086,-0.4142,-0.504,-0.5628,-0.6219,-0.6219,-0.63,-0.63,-0.63,-0.63,-0.63,-0.63,-0.63,-0.63,-0.6335,0.8848,0.8878,0.8841,0.8848,0.8881,0.8937,0.8937,0.9085,1.0271,1.1715,1.3171,1.443,1.5848,1.7231,1.7341,1.7402,1.7422,1.7395,1.7515,1.7736,1.7562,1.7482,1.7468,1.7395,1.7335,1.7341,1.7388,1.7527,1.7475,1.7542,1.7535,1.7475,1.7494,1.736,1.7085,1.6727,1.6486,1.6259,1.5979,1.5778,1.5581,1.4854,1.359,1.2188,1.2231,1.0937,0.8273,0.8312,0.8354,0.7842,0.7417,0.7258,0.7392,0.7227,0.7095,0.7095,0.7085,0.697,0.6776,0.6709,0.6566,0.6344,0.633,0.63,0.63,0.63,0.63,0.63,0.63,0.6306,0.6303,0.6306,0.6306,0.6183,0.5407,0.4226,0.2857,0.1801,0.0902,0.0,0.0,0.0,0.0,0.0,0.0,0.0,0.0,0.0,0.0,0.0,0.0,0.0,0.0,0.0,0.0,0.0,0.0,0.0,-0.051,-0.0941,-0.219,-0.3478,-0.4336,-0.5038,-0.5747,-0.5944,-0.618,-0.63,-0.63,-0.63,-0.63,-0.63,-0.63,-0.63,-0.63,0.8882,0.8878,0.8814,0.8824,0.8878,0.8937,0.8937,0.9196,1.0303,1.1747,1.3327,1.4629,1.6079,1.7529,1.7716,1.7769,1.7776,1.7903,1.8063,1.8163,1.805,1.7836,1.7649,1.7589,1.7589,1.7589,1.7589,1.7582,1.7582,1.7589,1.7589,1.7575,1.7589,1.7481,1.7186,1.6854,1.6249,1.5667,1.5588,1.5391,1.4226,1.4028,1.2861,1.1556,1.1072,1.0047,0.828,0.798,0.7872,0.7706,0.7478,0.735,0.7395,0.7224,0.7098,0.7095,0.7095,0.6991,0.6854,0.6793,0.6688,0.6502,0.6484,0.6446,0.6412,0.6392,0.6388,0.6395,0.6388,0.6422,0.6424,0.6433,0.6392,0.6316,0.5832,0.4796,0.3329,0.2206,0.121,0.0,0.0,0.0,0.0,0.0,0.0,0.0,0.0,0.0,0.0,0.0,0.0,0.0,0.0,0.0,0.0,0.0,0.0,0.0,0.0,0.0,-0.1371,-0.2737,-0.3556,-0.4336,-0.5121,-0.575,-0.5944,-0.618,-0.63,-0.63,-0.63,-0.63,-0.63,-0.63,-0.63,0.876,0.8868,0.8791,0.876,0.893,0.8937,0.8937,0.9154,1.0174,1.1688,1.3264,1.4637,1.6016,1.7649,1.7969,1.8029,1.8083,1.829,1.841,1.8464,1.8417,1.825,1.7816,1.7796,1.7742,1.7695,1.7635,1.7615,1.7602,1.7589,1.7589,1.7589,1.7589,1.7388,1.7139,1.6814,1.5825,1.4802,1.5063,1.4322,1.2915,1.2963,1.2328,1.0583,0.985,0.9312,0.8245,0.7857,0.776,0.7611,0.7587,0.7468,0.7392,0.7156,0.7105,0.7095,0.7088,0.7031,0.691,0.6859,0.6809,0.6698,0.6668,0.6647,0.6569,0.6538,0.6538,0.6498,0.6538,0.6552,0.6617,0.6563,0.6508,0.6505,0.6465,0.5462,0.38,0.2487,0.1467,0.0,0.0,0.0,0.0,0.0,0.0,0.0,0.0,0.0,0.0,0.0,0.0,0.0,0.0,0.0,0.0,0.0,0.0,0.0,0.0,0.0,0.0,-0.188,-0.2738,-0.348,-0.4064,-0.4885,-0.5709,-0.5906,-0.5983,-0.63,-0.63,-0.63,-0.63,-0.63,-0.63,0.8854,0.8878,0.8906,0.8854,0.8878,0.8937,0.8937,0.8944,0.9268,1.1126,1.3044,1.3884,1.5668,1.7909,1.825,1.839,1.839,1.8497,1.849,1.8524,1.8738,1.8624,1.835,1.8297,1.8163,1.8009,1.7949,1.7822,1.7662,1.7602,1.7589,1.7589,1.7555,1.7321,1.6867,1.6596,1.5772,1.4328,1.4232,1.3397,1.2091,1.1994,1.1556,0.9948,0.9019,0.8382,0.8107,0.7892,0.7746,0.7614,0.7495,0.7387,0.7238,0.7122,0.7098,0.7095,0.7092,0.7034,0.6923,0.6889,0.6868,0.6756,0.6739,0.6688,0.6664,0.6651,0.6651,0.6651,0.6654,0.6675,0.6705,0.6681,0.6654,0.6668,0.6697,0.6253,0.4848,0.363,0.2135,0.0,0.0,0.0,0.0,0.0,0.0,0.0,0.0,0.0,0.0,0.0,0.0,0.0,0.0,0.0,0.0,0.0,0.0,0.0,0.0,0.0,0.0,-0.102,-0.188,-0.2426,-0.2893,-0.3791,-0.4807,-0.5079,-0.504,-0.5628,-0.6219,-0.618,-0.618,-0.6219,-0.63,0.8937,0.8937,0.8937,0.8937,0.8937,0.894,0.8977,0.936,1.0631,1.2003,1.3699,1.5105,1.6839,1.8222,1.8544,1.8691,1.8738,1.8844,1.8911,1.8945,1.9072,1.9038,1.8951,1.8858,1.8698,1.831,1.8042,1.7889,1.7809,1.7655,1.7589,1.7589,1.7589,1.7268,1.6636,1.6135,1.4725,1.3305,1.2909,1.2086,1.0435,1.0681,1.0386,0.9312,0.8382,0.7988,0.7975,0.7917,0.7804,0.7638,0.7516,0.7366,0.7139,0.7095,0.7095,0.7095,0.7095,0.7068,0.7001,0.698,0.7,0.6912,0.6905,0.6865,0.6831,0.6807,0.6807,0.6807,0.6807,0.681,0.681,0.681,0.681,0.6778,0.6836,0.6387,0.5331,0.4169,0.2841,0.1189,0.0,0.0,0.0,0.0,0.0,0.0,0.0,0.0,0.0,0.0,0.0,0.0,0.0,0.0,0.0,0.0,0.0,0.0,0.0,0.0,0.0,0.0,-0.102,-0.1567,-0.2113,-0.2774,-0.3632,-0.3826,-0.4295,-0.4963,-0.5473,-0.5789,-0.6064,-0.6219,-0.63,0.8937,0.8937,0.8937,0.8895,0.8971,0.8977,0.9059,0.9624,1.1923,1.2838,1.4256,1.6806,1.7465,1.8506,1.8858,1.8985,1.9052,1.9185,1.9323,1.9336,1.935,1.9357,1.9336,1.9232,1.9085,1.8617,1.831,1.8062,1.7889,1.7729,1.7595,1.7589,1.7589,1.7315,1.6634,1.5456,1.408,1.2518,1.1824,1.0632,0.8825,0.9217,0.9069,0.8382,0.8088,0.7988,0.7978,0.7928,0.7868,0.7624,0.758,0.7411,0.7183,0.7095,0.7095,0.7095,0.7095,0.7085,0.7075,0.7082,0.7078,0.7095,0.7085,0.7034,0.6943,0.6916,0.6959,0.6916,0.6916,0.6916,0.6916,0.6916,0.6916,0.692,0.6916,0.6536,0.5728,0.4596,0.3371,0.1848,0.0,0.0,0.0,0.0,0.0,0.0,0.0,0.0,0.0,0.0,0.0,0.0,0.0,0.0,0.0,0.0,0.0,0.0,0.0,0.0,0.0,0.0,0.0,0.0,-0.1449,-0.2034,-0.2462,-0.2774,-0.3361,-0.4219,-0.4924,-0.5356,-0.5786,-0.6219,-0.63,0.8937,0.8937,0.8937,0.9005,0.9166,0.9173,0.9262,0.9384,1.0198,1.1629,1.391,1.4875,1.6933,1.8337,1.9158,1.9279,1.9279,1.9403,1.9424,1.9424,1.9424,1.9424,1.9424,1.9424,1.9272,1.9118,1.8671,1.8176,1.7836,1.7609,1.7589,1.7589,1.7477,1.7257,1.66,1.5535,1.369,1.1994,1.0905,0.9414,0.8528,0.8283,0.8432,0.7988,0.7988,0.7988,0.7958,0.7867,0.777,0.7611,0.7478,0.7326,0.7142,0.7095,0.7095,0.7095,0.7095,0.7095,0.7095,0.7095,0.7095,0.7095,0.7095,0.7095,0.7058,0.7051,0.7038,0.7045,0.7045,0.7051,0.7058,0.7038,0.7055,0.7055,0.7048,0.697,0.6552,0.5573,0.4217,0.2595,0.0,0.0,0.0,0.0,0.0,0.0,0.0,0.0,0.0,0.0,0.0,0.0,0.0,0.0,0.0,0.0,0.0,0.0,0.0,0.0,0.0,0.0,0.0,0.0,0.0,-0.0941,-0.1371,0.0,-0.262,-0.3556,-0.4297,-0.4963,-0.5512,-0.5983,-0.6257,0.8925,0.9049,0.9049,0.9137,0.9316,0.9273,0.9357,0.9772,1.1229,1.2789,1.446,1.6153,1.7673,1.8948,1.9279,1.9424,1.9424,1.9424,1.9424,1.9424,1.9424,1.9424,1.9424,1.9424,1.9259,1.9058,1.8677,1.837,1.8043,1.7722,1.7615,1.7417,1.6929,1.6302,1.5561,1.3683,1.2435,1.1075,0.9805,0.8726,0.8088,0.7988,0.7988,0.7988,0.7988,0.7988,0.7975,0.7934,0.7818,0.7638,0.7529,0.7366,0.7217,0.7095,0.7095,0.7095,0.7095,0.7095,0.7095,0.7095,0.7095,0.7095,0.7095,0.7095,0.7095,0.7092,0.7095,0.7095,0.7095,0.7095,0.7088,0.7095,0.7095,0.7095,0.7095,0.7095,0.6874,0.6027,0.4833,0.347,0.0,0.0,0.0,0.0,0.0,0.0,0.0,0.0,0.0,0.0,0.0,0.0,0.0,0.0,0.0,0.0,0.0,0.0,0.0,0.0,0.0,0.0,0.0,0.0,0.0,0.0,0.0,0.0,0.0,-0.2815,-0.3361,-0.4064,-0.5082,-0.5747,-0.6022,0.9049,0.9214,0.9241,0.9344,0.947,0.9826,1.0032,1.0688,1.3107,1.4598,1.5413,1.7566,1.8874,1.9301,1.9417,1.9424,1.9424,1.9424,1.9424,1.9424,1.9424,1.9424,1.9424,1.9397,1.9265,1.9098,1.8778,1.8517,1.8217,1.7822,1.7457,1.6823,1.5849,1.5064,1.4267,1.2375,1.0827,0.9955,0.8814,0.8041,0.7988,0.7988,0.7988,0.7988,0.7988,0.7988,0.7985,0.7975,0.7816,0.7685,0.7563,0.7458,0.7159,0.7095,0.7095,0.7095,0.7095,0.7095,0.7095,0.7095,0.7095,0.7095,0.7095,0.7095,0.7095,0.7095,0.7095,0.7095,0.7095,0.7095,0.7095,0.7095,0.7095,0.7095,0.7095,0.7051,0.6918,0.6425,0.5847,0.4601,0.3332,0.0,0.0,0.0,0.0,0.0,0.0,0.0,0.0,0.0,0.0,0.0,0.0,0.0,0.0,0.0,0.0,0.0,0.0,0.0,0.0,0.0,0.0,0.0,0.0,0.0,0.0,0.0,0.0,-0.1879,-0.2386,-0.3322,-0.4611,-0.5356,-0.5709,0.9193,0.9224,0.93,0.9442,0.9745,1.1032,1.171,1.2042,1.3832,1.5397,1.655,1.7226,1.8311,1.9179,1.9457,1.9437,1.9437,1.9424,1.9424,1.9424,1.9424,1.9424,1.9424,1.9424,1.9403,1.9199,1.8978,1.8522,1.797,1.7622,1.6802,1.5832,1.5221,1.4742,1.326,1.1414,1.0742,1.0296,0.8873,0.7988,0.7988,0.7988,0.7988,0.7988,0.7988,0.7988,0.7988,0.7978,0.785,0.7658,0.7604,0.7448,0.7159,0.7095,0.7095,0.7095,0.7095,0.7095,0.7095,0.7095,0.7095,0.7095,0.7095,0.7095,0.7095,0.7095,0.7095,0.7095,0.7095,0.7095,0.7095,0.7095,0.7095,0.7095,0.7095,0.7095,0.7007,0.6871,0.6293,0.5755,0.4553,0.3375,0.0,0.0,0.0,0.0,0.0,0.0,0.0,0.0,0.0,0.0,0.0,0.0,0.0,0.0,0.0,0.0,0.0,0.0,0.0,0.0,0.0,0.0,0.0,0.0,0.0,0.0,0.0,-0.1097,-0.1761,-0.2971,-0.4375,-0.4921,-0.5354,0.9412,0.9415,0.9483,0.9595,0.9901,1.1443,1.2137,1.274,1.4891,1.6315,1.7179,1.822,1.9089,1.9714,1.97,1.9619,1.9573,1.9504,1.9424,1.9424,1.9424,1.9424,1.9424,1.9424,1.9424,1.935,1.8971,1.8096,1.7469,1.6636,1.5856,1.4407,1.3493,1.2665,1.1955,1.0412,0.967,0.9142,0.8512,0.8048,0.7988,0.7988,0.7988,0.7988,0.7988,0.7988,0.7988,0.7985,0.7891,0.7736,0.7658,0.7502,0.7305,0.72,0.7095,0.7095,0.7095,0.7095,0.7095,0.7095,0.7095,0.7095,0.7095,0.7095,0.7095,0.7095,0.7095,0.7095,0.7095,0.7095,0.7095,0.7095,0.7095,0.7095,0.7095,0.7095,0.7095,0.7095,0.6782,0.6293,0.58,0.4689,0.3561,0.0,0.0,0.0,0.0,0.0,0.0,0.0,0.0,0.0,0.0,0.0,0.0,0.0,0.0,0.0,0.0,0.0,0.0,0.0,0.0,0.0,0.0,0.0,0.0,0.0,0.0,0.0,-0.1176,-0.227,-0.3361,-0.4569,-0.504,0.9663,0.9663,0.9663,0.9981,1.0655,1.222,1.3277,1.4038,1.6638,1.7831,1.8171,1.9258,1.9973,2.0147,1.9993,1.986,1.9766,1.9566,1.9491,1.945,1.9424,1.9424,1.9424,1.9424,1.9424,1.9366,1.8532,1.7453,1.6178,1.5124,1.4042,1.2928,1.206,1.1063,1.0358,0.9518,0.8824,0.8602,0.8217,0.8002,0.7988,0.7988,0.7988,0.7988,0.7988,0.7988,0.7988,0.7988,0.7911,0.7814,0.7668,0.7522,0.7366,0.7221,0.7102,0.7095,0.7095,0.7095,0.7095,0.7095,0.7095,0.7095,0.7095,0.7095,0.7095,0.7095,0.7095,0.7095,0.7095,0.7095,0.7095,0.7095,0.7095,0.7095,0.7095,0.7095,0.7095,0.7095,0.7095,0.6782,0.6384,0.6204,0.5024,0.3744,0.0,0.0,0.0,0.0845,0.0,0.0,0.0,0.0,0.0,0.0,0.0,0.0,0.0,0.0,0.0,0.0,0.0,0.0,0.0,0.0,0.0,0.0,0.0,0.0,0.0,0.0,-0.0706,-0.1176,-0.2152,-0.3517,-0.4882,0.9805,0.9805,0.9869,1.0795,1.2462,1.4112,1.5812,1.7114,1.9006,1.9758,1.9704,2.014,2.0227,2.0254,2.0234,2.0067,1.982,1.978,1.9586,1.9432,1.9424,1.9424,1.9424,1.9424,1.9301,1.8939,1.8023,1.6487,1.4746,1.3327,1.2282,1.1432,1.0935,1.0158,0.9541,0.8998,0.8584,0.8374,0.8163,0.8012,0.7995,0.7988,0.7988,0.7988,0.7988,0.7988,0.7988,0.7988,0.7941,0.7793,0.7709,0.7587,0.7451,0.7272,0.7193,0.718,0.7105,0.7102,0.7095,0.7095,0.7095,0.7095,0.7095,0.7095,0.7095,0.7095,0.7095,0.7095,0.7095,0.7095,0.7095,0.7095,0.7095,0.7095,0.7095,0.7095,0.7095,0.7095,0.7095,0.7095,0.6918,0.665,0.647,0.5176,0.4198,0.3573,0.2858,0.2136,0.1422,0.0,0.0,0.0,0.0,0.0,0.0,0.0,0.0,0.0,0.0,0.0,0.0,0.0,0.0,0.0,0.0,0.0,0.0,0.0,0.0,0.0,-0.0275,-0.0784,-0.1723,-0.3127,-0.4533,1.0566,1.1543,1.1653,1.204,1.2803,1.562,1.7215,1.8099,1.9485,2.0347,2.0508,2.0508,2.0601,2.0675,2.0548,2.0341,2.0067,1.9867,1.9639,1.9511,1.9424,1.9424,1.9424,1.9185,1.8939,1.7981,1.7085,1.5483,1.3173,1.2069,1.1113,1.0421,1.0036,0.9566,0.8999,0.8777,0.8587,0.8421,0.8248,0.8147,0.7995,0.7988,0.7988,0.7988,0.7988,0.7988,0.7988,0.7988,0.7951,0.788,0.7801,0.7695,0.759,0.74,0.7299,0.7272,0.7176,0.7132,0.7112,0.7109,0.7095,0.7095,0.7095,0.7095,0.7095,0.7095,0.7095,0.7095,0.7095,0.7095,0.7095,0.7095,0.7095,0.7095,0.7095,0.7095,0.7095,0.7095,0.7095,0.7095,0.7095,0.7007,0.6871,0.665,0.5714,0.491,0.415,0.3434,0.2759,0.1998,0.1409,0.1001,0.0846,0.0372,0.0,0.0,0.0,0.0,0.0,0.0,0.0,0.0,0.0,0.0,0.0,0.0,0.0,0.0,0.0,0.0,0.0,-0.051,-0.1606,-0.2813,-0.4064,1.1545,1.2779,1.402,1.4394,1.4651,1.696,1.8328,1.9026,2.0002,2.0595,2.0808,2.0815,2.0902,2.0982,2.0795,2.0581,2.0287,1.9993,1.9726,1.9546,1.9432,1.914,1.9004,1.8829,1.8344,1.685,1.6068,1.4703,1.2392,1.1462,1.0498,0.9624,0.9083,0.8967,0.8893,0.874,0.8587,0.8472,0.8289,0.8167,0.7995,0.7988,0.7988,0.7988,0.7988,0.7988,0.7988,0.7988,0.7988,0.7931,0.785,0.7821,0.7723,0.7607,0.7468,0.74,0.735,0.723,0.7216,0.7136,0.7105,0.7095,0.7095,0.7095,0.7095,0.7095,0.7095,0.7095,0.7095,0.7095,0.7095,0.7095,0.7095,0.7095,0.7095,0.7095,0.7095,0.7095,0.7095,0.7095,0.7095,0.7095,0.7051,0.6918,0.6605,0.5758,0.5045,0.4463,0.4059,0.3293,0.253,0.2147,0.1938,0.1305,0.0,0.0,0.0,0.0,0.0,0.0,0.0,0.0,0.0,0.0,0.0,0.0,0.0,0.0,0.0,0.0,0.0,0.0,-0.141,-0.262,-0.3595,1.273,1.3349,1.6615,1.8038,1.7947,1.8226,1.9324,2.0585,2.0883,2.1029,2.1049,2.1056,2.1042,2.1029,2.0802,2.0635,2.0394,2.0034,1.9766,1.9646,1.9452,1.8532,1.8163,1.8046,1.739,1.5252,1.4465,1.3611,1.1791,1.0561,0.9608,0.9291,0.9035,0.8937,0.891,0.8648,0.8503,0.8494,0.8204,0.8123,0.7995,0.7988,0.7988,0.7988,0.7988,0.7988,0.7988,0.7988,0.7988,0.7965,0.7874,0.7862,0.7824,0.7689,0.7597,0.7584,0.757,0.7556,0.7546,0.7295,0.7139,0.7102,0.7095,0.7095,0.7095,0.7095,0.7095,0.7095,0.7095,0.7095,0.7095,0.7095,0.7095,0.7095,0.7095,0.7095,0.7095,0.7095,0.7095,0.7095,0.7095,0.7095,0.7095,0.7095,0.7095,0.6605,0.5894,0.5447,0.5179,0.4505,0.365,0.3266,0.3001,0.2384,0.179,0.1637,0.0,0.0,0.0,0.0,0.0,0.0,0.0,0.0,0.0,0.0,0.0,0.0,0.0,0.0,0.0,0.0,0.0,-0.2268,-0.3127,1.4334,1.6563,1.7886,1.9081,2.0048,2.0181,2.0567,2.1032,2.1102,2.1102,2.1102,2.1102,2.0982,2.0882,2.0875,2.0661,2.016,2.0234,1.9993,1.9526,1.9464,1.8363,1.7689,1.7208,1.6138,1.382,1.2855,1.2239,1.0313,0.9624,0.9418,0.9157,0.9011,0.8947,0.8868,0.8737,0.8716,0.8513,0.8364,0.8255,0.8019,0.7988,0.7988,0.7988,0.7988,0.7988,0.7988,0.7988,0.7988,0.7988,0.7904,0.7901,0.7877,0.7814,0.7743,0.7712,0.7678,0.7546,0.7528,0.7319,0.7244,0.7149,0.7098,0.7098,0.7095,0.7095,0.7095,0.7095,0.7095,0.7095,0.7095,0.7095,0.7095,0.7095,0.7095,0.7095,0.7095,0.7095,0.7095,0.7095,0.7095,0.7095,0.7095,0.7095,0.7095,0.7095,0.6473,0.6428,0.6248,0.5578,0.477,0.4431,0.4071,0.3475,0.2986,0.2562,0.1982,0.0,0.0,0.0,0.0,0.0,0.0,0.0,0.0,0.0,0.0,0.0,0.0,0.0,0.0,0.0,0.0,-0.1449,-0.2308,1.5689,1.8335,1.9148,1.9998,2.1039,2.1102,2.1102,2.1102,2.1102,2.1102,2.1102,2.1102,2.1029,2.0909,2.0842,2.0775,2.0114,2.0027,2.0,1.9506,1.9457,1.8415,1.7443,1.6668,1.5241,1.3044,1.2007,1.1331,0.9756,0.9487,0.9266,0.9093,0.8988,0.8947,0.8861,0.8794,0.8713,0.8513,0.8384,0.8255,0.8052,0.7988,0.7988,0.7988,0.7988,0.7988,0.7988,0.7988,0.7988,0.7988,0.7988,0.7988,0.7951,0.7911,0.7889,0.7806,0.7811,0.7682,0.759,0.7475,0.7411,0.7343,0.7176,0.7102,0.7095,0.7095,0.7095,0.7095,0.7098,0.7102,0.7105,0.7102,0.7095,0.7095,0.7095,0.7095,0.7109,0.7112,0.7119,0.7119,0.7112,0.7109,0.7105,0.7095,0.7095,0.7095,0.7051,0.7095,0.7095,0.6425,0.5847,0.5554,0.53,0.4868,0.4091,0.3215,0.2572,0.1791,0.0,0.0,0.0,0.0,0.0,0.0,0.0,0.0,0.0,0.0,0.0,0.0,0.0,0.0,0.0,-0.0745,-0.1722,1.687,1.8686,2.0392,2.1039,2.1102,2.1102,2.1102,2.1102,2.1102,2.1102,2.1102,2.1102,2.1009,2.0975,2.0795,2.0581,2.0394,1.9993,1.982,1.9542,1.9147,1.8012,1.7026,1.625,1.4173,1.2744,1.1739,1.0821,0.947,0.93,0.9154,0.9015,0.8954,0.8937,0.8848,0.875,0.8659,0.8503,0.836,0.8221,0.8025,0.7988,0.7988,0.7988,0.7988,0.7988,0.7988,0.7988,0.7988,0.7988,0.7988,0.7988,0.7985,0.7988,0.7988,0.7982,0.7961,0.7906,0.7773,0.7641,0.758,0.7492,0.7329,0.7214,0.7112,0.7125,0.716,0.7119,0.7125,0.7122,0.7119,0.7109,0.7095,0.7095,0.7095,0.7109,0.7129,0.7139,0.7152,0.7152,0.7146,0.7142,0.7142,0.7132,0.7112,0.7095,0.7095,0.7095,0.7095,0.7095,0.665,0.6647,0.643,0.6305,0.5451,0.4316,0.3304,0.2539,0.1313,0.0,0.0,0.0,0.0,0.0,0.0,0.0,0.0,0.0,0.0,0.0,0.0,0.0,0.0,0.0,-0.1372,1.8697,2.0386,2.0912,2.1102,2.1102,2.1102,2.1102,2.1102,2.1102,2.1102,2.1102,2.1102,2.0889,2.0508,2.0601,2.0287,1.998,1.976,1.9653,1.9285,1.8635,1.6926,1.5548,1.4475,1.2513,1.1275,1.0423,1.0229,0.9538,0.9218,0.9072,0.8898,0.8937,0.8937,0.8876,0.8781,0.8625,0.8479,0.8333,0.8197,0.8032,0.7988,0.7988,0.7988,0.7988,0.7988,0.7988,0.7988,0.7988,0.7988,0.7988,0.7988,0.7988,0.7988,0.7988,0.7988,0.7971,0.7921,0.7838,0.7773,0.7719,0.7641,0.7502,0.7417,0.7326,0.7206,0.7221,0.7227,0.7196,0.7248,0.7265,0.7258,0.7234,0.7179,0.7231,0.7251,0.7275,0.7309,0.7319,0.7322,0.7312,0.7258,0.721,0.7159,0.7183,0.7112,0.7095,0.7095,0.7095,0.7095,0.7095,0.7095,0.7037,0.6775,0.639,0.5406,0.4307,0.3228,0.1941,0.0839,0.0,0.0,0.0,0.0,0.0,0.0,0.0,0.0,0.0,0.0,0.0,0.0,0.0,0.0,0.0,1.9546,2.0976,2.1102,2.1102,2.1102,2.1102,2.1056,2.0975,2.1056,2.1062,2.0949,2.0929,2.0675,2.0334,2.0388,2.018,1.9653,1.9733,1.9659,1.9199,1.8286,1.7273,1.5548,1.3756,1.2572,1.104,0.9968,0.9749,0.931,0.9093,0.894,0.8885,0.8937,0.8896,0.8815,0.8679,0.8537,0.8414,0.8299,0.8184,0.8099,0.7988,0.7988,0.7988,0.7988,0.7988,0.7988,0.7988,0.7988,0.7988,0.7988,0.7988,0.7988,0.7988,0.7988,0.7988,0.7985,0.7951,0.787,0.7786,0.7801,0.775,0.7672,0.759,0.7526,0.7458,0.739,0.735,0.7353,0.7356,0.7377,0.7387,0.736,0.7333,0.7353,0.7373,0.7411,0.7451,0.7468,0.7475,0.7434,0.737,0.7319,0.7258,0.72,0.7115,0.7095,0.7095,0.7095,0.7095,0.7095,0.7095,0.7088,0.6977,0.6589,0.622,0.5161,0.3891,0.2525,0.1511,0.0801,0.0,0.0,0.0,0.0,0.0,0.0,0.0,0.0,0.0,0.0,0.0,0.0,0.0,0.0,1.968,2.1109,2.1102,2.1102,2.1102,2.1069,2.0922,2.0715,2.0902,2.0889,2.0668,2.0635,2.0468,2.0187,2.018,2.0027,1.9706,1.9673,1.9586,1.9366,1.8648,1.7572,1.6085,1.5004,1.2631,1.155,1.0613,0.9476,0.9191,0.9008,0.8937,0.8937,0.8851,0.8794,0.874,0.8554,0.8414,0.8378,0.8245,0.8153,0.8025,0.7988,0.7988,0.7988,0.7988,0.7988,0.7988,0.7988,0.7988,0.7988,0.7988,0.7988,0.7988,0.7988,0.7988,0.7988,0.7988,0.7978,0.7938,0.787,0.7884,0.7833,0.7801,0.7736,0.7678,0.7584,0.7495,0.7499,0.7509,0.7533,0.7553,0.7519,0.7485,0.7472,0.7485,0.7526,0.7584,0.7631,0.7678,0.7658,0.756,0.7489,0.7377,0.7316,0.7193,0.7112,0.7095,0.7095,0.7095,0.7095,0.7095,0.7095,0.7092,0.7082,0.6879,0.6461,0.5829,0.4628,0.3217,0.2125,0.1431,0.0,0.0,0.0,0.0,0.0,0.0,0.0,0.0,0.0,0.0,0.0,0.0,0.0,0.0,2.0716,2.1109,2.1102,2.1102,2.1069,2.0875,2.0742,2.0661,2.0494,2.0401,2.0347,2.0314,2.018,1.994,1.99,1.9753,1.9553,1.9533,1.9439,1.9023,1.8467,1.736,1.5349,1.4079,1.2205,1.0662,0.9693,0.9337,0.9096,0.8974,0.8878,0.8868,0.8804,0.8747,0.8676,0.8469,0.8361,0.8289,0.816,0.8109,0.8005,0.7988,0.7988,0.7988,0.7988,0.7988,0.7988,0.7988,0.7988,0.7988,0.7988,0.7988,0.7988,0.7988,0.7988,0.7988,0.7988,0.7988,0.7978,0.7941,0.7951,0.7958,0.7897,0.7882,0.7797,0.7672,0.7621,0.7651,0.7682,0.7709,0.7712,0.7662,0.7624,0.7624,0.7624,0.7692,0.7753,0.7766,0.783,0.778,0.7678,0.757,0.7451,0.7336,0.7169,0.7115,0.7102,0.7095,0.7095,0.7095,0.7095,0.7095,0.7095,0.7044,0.6946,0.6794,0.6284,0.5361,0.4009,0.2969,0.1919,0.0,0.0,0.0,0.0,0.0,0.0,0.0,0.0,0.0,0.0,0.0,0.0,0.0,0.0,2.1102,2.1096,2.0969,2.0842,2.0708,2.0541,2.0414,2.0267,2.0107,1.9967,1.9887,1.9947,1.9887,1.9639,1.9606,1.9566,1.9437,1.943,1.9437,1.901,1.8345,1.7223,1.5499,1.3731,1.2309,1.0833,0.9598,0.9103,0.9011,0.8957,0.8878,0.8851,0.8788,0.8662,0.8594,0.8387,0.8231,0.8163,0.8025,0.7998,0.7988,0.7988,0.7988,0.7988,0.7988,0.7988,0.7988,0.7988,0.7988,0.7988,0.7988,0.7988,0.7988,0.7988,0.7988,0.7988,0.7988,0.7988,0.7988,0.7988,0.7988,0.7988,0.7988,0.7901,0.7953,0.7841,0.778,0.7807,0.7858,0.784,0.7892,0.7858,0.7848,0.78,0.78,0.7833,0.786,0.7894,0.782,0.7699,0.7621,0.7567,0.7451,0.7353,0.7238,0.7109,0.7095,0.7098,0.7098,0.7095,0.7095,0.7095,0.7095,0.7095,0.7044,0.6993,0.6791,0.5815,0.4727,0.2946,0.0,0.0,0.0,0.0,0.0,0.0,0.0,0.0,0.0,0.0,0.0,0.0,0.0,0.0,0.0,2.0975,2.0955,2.0768,2.0508,2.0187,2.0187,2.0054,1.984,1.976,1.9619,1.9466,1.9659,1.9566,1.9446,1.9424,1.9424,1.9397,1.9259,1.9336,1.9259,1.9148,1.7625,1.6172,1.4777,1.274,1.0964,0.9606,0.9195,0.9069,0.8964,0.8869,0.8869,0.8743,0.8584,0.8448,0.8313,0.8174,0.8049,0.7992,0.7992,0.7988,0.7988,0.7988,0.7988,0.7988,0.7988,0.7988,0.7988,0.7988,0.7988,0.7988,0.7988,0.7988,0.7988,0.7988,0.7988,0.7988,0.7988,0.7988,0.7988,0.7988,0.7988,0.7988,0.7985,0.7982,0.7948,0.7887,0.7894,0.7944,0.7944,0.7948,0.7984,0.7931,0.7921,0.7924,0.7924,0.7934,0.7928,0.7804,0.7617,0.7567,0.7522,0.7468,0.7366,0.7275,0.7187,0.7112,0.7105,0.7105,0.7098,0.7095,0.7095,0.7095,0.7095,0.7095,0.7092,0.6993,0.6451,0.5259,0.2948,0.0,0.0,0.0,0.0,0.0,0.0,0.0,0.0,0.0,0.0,0.0,0.0,0.0,0.0,0.0,2.0401,2.0414,2.0588,2.0494,2.0207,1.998,1.9846,1.9766,1.9546,1.9464,1.9392,1.9392,1.9399,1.9424,1.9424,1.9397,1.9259,1.9132,1.9025,1.8991,1.8865,1.7647,1.6269,1.4735,1.2291,1.0614,0.9433,0.9161,0.8944,0.8815,0.8754,0.874,0.8476,0.8353,0.8313,0.8187,0.8035,0.7988,0.7988,0.7988,0.7988,0.7988,0.7988,0.7988,0.7988,0.7988,0.7988,0.7988,0.7988,0.7988,0.7988,0.7988,0.7988,0.7988,0.7988,0.7988,0.7988,0.7988,0.7988,0.7988,0.7988,0.7988,0.7988,0.7988,0.7985,0.7985,0.7948,0.7948,0.7961,0.7901,0.7884,0.7889,0.7868,0.7848,0.7793,0.7793,0.78,0.778,0.7658,0.7553,0.7489,0.7489,0.7502,0.7407,0.7322,0.7261,0.7258,0.7241,0.7105,0.7098,0.7095,0.7095,0.7095,0.7095,0.7095,0.7095,0.7003,0.6602,0.5708,0.3461,0.1721,0.0569,0.0,0.0,0.0,0.0,0.0,0.0,0.0,0.0,0.0,0.0,0.0,0.0,0.0]}]]